     2.11           OBSERVATION DATA    G (GPS)             RINEX VERSION / TYPE
teqc 2010Oct21 OPUS Account 20111027 15:58:22UTC            PGM / RUN BY / DATE
H 1525                                                      MARKER NAME
3037                                                        MARKER NUMBER
CSMIDDLETON NGS                                             OBSERVER / AGENCY
0220284361 TRIMBLE 5700 NP 1.22 / SP 1.22                   REC # / TYPE / VERS
12234991 TRM41249.00 NONE                                   ANT # / TYPE
  -764437.5319 -5543442.5722  3050421.9819                  APPROX POSITION XYZ
        2.0000        0.0000        0.0000                  ANTENNA: DELTA H/E/N
     1     1                                                WAVELENGTH FACT L1/2
     5    L1    L2    C1    P1    P2                        # / TYPES OF OBSERV
    15                                                      LEAP SECONDS
  2011     8    15    18    10    0.0000000     GPS         TIME OF FIRST OBS
                                                            END OF HEADER
 11  8 15 18 10  0.0000000  0  8G11G07G08G24G13G19G23G28
   -570750.59857   -435748.69155  22242612.4224                   22242611.5984
   -377954.03558   -336289.79657  20583006.4224                   20583003.8444
   -473560.00458   -362313.43056  21549542.5944                   21549541.0634
   -808929.30157   -620150.25354  23620732.2894                   23620733.6374
    470868.79757    346450.54855  22097171.8754                   22097171.2544
    334316.73058    251748.98456  22259261.6414                   22259258.4454
    525624.30156    392698.09654  24086021.5784                   24086022.2234
   -303107.96157   -248720.11855  22799210.5944                   22799208.8164
 11  8 15 18 10 30.0000000  0  8G11G07G08G24G13G19G23G28
   -657111.14147   -503042.58845  22226178.5704                   22226177.3094
   -435298.44948   -380973.78946  20572093.8444                   20572091.5274
   -574173.95747   -440713.92246  21530396.5234                   21530395.0554
   -914491.04347   -702406.06944  23600644.1024                   23600646.5004
    533400.82047    395176.69845  22109071.3364                   22109070.3634
    379249.35947    286761.35445  22267812.3054                   22267808.7734
    605852.41046    455213.22644  24101289.0554                   24101288.9884
   -371852.09447   -302286.98545  22786129.0554                   22786127.3284
 11  8 15 18 11  0.0000000  0  8G11G07G08G24G13G19G23G28
   -743137.65247   -570076.22445  22209808.1564                   22209806.9734
   -492371.10248   -425446.01647  20561233.6724                   20561231.1684
   -674704.21148   -519049.19246  21511266.2584                   21511264.5784
  -1019994.20347   -784616.22544  23580567.2504                   23580569.6214
    596169.19547    444087.00745  22121015.9534                   22121014.7344
    424505.55948    322025.89246  22276423.7664                   22276420.7424
    686049.43446    517704.12144  24116549.8984                   24116549.9774
   -440518.87147   -355793.56645  22773062.3054                   22773060.5044
 11  8 15 18 11 30.0000000  0  9G11G07G08G24G13G19G23G28G17
   -828815.18747   -636837.93345  22193504.1174                   22193502.6884
   -549157.64848   -469695.28946  20550427.1484                   20550424.7194
   -775136.29747   -597307.95446  21492154.5164                   21492152.4064
  -1125423.14847   -866768.59844  23560504.9844                   23560506.5514
    659183.72347    493189.13845  22133007.4304                   22133006.1844
    470095.31647    357550.31845  22285099.7974                   22285096.1484
    766225.19146    580178.45944  24131807.0784                   24131807.9774
   -509096.15247   -409230.40045  22760012.5704                   22760010.7704
   -143420.79756   -100491.70154  24758075.0004                   24758079.3634
 11  8 15 18 12  0.0000000  0  9G11G07G08G24G13G19G23G28G17
   -914141.17647   -703325.69345  22177267.6024                   22177265.8984
   -605656.43448   -513720.34846  20539675.9224                   20539673.4224
   -875467.75848   -675488.32646  21473062.0784                   21473060.5514
  -1230774.91846   -948860.82244  23540456.6414                   23540458.5784
    722441.16047    542480.54745  22145044.8594                   22145043.9654
    516015.60547    393332.31345  22293837.6724                   22293834.2154
    846376.93446    642634.08744  24147059.1484                   24147060.3324
   -577585.33247   -462598.61745  22746979.5314                   22746977.3634
   -282660.09447   -208989.71144  24731578.2194                   24731582.1524
 11  8 15 18 12 30.0000000  0  9G11G07G08G24G13G19G23G28G17
   -999053.89847   -769491.43845  22161109.3834                   22161107.2894
   -661806.24248   -557473.45347  20528991.0394                   20528988.7034
   -975638.02748   -753543.08846  21454000.2734                   21453998.9224
  -1335987.20347  -1030844.28744  23520435.5944                   23520437.6054
    785997.44147    592004.82045  22157139.3984                   22157138.3364
    562322.61747    429415.65745  22302649.3834                   22302646.5474
    926560.82446    705114.74343  24162318.2194                   24162318.5554
   -645927.96947   -515852.59145  22733974.0004                   22733972.4534
   -421789.23447   -317401.79844  24705102.7424                   24705106.4694
 11  8 15 18 13  0.0000000  0  9G11G07G08G24G13G19G23G28G17
  -1083590.46147   -835364.06545  22145022.7734                   22145020.9104
   -717644.71148   -600983.97046  20518365.3204                   20518362.6844
  -1075683.99248   -831500.99846  21434962.1724                   21434960.5634
  -1441096.91446  -1112747.87543  23500433.6254                   23500435.7154
    849810.00447    641728.80045  22169282.9614                   22169281.3204
    608974.24647    465767.50945  22311527.3054                   22311524.3404
   1006734.39546    767587.35643  24177575.1884                   24177575.4614
   -714164.65247   -569024.04945  22720988.7814                   22720987.0984
   -560846.12546   -425757.59344  24678640.8444                   24678644.6954
 11  8 15 18 13 30.0000000  0  9G11G07G08G24G13G19G23G28G17
  -1167750.83247   -900943.54945  22129006.9614                   22129005.1884
   -773173.38348   -644253.08447  20507798.6804                   20507795.9144
  -1175606.13348   -909362.42146  21415948.1564                   21415946.8284
  -1546103.37146  -1194570.99544  23480451.7424                   23480453.4654
    913873.14547    691648.02145  22181473.3594                   22181472.1254
    655964.61747    502383.33545  22320469.5864                   22320466.1914
   1086892.23846    830047.67642  24192827.7034                   24192827.0314
   -782299.25447   -622115.92845  22708023.4534                   22708021.3164
   -699831.42246   -534057.60144  24652192.8984                   24652196.3094
 11  8 15 18 14  0.0000000  0  9G11G07G08G24G13G19G23G28G17
  -1251515.31647   -966214.55445  22113067.3134                   22113065.2234
   -828373.27748   -687266.02247  20497294.6094                   20497292.0594
  -1275385.54748   -987112.62346  21396960.5394                   21396958.8834
  -1650986.48447  -1276297.99544  23460492.4844                   23460495.2504
    978201.03147    741773.53845  22193714.7274                   22193713.8364
    703308.48047    539274.60245  22329478.5634                   22329475.6914
   1167048.34446    892506.70742  24208081.6414                   24208080.4654
   -850315.30147   -675115.44645  22695080.3524                   22695078.3284
   -838725.58646   -642286.56643  24625761.7034                   24625766.0434
 11  8 15 18 14 30.0000000  0  9G11G07G08G24G13G19G23G28G17
  -1334878.72747  -1031173.03345  22097203.6174                   22097202.0164
   -883239.90648   -730019.26546  20486853.7894                   20486851.2464
  -1375017.48048  -1064747.89846  21378001.1094                   21377999.2814
  -1755740.65647  -1357924.51044  23440558.6804                   23440561.1214
   1042793.14547    792104.96745  22206006.3674                   22206005.2274
    751005.16847    576440.80845  22338555.1254                   22338552.4884
   1247202.88346    954964.58543  24223335.5164                   24223334.3284
   -918211.35547   -728021.44645  22682160.2424                   22682157.9964
   -977523.95346   -750440.95744  24599349.6174                   24599353.6174
 11  8 15 18 15  0.0000000  0  9G11G07G08G24G13G19G23G28G17
  -1417829.42247  -1095809.91245  22081418.5704                   22081417.2814
   -937762.05548   -772504.07246  20476478.5864                   20476476.1294
  -1474490.23048  -1142259.13746  21359072.1414                   21359070.3524
  -1860353.33247  -1439440.75144  23420651.7034                   23420653.8284
   1107655.54347    842647.00145  22218349.4224                   22218347.9884
    799061.35547    613887.12945  22347699.5784                   22347696.5354
   1327362.13346   1017426.03543  24238589.3674                   24238589.4694
   -985978.97747   -780827.38045  22669264.4384                   22669261.9844
  -1116215.36346   -858511.94743  24572957.0004                   24572961.3594
 11  8 15 18 15 30.0000000  0  9G11G07G08G24G13G19G23G28G17
  -1500359.57048  -1160119.08645  22065713.7194                   22065712.3594
   -991932.77048   -814715.03847  20466170.3204                   20466167.8364
  -1573796.41047  -1219640.57546  21340174.6174                   21340173.0314
  -1964816.20747  -1520840.32044  23400773.4224                   23400774.8014
   1172790.72347    893401.59045  22230743.9924                   22230743.1644
    847479.49247    651615.50245  22356913.5234                   22356910.1954
   1407528.66446   1079893.19543  24253844.3054                   24253845.1994
  -1053613.79347   -833529.81745  22656393.9534                   22656391.5274
  -1254792.47746   -966493.92043  24546586.5164                   24546591.4104
 11  8 15 18 16  0.0000000  0  9G11G07G08G24G13G19G23G28G17
  -1582464.34448  -1224096.82145  22050089.7034                   22050088.1174
  -1045747.70748   -856648.78347  20455929.3204                   20455927.0124
  -1672931.69148  -1296888.84246  21321309.8524                   21321308.1334
  -2069123.84047  -1602118.89644  23380924.2664                   23380926.4534
   1238197.86347    944368.09845  22243190.6334                   22243189.9494
    896259.12147    689625.53945  22366196.0394                   22366192.9804
   1487702.17647   1142365.75844  24269101.5864                   24269102.4264
  -1121114.51647   -886127.78145  22643548.7194                   22643546.8284
  -1393250.68046  -1074383.25643  24520239.0474                   24520242.3954
 11  8 15 18 16 30.0000000  0  9G11G07G08G24G13G19G23G28G17
  -1664135.60547  -1287736.73645  22034548.2814                   22034546.8754
  -1099200.00848   -898299.95447  20445757.8754                   20445755.6094
  -1771888.32847  -1373997.91746  21302479.3594                   21302477.4694
  -2173268.15247  -1683270.23044  23361106.0314                   23361108.0124
   1303879.19147    995548.22845  22255689.1884                   22255689.0984
    945402.75447    727919.22745  22375548.0084                   22375544.6334
   1567885.07847   1204845.69444  24284359.7734                   24284361.0824
  -1188476.55947   -938617.67545  22630730.2504                   22630728.5514
  -1531582.68046  -1182174.26843  24493915.3594                   24493918.4024
 11  8 15 18 17  0.0000000  0  9G11G07G08G24G13G19G23G28G17
  -1745371.95747  -1351037.75845  22019089.5004                   22019088.1484
  -1152288.69148   -939667.79947  20435655.7974                   20435653.3404
  -1870665.09848  -1450966.84246  21283682.4144                   21283680.6884
  -2277246.55947  -1764292.27444  23341318.9844                   23341320.9184
   1369830.53547   1046938.79745  22268239.7894                   22268239.0354
    994906.52347    766493.55345  22384967.8834                   22384964.5514
   1648073.59446   1267329.97443  24299619.3984                   24299620.7034
  -1255701.85247   -991001.02345  22617937.9924                   22617935.6174
  -1669787.47346  -1289866.11943  24467615.6334                   24467618.2774
 11  8 15 18 17 30.0000000  0  9G11G07G08G24G13G19G23G28G17
  -1826165.03547  -1413993.37145  22003714.6644                   22003713.1174
  -1205005.98848   -980746.23446  20425623.7194                   20425621.6254
  -1969253.75047  -1527789.16946  21264921.5944                   21264920.0474
  -2381050.18747  -1845178.13444  23321565.8674                   23321567.8094
   1436055.02047   1098542.17145  22280841.8674                   22280841.2194
   1044773.81347    805351.11945  22394457.9844                   22394454.6024
   1728271.02046   1329821.17643  24314880.4064                   24314882.0784
  -1322785.77347  -1043274.21145  22605172.1564                   22605170.4144
  -1807857.00446  -1397452.54543  24441340.8444                   24441344.4264
 11  8 15 18 18  0.0000000  0  9G11G07G08G24G13G19G23G28G17
  -1906513.39847  -1476602.46645  21988425.1884                   21988423.3954
  -1257351.52348  -1021534.97946  20415662.4614                   20415660.3094
  -2067653.37548  -1604464.19646  21246197.0164                   21246195.0744
  -2484677.26247  -1925926.40844  23301846.1564                   23301848.0784
   1502548.56347   1150355.21845  22293495.0394                   22293494.5704
   1095000.53547    844488.78545  22404015.6254                   22404012.2034
   1808473.76646   1392316.51643  24330143.0314                   24330144.1454
  -1389729.91447  -1095438.47945  22592433.2664                   22592431.1334
  -1945790.17246  -1504932.79743  24415093.7114                   24415096.8054
 11  8 15 18 18 30.0000000  0  9G11G07G08G24G13G19G23G28G17
  -1986413.28947  -1538862.08445  21973220.7114                   21973219.2934
  -1309322.01248  -1062031.49047  20405772.9924                   20405770.7774
  -2165860.46548  -1680989.20946  21227508.6724                   21227506.8874
  -2588123.36347  -2006533.67844  23282161.3284                   23282162.9344
   1569309.18847   1202376.36345  22306199.3284                   22306198.9804
   1145585.00847    883905.21145  22413641.5394                   22413638.3874
   1888680.38346   1454814.89043  24345406.2424                   24345407.6484
  -1456533.77047  -1147493.43045  22579721.0234                   22579718.6024
  -2083583.59046  -1612304.13143  24388872.5314                   24388874.6914
 11  8 15 18 19  0.0000000  0  9G11G07G08G24G13G19G23G28G17
  -2065858.99247  -1600767.80345  21958102.5634                   21958101.1764
  -1360912.39148  -1102231.80647  20395955.9534                   20395953.2464
  -2263869.36748  -1757359.79746  21208858.2194                   21208855.9884
  -2691381.91447  -2086994.80444  23262511.7194                   23262513.2114
   1636337.39847   1254606.02045  22318954.7664                   22318953.7274
   1196528.03147    923601.01845  22423335.7194                   22423332.4804
   1968890.84046   1517316.24643  24360669.4774                   24360671.5004
  -1523195.19147  -1199437.37845  22567035.4924                   22567033.7544
  -2221231.95746  -1719562.43443  24362679.5944                   24362681.0824
 11  8 15 18 19 30.0000000  0  9G11G07G08G24G13G19G23G28G17
  -2144847.69548  -1662317.42245  21943071.3054                   21943070.3524
  -1412120.62948  -1142134.35147  20386211.1724                   20386208.8094
  -2361677.81248  -1833574.16246  21190245.8054                   21190243.9494
  -2794449.64547  -2167307.22244  23242898.6484                   23242900.9414
   1703630.32447   1307041.94845  22331760.1564                   22331759.3914
   1247827.18047    963574.33345  22433097.3594                   22433094.3914
   2049103.28546   1579819.16843  24375933.8364                   24375935.7894
  -1589714.60247  -1251270.68745  22554377.4144                   22554375.6844
  -2358732.66047  -1826705.74244  24336512.8444                   24336515.6174
 11  8 15 18 20  0.0000000  0  9G11G07G08G24G13G19G23G28G17
  -2223377.70747  -1723509.60545  21928127.7504                   21928126.4024
  -1462945.73048  -1181738.35447  20376539.2504                   20376537.2894
  -2459283.85947  -1909630.83946  21171672.0474                   21171670.2384
  -2897323.79747  -2247468.83844  23223321.8364                   23223323.7974
   1771184.28547   1359681.29545  22344614.9924                   22344614.3404
   1299478.71947   1003822.21345  22442926.7974                   22442923.9344
   2129314.29346   1642320.94043  24391197.4534                   24391199.2814
  -1656093.82047  -1302994.74745  22541745.2584                   22541743.3874
  -2496084.87546  -1933733.27644  24310375.5314                   24310378.4144
 11  8 15 18 20 30.0000000  0  9G11G07G08G24G13G19G23G28G17
  -2301447.47347  -1784343.15545  21913271.3834                   21913269.9884
  -1513386.46948  -1221042.85547  20366941.0634                   20366938.6604
  -2556685.89148  -1985528.52946  21153137.3204                   21153135.5944
  -3000002.22747  -2327477.88044  23203782.6254                   23203785.0904
   1838995.36747   1412520.97445  22357519.2034                   22357518.6294
   1351478.98047   1044341.86145  22452821.8054                   22452818.9534
   2209520.30546   1704818.84543  24406459.6024                   24406462.6804
  -1722334.39147  -1354610.76645  22529140.4614                   22529137.5204
  -2633286.82446  -2040643.66744  24284266.2974                   24284269.6804
 11  8 15 18 21  0.0000000  0  9G11G07G08G24G13G19G23G28G17
  -2379057.19547  -1844818.24245  21898503.0704                   21898501.2934
  -1563443.61348  -1260048.44147  20357415.2584                   20357413.1644
  -2653884.68047  -2061267.84046  21134640.7114                   21134638.9734
  -3102484.59047  -2407334.19044  23184281.1174                   23184282.9384
   1907057.87147   1465556.59145  22370470.8984                   22370470.3874
   1403822.60947   1085129.06145  22462782.8284                   22462779.5984
   2289715.85246   1767308.62743  24421721.8134                   24421723.5274
  -1788439.76647  -1406121.46345  22516560.9064                   22516558.4064
  -2770339.21547  -2147437.57444  24258186.8754                   24258189.4144
 11  8 15 18 21 30.0000000  0  8G11G07G08G24G13G19G28G17
  -2456195.61748  -1904926.07745  21883823.7194                   21883822.0664
  -1613107.15248  -1298747.32647  20347964.9144                   20347962.5554
  -2750868.60947  -2136839.73046  21116185.2894                   21116183.4494
  -3204759.30547  -2487028.70844  23164819.3914                   23164820.6094
   1975377.44547   1518792.50545  22383472.1254                   22383471.5084
   1456515.62547   1126188.49245  22472809.7344                   22472806.4534
  -1854402.34047  -1457520.83945  22504008.9924                   22504006.6954
  -2907231.28947  -2254106.54745  24232136.6484                   24232139.8404
 11  8 15 18 22  0.0000000  0  8G11G07G08G24G13G19G28G17
  -2532867.06248  -1964670.03145  21869233.6484                   21869232.2894
  -1662381.86748  -1337143.21747  20338588.1954                   20338585.7504
  -2847642.18048  -2212247.70046  21097769.7424                   21097767.9924
  -3306829.27747  -2566563.66244  23145395.7274                   23145397.2774
   2043944.43047   1572221.18844  22396520.7664                   22396519.3364
   1509548.40647   1167512.67645  22482901.5554                   22482898.1054
  -1920229.57447  -1508814.77945  22491482.4774                   22491480.3754
  -3043967.54347  -2360654.09944  24206116.4384                   24206119.0784
 11  8 15 18 22 30.0000000  0  8G11G07G08G24G13G19G28G17
  -2609062.07848  -2024042.75045  21854734.5084                   21854732.5904
  -1711259.04748  -1375229.36247  20329287.1484                   20329285.1094
  -2944196.66447  -2287484.97046  21079395.9924                   21079394.5824
  -3408684.68447  -2645931.45044  23126013.2584                   23126015.0234
   2112762.89147   1625845.86245  22409615.8204                   22409615.3164
   1562924.75847   1209104.60045  22493059.0944                   22493055.4884
  -1985915.50447  -1559998.59945  22478982.8914                   22478980.5664
  -3180539.06646  -2467073.31544  24180127.3984                   24180130.1334
 11  8 15 18 23  0.0000000  0  8G11G07G08G24G13G19G28G17
  -2684773.69948  -2083038.79745  21840326.5314                   21840325.4024
  -1759732.12948  -1413000.62047  20320063.1954                   20320060.5634
  -3040524.44148  -2362545.57946  21061065.6954                   21061063.8674
  -3510317.43747  -2725125.71144  23106672.7584                   23106674.5314
   2181834.21547   1679667.55945  22422759.7814                   22422759.3594
   1616647.50047   1250966.42645  22503281.6884                   22503278.2934
  -2051455.81247  -1611068.94645  22466510.7584                   22466508.3364
  -3316939.02746  -2573358.80843  24154171.1954                   24154173.5164
 11  8 15 18 23 30.0000000  0  8G11G07G08G24G13G19G28G17
  -2759999.23448  -2141656.07045  21826011.5314                   21826010.3594
  -1807799.19148  -1450455.49247  20310916.3054                   20310913.8164
  -3136623.27047  -2437427.78746  21042778.6804                   21042776.6484
  -3611724.45747  -2804144.11944  23087375.4774                   23087377.6174
   2251155.94547   1733684.34345  22435951.3674                   22435950.9454
   1670713.93847   1293096.06945  22513570.8834                   22513567.4534
  -2116851.41847  -1662026.54245  22454066.5164                   22454063.8914
  -3453164.90246  -2679508.63843  24128247.9534                   24128250.6134
 11  8 15 18 24  0.0000000  0  8G11G07G08G24G13G19G28G17
  -2834739.87948  -2199895.52045  21811789.1484                   21811787.4884
  -1855461.82448  -1487595.22847  20301846.3524                   20301843.9964
  -3232494.11348  -2512132.33946  21024535.1564                   21024533.2114
  -3712905.97347  -2882986.78044  23068121.1254                   23068123.6804
   2320721.52047   1787891.13745  22449189.1414                   22449189.3834
   1725117.44947   1335488.36745  22523923.6954                   22523920.1454
  -2182106.65647  -1712874.76045  22441648.5234                   22441646.4774
  -3589218.18046  -2785523.98343  24102358.9694                   24102359.9264
 11  8 15 18 24 30.0000000  0  9G11G07G08G24G13G19G26G28G17
  -2908996.52348  -2257757.83645  21797658.5394                   21797656.6994
  -1902721.45748  -1524420.94247  20292853.0704                   20292851.0004
  -3328137.44948  -2586659.62446  21006334.6564                   21006332.9384
  -3813862.00447  -2961653.73444  23048910.3284                   23048912.0594
   2390524.63747   1842283.04645  22462472.3594                   22462472.2894
   1779852.03547   1378138.65545  22534338.9454                   22534335.8404
   -129081.58256    -89282.34753  24190060.8524                   24190060.3594
  -2247225.59047  -1763616.76245  22429256.8594                   22429254.6684
  -3725100.02346  -2891405.75243  24076500.4304                   24076502.8914
 11  8 15 18 25  0.0000000  0  9G11G07G08G24G13G19G26G28G17
  -2982772.39548  -2315245.50245  21783619.3914                   21783617.8444
  -1949582.20348  -1560935.82247  20283935.8444                   20283933.3444
  -3423556.56648  -2661012.19546  20988176.9844                   20988175.2234
  -3914595.00847  -3040146.94944  23029740.9454                   23029743.1454
   2460556.62947   1896853.30145  22475799.0314                   22475799.0904
   1834909.23447   1421040.30945  22544816.0394                   22544812.8714
   -251736.04346   -184857.28043  24166720.7734                   24166720.3204
  -2312214.75447  -1814257.66445  22416889.9614                   22416887.8594
  -3860814.05946  -2997156.75343  24050674.8524                   24050677.1174
 11  8 15 18 25 30.0000000  0  9G11G07G08G24G13G19G26G28G17
  -3056074.39848  -2372363.93645  21769670.6564                   21769668.9654
  -1996051.23448  -1597145.47647  20275093.4844                   20275090.6844
  -3518758.37948  -2735195.42246  20970060.7894                   20970059.1054
  -4015110.71147  -3118470.77644  23010614.0944                   23010615.9454
   2530805.61347   1951592.64545  22489167.7424                   22489167.3014
   1890277.66047   1464184.47545  22555352.0784                   22555348.6644
   -374005.31246   -280131.99843  24143453.9844                   24143453.8554
  -2377084.11347  -1864805.20945  22404545.7734                   22404544.2304
  -3996366.96546  -3102782.22343  24024879.1804                   24024881.7464
 11  8 15 18 26  0.0000000  0  9G11G07G08G24G13G19G26G28G17
  -3128898.53148  -2429110.00545  21755812.7894                   21755810.9454
  -2042125.35548  -1633047.40446  20266325.6804                   20266323.4534
  -3613738.94948  -2809206.26046  20951986.4064                   20951984.8134
  -4115404.49647  -3196621.68244  22991528.2424                   22991530.2774
   2601270.07447   2006499.88445  22502576.4384                   22502576.5594
   1945955.93047   1507570.09745  22565947.5554                   22565944.6884
   -495884.72746   -375102.91843  24120261.1094                   24120261.3954
  -2441832.29747  -1915258.33245  22392224.7194                   22392222.9144
  -4131755.32846  -3208279.50543  23999116.1174                   23999117.4384
 11  8 15 18 26 30.0000000  0  9G11G07G08G24G13G19G26G28G17
  -3201243.65248  -2485482.81745  21742046.4144                   21742043.8524
  -2087803.91848  -1668641.11347  20257632.7974                   20257631.1524
  -3708496.65648  -2883043.44046  20933954.3054                   20933953.0514
  -4215474.54347  -3274598.26244  22972485.7974                   22972487.1684
   2671945.79747   2061571.75245  22516025.3284                   22516025.6484
   2001939.96147   1551193.95045  22576601.1024                   22576598.1954
   -617372.76646   -469768.85344  24097142.4924                   24097143.0904
  -2506461.81247  -1965618.99245  22379926.5864                   22379924.2304
  -4266978.05147  -3313647.66544  23973384.2734                   23973385.4964
 11  8 15 18 27  0.0000000  0  9G11G07G08G24G13G19G26G28G17
  -3273100.30147  -2541475.00745  21728372.0084                   21728370.1844
  -2133078.34448  -1703919.91147  20249017.6094                   20249015.3914
  -3803022.43748  -2956699.89646  20915967.3134                   20915965.1214
  -4315310.90247  -3352392.74544  22953487.7894                   22953489.0554
   2742836.39547   2116811.04044  22529515.8524                   22529515.5164
   2058233.77747   1595059.20745  22587313.7194                   22587310.4184
   -738459.55546   -564122.13444  24074100.8984                   24074100.9924
  -2570966.77347  -2015882.57945  22367651.0004                   22367648.6764
  -4402026.24247  -3418879.83844  23947685.5004                   23947687.6174
 11  8 15 18 27 30.0000000  0  9G11G07G08G24G13G19G26G28G17
  -3344467.85948  -2597086.06945  21714791.1884                   21714789.5474
  -2177947.74648  -1738883.10547  20240479.3444                   20240477.0864
  -3897314.73848  -3030174.41546  20898023.6804                   20898021.8014
  -4414910.99247  -3430003.11744  22934533.8524                   22934535.5984
   2813938.21147   2172214.93044  22543045.9694                   22543045.7624
   2114833.72347   1639163.02245  22598083.7034                   22598080.9924
   -859143.18046   -658161.26944  24051135.3134                   24051135.6024
  -2635348.49647  -2066050.18045  22355399.2584                   22355397.6454
  -4536898.71947  -3523975.07244  23922020.0084                   23922022.0704
 11  8 15 18 28  0.0000000  0  9G11G07G08G24G13G19G26G28G17
  -3415340.51647  -2652311.52345  21701304.8364                   21701302.6454
  -2222407.25048  -1773526.90347  20232019.1024                   20232016.7814
  -3991368.10248  -3103462.75046  20880125.9694                   20880124.2344
  -4514268.73047  -3507424.66044  22915626.7584                   22915628.4574
   2885251.48047   2227783.55244  22556616.3754                   22556616.2974
   2171740.47747   1683505.90445  22608913.0474                   22608910.3014
   -979417.88346   -751881.80043  24028247.9614                   24028247.3014
  -2699604.72347  -2116119.95845  22343171.7504                   22343169.7304
  -4671590.45346  -3628929.49644  23896388.5944                   23896390.5004
 11  8 15 18 28 30.0000000  0  9G11G07G08G24G13G19G26G28G17
  -3485720.00847  -2707152.68745  21687911.9614                   21687909.7664
  -2266459.21548  -1807853.12947  20223635.9844                   20223633.7814
  -4085183.93447  -3176565.99846  20862273.3834                   20862271.7424
  -4613384.78147  -3584657.86844  22896765.8364                   22896767.3714
   2956768.90647   2283511.29244  22570226.1954                   22570225.8444
   2228947.25047   1728082.54245  22619799.1884                   22619796.2774
  -1099284.59846   -845284.42543  24005437.3134                   24005437.3524
  -2763740.43447  -2166095.82645  22330967.6024                   22330965.2154
  -4806103.30546  -3733744.51144  23870791.4614                   23870793.1374
 11  8 15 18 29  0.0000000  0  9G11G07G08G24G13G19G26G28G17
  -3555601.04347  -2761605.43445  21674613.6334                   21674612.2424
  -2310098.89148  -1841858.09747  20215331.7584                   20215329.6764
  -4178756.60948  -3249479.76346  20844467.2344                   20844465.6954
  -4712253.02747  -3661697.95844  22877951.8914                   22877953.1764
   3028491.13747   2339398.59544  22583874.2974                   22583874.1524
   2286454.21947   1772893.11845  22630742.6254                   22630739.7584
  -1218737.48446   -938364.49843  23982705.6564                   23982706.2814
  -2827753.27747  -2215975.96445  22318786.5164                   22318784.0824
  -4940431.84446  -3838415.93744  23845229.5634                   23845231.3014
 11  8 15 18 29 30.0000000  0  9G11G07G08G24G13G19G26G28G17
  -3624984.08647  -2815670.14445  21661410.7814                   21661409.0124
  -2353327.15248  -1875542.47447  20207105.8364                   20207103.3014
  -4272086.30547  -3322204.20346  20826707.0004                   20826705.7774
  -4810873.09447  -3738544.67144  22859184.7504                   22859186.3554
   3100412.23847   2395440.85244  22597560.8134                   22597560.6294
   2344255.91447   1817933.34245  22641741.5634                   22641739.0864
  -1337776.19546  -1031121.87143  23960053.7734                   23960053.8674
  -2891646.66447  -2265763.02145  22306627.5084                   22306625.5474
  -5074577.02346  -3942944.49344  23819701.8984                   23819703.9224
 11  8 15 18 30  0.0000000  0  9G11G07G08G24G13G19G26G28G17
  -3693870.26647  -2869347.70245  21648301.9774                   21648300.4844
  -2396145.68748  -1908907.59047  20198957.8914                   20198955.6134
  -4365173.87147  -3394739.97446  20808993.3834                   20808991.5004
  -4909244.80947  -3815197.90044  22840465.2504                   22840466.2934
   3172525.89147   2451633.15944  22611283.8054                   22611283.7584
   2402347.01647   1863199.10545  22652796.0704                   22652792.8674
  -1456401.26246  -1123556.97943  23937480.4454                   23937480.0004
  -2955424.45347  -2315459.98545  22294490.6884                   22294488.8094
  -5208539.78146  -4047330.90744  23794209.7814                   23794211.6994
 11  8 15 18 30 30.0000000  0  9G11G07G08G24G13G19G26G28G17
  -3762256.33647  -2922635.54045  21635288.7504                   21635287.0124
  -2438551.65248  -1941951.22447  20190888.2584                   20190885.7814
  -4458015.68748  -3467084.26846  20791326.1884                   20791324.6294
  -5007364.10547  -3891654.39044  22821793.1174                   22821794.3914
   3244830.14147   2507974.01344  22625042.7194                   22625042.3754
   2460725.26647   1908688.59745  22663905.1334                   22663902.2464
  -1574608.86746  -1215666.76643  23914986.0394                   23914986.4614
  -3019086.62947  -2365066.87845  22282376.7274                   22282374.2034
  -5342316.90446  -4151572.64944  23768753.0314                   23768754.2934
 11  8 15 18 31  0.0000000  0  9G11G07G08G24G13G19G26G28G17
  -3830138.23448  -2975530.52945  21622370.9774                   21622369.6134
  -2480541.59048  -1974670.67547  20182897.6954                   20182895.5784
  -4550607.39548  -3539233.64546  20773706.2894                   20773704.5594
  -5105226.05947  -3967910.41744  22803170.4304                   22803172.2734
   3317324.10547   2564462.64744  22638838.3524                   22638837.8634
   2519389.78947   1954401.16345  22675068.4144                   22675065.7704
  -1692394.32446  -1307447.55343  23892572.5784                   23892572.4844
  -3082632.08647  -2414582.81045  22270283.8984                   22270282.1254
  -5475904.66046  -4255666.81144  23743331.6174                   23743333.4844
 11  8 15 18 31 30.0000000  0  9G11G07G08G24G13G19G26G28G17
  -3897511.22747  -3028028.95245  21609550.2734                   21609548.8714
  -2522111.19548  -2007062.60047  20174987.4614                   20174985.0744
  -4642943.60548  -3611183.95646  20756135.2424                   20756133.7114
  -5202824.41447  -4043960.99544  22784598.3054                   22784599.5044
   3390007.51647   2621098.93944  22652669.3284                   22652669.5164
   2578340.51647   2000336.76445  22686286.8134                   22686283.6054
  -1809751.98446  -1398895.01743  23870239.0234                   23870239.9534
  -3146058.78547  -2464006.19345  22258214.7034                   22258212.2384
  -5609298.07846  -4359609.60744  23717947.8444                   23717948.9184
 11  8 15 18 32  0.0000000  0  9G11G07G08G24G13G19G26G28G17
  -2388950.03948  -1852526.73745  21896620.1334                   21896618.3204
   -987836.36348   -811523.79847  20466950.1564                   20466947.9024
  -3159598.00848  -2455330.25246  21038406.5084                   21038404.8794
  -3724731.94947  -2892200.56944  23065870.3284                   23065871.5664
   5038295.57047   3905479.06744  22966328.5084                   22966328.3444
   4212993.69147   3274092.43045  22997350.7974                   22997347.9024
   -351254.34446   -262403.35143  24147782.3204                   24147782.8714
  -1633944.31647  -1285735.18245  22545960.2034                   22545958.0744
  -4167069.92247  -3235795.35044  23992394.7274                   23992395.0204
 11  8 15 18 32 30.0000000  0  9G11G07G08G24G13G19G26G28G17
  -2455300.06247  -1904228.04845  21883993.8754                   21883992.2584
  -1028561.31648   -843257.54747  20459200.5784                   20459198.2384
  -3251417.65648  -2526878.02846  21020934.1254                   21020932.3594
  -3821795.55147  -2967834.43544  23047399.6414                   23047400.9104
   5111346.98047   3962402.08644  22980229.7814                   22980229.1134
   4272507.50047   3320466.77145  23008675.8834                   23008673.6564
   -467749.73446   -353178.93643  24125614.0084                   24125613.6134
  -1697137.31247  -1334976.45045  22533934.7504                   22533933.2624
  -4300070.15647  -3339431.82344  23967085.2974                   23967086.4064
 11  8 15 18 33  0.0000000  0  9G11G07G08G24G13G19G26G28G17
  -2521128.72747  -1955523.09245  21871467.2274                   21871465.5274
  -1068855.00848   -874655.25347  20451532.6484                   20451530.3834
  -3342968.41848  -2598216.28846  21003512.3054                   21003510.5434
  -3918580.33247  -3043251.07044  23028981.1804                   23028983.1684
   5184584.87947   4019470.43544  22994166.4144                   22994166.1684
   4332305.61347   3367062.68245  23020054.9774                   23020052.6724
   -583802.89146   -443610.00143  24103529.8284                   24103528.4184
  -1760207.82447  -1384122.29345  22521933.4924                   22521931.4964
  -4432863.85947  -3442907.26944  23941815.4144                   23941817.0084
 11  8 15 18 33 30.0000000  0  9G11G07G08G24G13G19G26G28G17
  -2586436.95747  -2006412.63845  21859039.8364                   21859038.0664
  -1108718.37548   -905717.63947  20443947.2274                   20443945.1724
  -3434250.38348  -2669345.10346  20986142.3204                   20986140.7934
  -4015085.63346  -3118449.91944  23010617.2194                   23010618.5784
   5258003.59047   4076679.65044  23008137.6484                   23008138.0824
   4392382.37947   3413875.67845  23031487.7114                   23031484.9304
   -699413.83247   -533696.43443  24081530.0394                   24081528.8094
  -1823159.57047  -1433175.59945  22509953.7664                   22509951.9924
  -4565451.65247  -3546222.29244  23916584.6334                   23916586.0594
 11  8 15 18 34  0.0000000  0  9G11G07G08G24G13G19G26G28G17
  -2651223.56647  -2056895.69645  21846710.9064                   21846709.3874
  -1148150.94148   -936444.32947  20436443.0234                   20436441.4384
  -3525262.09448  -2740263.31946  20968823.1884                   20968821.5044
  -4111309.52347  -3193429.47944  22992306.8754                   22992307.8794
   5331598.97747   4134026.56644  23022142.1174                   23022142.8754
   4452734.03147   3460902.92345  23042972.2734                   23042968.9964
   -814581.05947   -623437.11843  24059614.7344                   24059614.1604
  -1885994.10547  -1482137.54945  22497996.9614                   22497995.1254
  -4697832.70347  -3649376.24744  23891393.1174                   23891394.7154
 11  8 15 18 34 30.0000000  0  9G11G07G08G24G13G19G26G28G17
  -2715489.25848  -2106972.86445  21834481.6804                   21834479.8874
  -1187153.41848   -966835.89447  20429021.7034                   20429019.2274
  -3616003.56648  -2810970.96346  20951555.3914                   20951553.9414
  -4207251.32447  -3268189.24544  22974049.7734                   22974050.6724
   5405365.27047   4191506.63644  23036179.5784                   23036180.3054
   4513355.03147   3508140.00645  23054507.7344                   23054505.1954
   -929304.52047   -712832.01743  24037783.8754                   24037783.4844
  -1948714.85247  -1531010.83945  22486061.6254                   22486059.5864
  -4830007.80947  -3752369.71944  23866241.1724                   23866241.8794
 11  8 15 18 35  0.0000000  0  9G11G07G08G24G13G19G26G28G17
  -2779235.66847  -2156645.38645  21822351.1334                   21822349.4884
  -1225728.21548   -996894.19547  20421680.7584                   20421678.6684
  -3706476.10948  -2881469.05146  20934339.0864                   20934337.4654
  -4302911.75447  -3342729.78144  22955845.5394                   22955846.8204
   5479296.36347   4249115.09844  23050248.4774                   23050249.0354
   4574239.76247   3555582.62045  23066094.1884                   23066091.0234
  -1043584.68046   -801881.48643  24016036.7664                   24016036.5744
  -2011326.25047  -1579798.93245  22474146.6884                   22474145.0474
  -4961978.30547  -3855203.76244  23841128.0164                   23841128.8054
 11  8 15 18 35 30.0000000  0  9G11G07G08G24G13G19G26G28G17
  -2842455.76247  -2205907.80245  21810320.8984                   21810319.3244
  -1263868.88748  -1026614.22347  20414422.7194                   20414420.9304
  -3796672.25848  -2951751.76946  20917175.3524                   20917173.6914
  -4398282.85947  -3417044.84444  22937697.5864                   22937698.0004
   5553394.10547   4306853.43244  23064349.0394                   23064349.2704
   4635389.99247   3603232.10545  23077730.8204                   23077727.9304
  -1157414.46946   -890579.92643  23994375.1094                   23994374.8674
  -2073824.05547  -1628498.49445  22462253.8204                   22462251.9734
  -5093737.54347  -3957873.19444  23816054.7194                   23816055.4774
 11  8 15 18 36  0.0000000  0  9G11G07G08G24G13G19G26G28G17
  -2905157.02347  -2254765.93045  21798389.2424                   21798387.8714
  -1301583.02748  -1056001.87847  20407246.4064                   20407244.4924
  -3886598.68748  -3021824.31146  20900063.1174                   20900061.2854
  -4493370.72747  -3491139.21944  22919602.7894                   22919603.8524
   5627645.80547   4364711.76844  23078478.3524                   23078478.9104
   4696793.55547   3651078.99345  23089415.2814                   23089412.2854
  -1270800.06646   -978932.27343  23972798.8834                   23972798.0944
  -2136218.60547  -1677117.61645  22450380.5944                   22450378.5824
  -5225292.33247  -4060383.28944  23791021.1724                   23791022.0514
 11  8 15 18 36 30.0000000  0  9G11G07G08G24G13G19G26G28G17
  -2967332.28148  -2303214.19545  21786557.6884                   21786556.1294
  -1338863.89548  -1085051.92547  20400152.1414                   20400149.6804
  -3976247.88348  -3091680.83046  20883003.5314                   20883001.9304
  -4588167.14847  -3565006.46344  22901563.0704                   22901564.5474
   5702053.77347   4422691.84744  23092638.1484                   23092638.2664
   4758452.93447   3699125.21445  23101148.3914                   23101145.8594
  -1383733.87946  -1066932.62543  23951307.7194                   23951308.0664
  -2198505.33647  -1725652.73045  22438528.1564                   22438525.6914
  -5356635.75047  -4162728.68844  23766026.8524                   23766028.0234
 11  8 15 18 37  0.0000000  0  9G11G07G08G24G13G19G26G28G17
  -3028987.00448  -2351256.84445  21774825.1334                   21774823.7504
  -1375717.24248  -1113768.84147  20393139.0474                   20393137.1094
  -4065624.37548  -3161324.84246  20865995.3984                   20865994.2544
  -4682676.36347  -3638649.92745  22883578.7734                   22883579.9494
   5776607.73447   4480785.67444  23106825.8204                   23106825.6174
   4820358.34847   3747363.16145  23112928.5394                   23112925.9924
  -1496220.34446  -1154584.47843  23929903.0084                   23929902.4104
  -2260692.17247  -1774110.00045  22426694.1334                   22426691.8954
  -5487773.03946  -4264913.46344  23741071.7194                   23741073.1054
 11  8 15 18 37 30.0000000  0  9G11G07G08G24G13G19G26G28G17
  -3090118.27347  -2398891.61845  21763192.3134                   21763190.7584
  -1412140.85948  -1142150.89747  20386207.8674                   20386205.4414
  -4154724.69148  -3230753.67946  20849040.1024                   20849038.6994
  -4776894.28547  -3712066.40944  22865649.8284                   22865650.9494
   5851305.68847   4538991.71544  23121040.0784                   23121040.5204
   4882507.69947   3795791.16745  23124755.4454                   23124752.4184
  -1608256.01246  -1241884.94643  23908583.1804                   23908583.2384
  -2322779.21547  -1822489.50945  22414879.2814                   22414877.2234
  -5618701.70346  -4366935.69344  23716156.4384                   23716158.3594
 11  8 15 18 38  0.0000000  0  9G11G07G08G24G13G19G26G28G17
  -3150723.60247  -2446116.54245  21751659.6254                   21751657.7814
  -1448132.41048  -1170196.28247  20379358.9224                   20379356.8364
  -4243546.02748  -3299965.11246  20832138.1094                   20832136.5904
  -4870817.03147  -3785252.86445  22847776.5634                   22847777.8444
   5926145.48047   4597308.26644  23135281.7504                   23135282.2934
   4944899.23047   3844407.92745  23136628.1414                   23136625.2894
  -1719837.43046  -1328831.45943  23887349.6804                   23887350.2384
  -2384766.39547  -1870791.19245  22403083.6484                   22403081.2774
  -5749418.71147  -4468792.96244  23691282.1564                   23691284.0354
 11  8 15 18 38 30.0000000  0  9G11G07G08G24G13G19G26G28G17
  -3210801.75847  -2492930.70545  21740226.7344                   21740225.1764
  -1483690.81648  -1197904.14547  20372592.5084                   20372590.0704
  -4332085.71548  -3368957.08846  20815289.6884                   20815287.8094
  -4964442.25047  -3858207.50344  22829960.2194                   22829961.6174
   6001123.89147   4655732.81944  23149550.0004                   23149550.4804
   5007529.65647   3893210.79145  23148545.9304                   23148543.9104
  -1830962.77346  -1415422.59543  23866202.4224                   23866202.8874
  -2446655.06647  -1919016.10845  22391306.4454                   22391304.6994
  -5879922.76247  -4570484.32744  23666448.4844                   23666449.7344
 11  8 15 18 39  0.0000000  0  9G11G07G08G24G13G19G26G28G17
  -3270352.40247  -2539333.80645  21728894.5474                   21728893.3594
  -1518815.86348  -1225274.34247  20365908.1334                   20365906.1564
  -4420342.66048  -3437728.72846  20798495.1644                   20798493.3204
  -5057768.10546  -3930928.85545  22812200.6024                   22812202.5084
   6076236.02747   4714261.61744  23163843.4224                   23163844.1764
   5070394.85247   3942196.59145  23160508.8594                   23160506.4774
  -1941630.62546  -1501657.21343  23845143.7974                   23845144.0434
  -2508447.11747  -1967165.74845  22379548.0864                   22379545.6414
  -6010213.26647  -4672009.29544  23641655.3204                   23641656.2584
 11  8 15 18 39 30.0000000  0  9G11G07G08G24G13G19G26G28G17
  -3329370.90648  -2585322.25145  21717663.9534                   21717662.4964
  -1553503.75847  -1252303.88547  20359307.3524                   20359305.0824
  -4508312.07448  -3506276.33046  20781754.5944                   20781753.2384
  -5150789.07846  -4003412.65344  22794499.6024                   22794500.7704
   6151481.75447   4772894.45344  23178161.7344                   23178162.9024
   5133494.67647   3991365.25345  23172516.9224                   23172513.9384
  -2051835.75447  -1587531.31244  23824172.5944                   23824172.6214
  -2570141.11747  -2015238.98145  22367808.0474                   22367806.1174
  -6140285.43047  -4773364.09744  23616902.3984                   23616904.2424
 11  8 15 18 40  0.0000000  0  9G11G07G08G24G13G19G26G28G17
  -3387863.20347  -2630900.66445  21706532.9224                   21706531.8634
  -1587760.57447  -1278997.53947  20352788.5474                   20352786.4344
  -4595998.93048  -3574603.75446  20765068.6094                   20765066.6994
  -5243509.73847  -4075662.45744  22776855.3524                   22776856.3484
   6226850.44947   4831623.13344  23192504.7894                   23192505.7344
   5196818.66847   4040708.57445  23184566.9384                   23184564.3954
  -2161583.08247  -1673048.68843  23803288.7344                   23803288.6214
  -2631745.01647  -2063242.02045  22356085.4694                   22356083.5984
  -6270145.00447  -4874553.28244  23592191.4844                   23592192.5514
 11  8 15 18 40 30.0000000  0  9G11G07G08G24G13G19G26G28G17
  -3445823.99247  -2676064.91846  21695503.4144                   21695501.8634
  -1621581.29348  -1305351.37047  20346352.6024                   20346350.2704
  -4683397.18748  -3642706.29446  20748437.1024                   20748435.7504
  -5335923.43747  -4147673.03944  22759269.3054                   22759270.6804
   6302342.60547   4890448.01144  23206870.0864                   23206871.1414
   5260367.87946   4090227.38945  23196660.3134                   23196657.6374
  -2270866.59447  -1758204.62443  23782492.7114                   23782492.6524
  -2693256.30947  -2111172.86845  22344379.9064                   22344377.9184
  -6399786.93047  -4975572.86844  23567521.2114                   23567521.4414
 11  8 15 18 41  0.0000000  0  9G11G07G08G24G13G19G26G28G17
  -3503250.52748  -2720812.86245  21684575.6484                   21684574.1174
  -1654963.49247  -1331363.48447  20340000.3444                   20339998.2424
  -4770502.67248  -3710580.70046  20731861.4224                   20731860.2234
  -5428025.96546  -4219441.16844  22741743.1644                   22741743.8054
   6377956.76647   4949367.95644  23221258.9534                   23221259.7664
   5324140.68447   4139920.43745  23208795.7034                   23208792.8674
  -2379682.67647  -1842996.39243  23761784.7504                   23761785.5314
  -2754674.34447  -2159031.06245  22332692.3134                   22332690.2774
  -6529207.78547  -5076420.18544  23542892.7734                   23542893.5904
 11  8 15 18 41 30.0000000  0  9G11G07G08G24G13G19G26G28G17
  -3560139.57848  -2765141.97645  21673749.7734                   21673748.3054
  -1687903.93047  -1357031.39447  20333731.7424                   20333729.6804
  -4857311.89548  -3778224.27446  20715342.5784                   20715340.6094
  -5519812.51247  -4290963.07144  22724275.9614                   22724277.3014
   6453691.26247   5008381.65444  23235670.9534                   23235671.8874
   5388136.06347   4189786.90545  23220973.9304                   23220970.6844
  -2488027.35547  -1927420.76743  23741167.5314                   23741167.3444
  -2815998.21547  -2206815.90245  22321022.8204                   22321020.7424
  -6658403.92647  -5177092.45744  23518307.7344                   23518308.2344
 11  8 15 18 42  0.0000000  0  9G11G07G08G24G13G19G26G28G17
  -3616485.04347  -2809047.52646  21663028.1024                   21663026.3484
  -1720397.43748  -1382351.04147  20327548.6334                   20327546.4304
  -4943817.66848  -3845631.37046  20698880.9614                   20698879.3014
  -5611275.96147  -4362233.24144  22706871.4064                   22706872.5744
   6529547.31347   5067490.04644  23250106.2734                   23250107.2034
   5452355.59446   4239828.06944  23233194.4144                   23233191.6604
  -2595893.55946  -2011472.34443  23720641.0944                   23720640.8244
  -2877224.49647  -2254524.68545  22309371.8054                   22309369.3834
  -6787369.36347  -5277584.88744  23493766.1484                   23493767.0784
 11  8 15 18 42 30.0000000  0  9G11G07G08G24G13G19G26G28G17
  -3672285.22347  -2852528.17845  21652409.3524                   21652407.5634
  -1752442.06248  -1407320.89347  20321450.7344                   20321448.7934
  -5030017.32448  -3912799.93546  20682477.4304                   20682475.6994
  -5702413.25447  -4433249.24344  22689528.1024                   22689529.5124
   6605522.11747   5126691.03544  23264564.0234                   23264564.5824
   5516796.66847   4290041.85444  23245457.1644                   23245454.3054
  -2703278.63347  -2095149.00143  23700206.5634                   23700207.4964
  -2938353.70747  -2302157.83245  22297739.0084                   22297737.1294
  -6916101.89547  -5377895.86844  23469269.1334                   23469270.1884
 11  8 15 18 43  0.0000000  0  9G11G07G08G24G13G19G26G28G17
  -3727535.65247  -2895580.44245  21641895.3674                   21641894.1054
  -1784033.41048  -1431937.55847  20315439.2114                   20315436.8834
  -5115905.60548  -3979725.87946  20666133.6724                   20666131.9264
  -5793218.71147  -4504006.69444  22672248.6804                   22672248.8714
   6681615.50447   5185984.40944  23279044.3204                   23279044.7034
   5581459.45747   4340428.38144  23257761.8834                   23257759.6994
  -2810177.67247  -2178446.90644  23679864.8914                   23679864.8094
  -2999384.11347  -2349713.97845  22286125.5784                   22286123.5474
  -7044596.95747  -5478021.82144  23444817.2894                   23444818.5824
 11  8 15 18 43 30.0000000  0  9G11G07G08G24G13G19G26G28G17
  -3782228.35248  -2938198.12745  21631487.9454                   21631486.4964
  -1815164.45748  -1456195.54347  20309514.8914                   20309512.8554
  -5201474.09448  -4046402.61946  20649850.4774                   20649848.7774
  -5883683.10947  -4574498.39244  22655033.8054                   22655034.9304
   6757830.63347   5245372.62043  23293547.2894                   23293547.7154
   5646347.10247   4390990.13845  23270109.7114                   23270106.9414
  -2916581.64547  -2261359.11044  23659616.4844                   23659616.8094
  -3060310.22347  -2397188.86045  22274532.0474                   22274529.8164
  -7172846.68747  -5577956.58944  23420412.1174                   23420413.0514
 11  8 15 18 44  0.0000000  0  9G11G07G08G24G13G19G26G28G17
  -3836359.76647  -2980378.44946  21621187.0634                   21621185.2854
  -1845831.69147  -1480092.12547  20303679.5704                   20303677.3244
  -5286717.92248  -4112826.40046  20633628.9224                   20633627.5984
  -5973801.39146  -4644720.35744  22637884.6884                   22637885.9534
   6834166.58247   5304855.01344  23308073.9454                   23308074.5164
   5711459.42646   4441726.96844  23282500.0164                   23282497.5164
  -3022486.21547  -2343882.13144  23639464.1174                   23639462.9884
  -3121130.41447  -2444581.19445  22262957.6884                   22262955.6884
  -7300846.66847  -5677696.73044  23396054.0084                   23396055.7074
 11  8 15 18 44 30.0000000  0  9G11G07G08G24G13G19G26G28G17
  -3889925.53547  -3022118.01045  21610993.6804                   21610991.8954
  -1876030.68048  -1503623.83347  20297933.0784                   20297930.7934
  -5371631.10948  -4178992.52646  20617471.2274                   20617469.4534
  -6063567.31247  -4714667.79044  22620802.6644                   22620803.9844
   6910623.91447   5364431.97144  23322623.8524                   23322624.1254
   5776796.80946   4492639.17544  23294934.0164                   23294930.8444
  -3127885.77347  -2426011.59843  23619406.4454                   23619406.8324
  -3181842.66047  -2491889.45345  22251404.7424                   22251402.4494
  -7428592.46147  -5777238.81444  23371744.9774                   23371746.1954
 11  8 15 18 45  0.0000000  0  9G11G07G08G24G13G19G26G28G17
  -3942928.83247  -3063419.27045  21600907.5164                   21600906.1884
  -1905764.61748  -1526793.16647  20292274.4694                   20292272.6054
  -5456215.92648  -4244902.76746  20601375.0944                   20601373.2234
  -6152982.59447  -4784341.97944  22603788.0234                   22603788.5784
   6987194.96947   5424097.56344  23337194.7194                   23337195.4144
   5842351.81646   4543720.91344  23307408.0864                   23307405.3714
  -3232782.61346  -2507749.38943  23599445.3364                   23599445.2234
  -3242452.16447  -2539117.61745  22239871.3524                   22239869.0164
  -7556086.58647  -5876584.83145  23347483.5474                   23347484.8674
 11  8 15 18 45 30.0000000  0  9G11G07G08G24G13G19G26G28G17
  -3995366.58247  -3104279.85345  21590928.7194                   21590927.4924
  -1935030.93448  -1549598.11447  20286705.1954                   20286703.5204
  -5540468.74248  -4310554.32146  20585342.2424                   20585340.4414
  -6242043.03146  -4853739.70344  22586840.3284                   22586841.2974
   7063877.82047   5483850.25944  23351786.6724                   23351787.8054
   5908123.10946   4594971.20845  23319923.9144                   23319921.3364
  -3337172.80946  -2589092.40843  23579580.8984                   23579579.9614
  -3302957.98047  -2586265.00145  22228357.4384                   22228355.3324
  -7683326.07047  -5975732.41044  23323271.0084                   23323271.5004
 11  8 15 18 46  0.0000000  0  9G11G07G08G24G13G19G26G28G17
  -4047235.21548  -3144696.95645  21581058.7344                   21581057.1374
  -1963826.23048  -1572036.02847  20281226.1724                   20281223.8754
  -5624384.74248  -4375943.41546  20569373.5704                   20569372.0394
  -6330743.50847  -4922856.89244  22569961.4844                   22569961.9924
   7140671.93847   5543689.63444  23366400.7894                   23366401.8714
   5974109.88346   4646389.42444  23332480.8284                   23332478.6994
  -3441052.02746  -2670037.23443  23559813.0944                   23559812.3874
  -3363359.07847  -2633330.77145  22216863.6024                   22216861.6054
  -7810306.84447  -6074678.39245  23299107.3674                   23299107.9184
 11  8 15 18 46 30.0000000  0  9G11G07G08G24G13G19G26G28G17
  -4098539.16448  -3184674.06245  21571295.7814                   21571294.3404
  -1992155.37548  -1594110.70647  20275834.8054                   20275833.0164
  -5707967.27348  -4441072.66146  20553468.0704                   20553466.4384
  -6419086.84447  -4991695.83144  22553150.0314                   22553150.7934
   7217568.34447   5603608.70644  23381033.7664                   23381034.4574
   6040304.03946   4697969.21844  23345077.7344                   23345074.7034
  -3544423.65247  -2750586.47843  23540142.1334                   23540141.8014
  -3423661.93747  -2680319.99545  22205388.0004                   22205386.4344
  -7937032.76247  -6173425.78545  23274991.9304                   23274992.8054
 11  8 15 18 47  0.0000000  0  9G11G07G08G24G13G19G26G28G17
  -4149278.68748  -3224211.35545  21561640.5394                   21561638.9454
  -2020018.79748  -1615822.47147  20270532.5474                   20270530.8324
  -5791215.39548  -4505941.32746  20537626.7664                   20537624.9414
  -6507072.03547  -5060255.66245  22536406.5704                   22536407.7034
   7294562.42647   5663603.87744  23395684.8914                   23395686.7424
   6106700.94546   4749707.00944  23357712.7114                   23357709.8794
  -3647287.10547  -2830739.87044  23520568.1174                   23520567.8484
  -3483869.04347  -2727234.61345  22193931.0864                   22193929.2734
  -8063504.00447  -6271974.73345  23250925.1884                   23250926.4844
 11  8 15 18 47 30.0000000  0  9G11G07G08G24G13G19G26G28G17
  -4199454.34448  -3263309.25746  21552092.3914                   21552091.0514
  -2047416.89548  -1637171.66647  20265318.7664                   20265317.0274
  -5874128.53548  -4570548.97146  20521848.8364                   20521846.8284
  -6594698.00047  -5128535.59245  22519732.1414                   22519732.7074
   7371649.37947   5723671.44344  23410355.1414                   23410356.0704
   6173296.36346   4801599.48544  23370385.1644                   23370382.0434
  -3749641.99246  -2910496.88943  23501091.0004                   23501090.6334
  -3543983.00448  -2774076.65945  22182492.0234                   22182489.4264
  -8189720.35247  -6370325.03344  23226906.7974                   23226907.6644
 11  8 15 18 48  0.0000000  0  9G11G07G08G24G13G19G26G28G17
  -4249066.50448  -3301968.06545  21542651.6724                   21542649.7814
  -2074350.37148  -1658158.81247  20260193.8594                   20260191.8444
  -5956706.16848  -4634895.18946  20506134.8364                   20506133.0824
  -6681963.87547  -5196534.96045  22503125.6334                   22503127.0904
   7448824.27347   5783807.50644  23425040.3204                   23425042.5664
   6240085.14846   4853642.65644  23383094.5234                   23383092.5084
  -3851487.74646  -2989857.19743  23481709.7424                   23481709.7854
  -3604006.39847  -2820848.12045  22171069.6644                   22171067.5984
  -8315682.13747  -6468477.01644  23202937.4304                   23202937.8674
 11  8 15 18 48 30.0000000  0  9G11G07G08G24G13G19G26G28G17
  -4298116.06248  -3340188.48445  21533317.7814                   21533316.0044
  -2100820.27048  -1678784.72047  20255156.7734                   20255154.7464
  -6038947.57048  -4698979.40846  20490484.5394                   20490482.6454
  -6768868.64547  -5264252.91845  22486588.6724                   22486589.5084
   7526082.26647   5844008.33244  23439742.9144                   23439744.3594
   6307063.03946   4905833.12544  23395840.1564                   23395837.6684
  -3952824.43046  -3068820.80343  23462425.6414                   23462426.1564
  -3663941.91447  -2867551.10245  22159664.2424                   22159662.4734
  -8441389.58647  -6566430.79945  23179015.6644                   23179016.6804
 11  8 15 18 49  0.0000000  0  9G11G07G08G24G13G19G26G28G17
  -4346604.19148  -3377971.43846  21524090.9924                   21524088.8094
  -2126827.87148  -1699050.40147  20250207.7894                   20250205.9104
  -6120852.67648  -4762801.56346  20474898.7584                   20474896.9344
  -6855411.88747  -5331689.17845  22470119.6644                   22470120.5864
   7603417.80147   5904269.54744  23454459.1094                   23454460.9454
   6374224.60547   4958166.77344  23408620.5084                   23408618.0084
  -4053652.18047  -3147387.83944  23443238.9384                   23443239.3754
  -3723793.02047  -2914188.30945  22148274.8134                   22148273.1334
  -8566843.34447  -6664186.90145  23155142.8364                   23155142.8914
 11  8 15 18 49 30.0000000  0  9G11G07G08G24G13G19G26G28G17
  -4394525.24648  -3415312.50545  21514971.5554                   21514969.8014
  -2152367.35248  -1718951.32547  20245348.0704                   20245345.7034
  -6202414.68448  -4826356.36546  20459377.7584                   20459376.3094
  -6941586.53947  -5398838.23945  22453721.1024                   22453722.1804
   7680832.43047   5964592.46144  23469191.3444                   23469193.0084
   6441572.07047   5010645.23744  23421436.4774                   23421434.2234
  -4153964.14547  -3225552.98644  23424150.4534                   23424150.2664
  -3783555.80948  -2960756.71445  22136902.5784                   22136900.7234
  -8692037.13347  -6761740.41044  23131318.6954                   23131320.1604
 11  8 15 18 50  0.0000000  0  9G11G07G08G24G13G19G26G28G17
  -4441877.72748  -3452210.53445  21505960.3674                   21505958.7384
  -2177437.62548  -1738486.62547  20240577.1174                   20240575.0984
  -6283630.73448  -4889641.61446  20443923.1024                   20443921.1914
  -7027389.49647  -5465697.64945  22437393.4694                   22437394.2194
   7758323.15247   6024974.65044  23483937.0004                   23483938.7464
   6509102.84047   5063266.54244  23434287.1954                   23434284.9574
  -4253757.98447  -3303314.39944  23405160.0554                   23405160.4964
  -3843230.76648  -3007256.66945  22125546.7734                   22125544.6374
  -8816969.35547  -6859090.10144  23107545.5634                   23107546.2584
 11  8 15 18 50 30.0000000  0  9G11G07G08G24G13G19G26G28G17
  -4488665.40648  -3488668.45245  21497057.1724                   21497055.7074
  -2202042.80948  -1757659.51147  20235894.8284                   20235892.9264
  -6364503.82048  -4952659.59746  20428533.6644                   20428531.5234
  -7112823.06247  -5532269.25045  22421135.4614                   22421137.1414
   7835882.05547   6085409.92743  23498695.6094                   23498698.0514
   6576808.85947   5116024.42845  23447171.5864                   23447169.0944
  -4353036.66847  -3380674.40744  23386268.3444                   23386268.0864
  -3902824.17248  -3053693.08845  22114206.1954                   22114204.4494
  -8941643.18447  -6956238.43844  23083820.9064                   23083821.2544
 11  8 15 18 51  0.0000000  0  9G11G07G08G24G13G19G26G28G17
  -4534888.63747  -3524686.54545  21488261.5004                   21488259.6844
  -2226183.32448  -1776470.31347  20231300.9774                   20231299.0984
  -6445032.62148  -5015409.32246  20413209.0554                   20413207.5704
  -7197886.16447  -5598552.15945  22404948.4774                   22404950.2274
   7913504.53147   6145894.76343  23513467.5554                   23513469.2504
   6644686.00047   5168915.64944  23460087.9694                   23460085.2344
  -4451799.67647  -3457632.57743  23367473.9144                   23367474.0704
  -3962337.69547  -3100067.23145  22102881.3594                   22102879.6914
  -9066058.48847  -7053185.35444  23060144.9614                   23060145.4384
 11  8 15 18 51 30.0000000  0  9G11G07G08G24G13G19G26G28G17
  -4580545.26648  -3560263.13245  21479573.1414                   21479571.3444
  -2249856.89148  -1794917.27947  20226796.1174                   20226794.0824
  -6525213.32448  -5077887.78546  20397951.6724                   20397949.9844
  -7282574.49647  -5664543.04445  22388833.6564                   22388834.4184
   7991189.17247   6206428.06244  23528250.7734                   23528251.8954
   6712732.89147   5221939.14544  23473037.4454                   23473033.8524
  -4550043.53147  -3534186.21344  23348778.9844                   23348778.7074
  -4021770.87147  -3146378.79945  22091571.6484                   22091569.4384
  -9190212.37147  -7149928.56044  23036518.8674                   23036519.5864
 11  8 15 18 52  0.0000000  0  9G11G07G08G24G13G19G26G28G17
  -4625638.25848  -3595400.52045  21470992.0864                   21470990.7424
  -2273066.84048  -1813002.96947  20222379.5084                   20222377.2304
  -6605048.09048  -5140096.70146  20382759.3204                   20382758.0434
  -7366889.68747  -5730243.18245  22372788.0314                   22372789.5314
   8068928.47747   6267003.91943  23543044.1414                   23543046.1414
   6780942.47746   5275089.41044  23486016.8134                   23486014.1134
  -4647770.20346  -3610336.83444  23330181.4224                   23330181.8134
  -4081128.83648  -3192631.74645  22080276.5084                   22080274.5904
  -9314107.63347  -7246470.21145  23012942.6484                   23012943.1684
 11  8 15 18 52 30.0000000  0  9G11G07G08G24G13G19G26G28G17
  -4670167.66448  -3630098.74945  21462518.7194                   21462517.1764
  -2295813.00848  -1830727.28646  20218051.2034                   20218049.5004
  -6684535.70748  -5202035.10046  20367633.1094                   20367631.6884
  -7450830.32047  -5795651.45144  22356814.9064                   22356816.4024
   8146718.49647   6327619.29243  23557846.8054                   23557848.6604
   6849310.88346   5328363.45544  23499026.5634                   23499024.2194
  -4744979.25047  -3686084.10344  23311683.8364                   23311683.5784
  -4140413.61748  -3238827.65745  22068994.4924                   22068992.4804
  -9437743.36747  -7342809.65445  22989415.5704                   22989415.9224
 11  8 15 18 53  0.0000000  0  9G11G07G08G24G13G19G26G28G17
  -4714131.67648  -3664356.40445  21454152.1254                   21454150.4774
  -2318093.83648  -1848088.97647  20213811.2664                   20213809.1644
  -6763672.43448  -5263700.08946  20352574.1804                   20352572.4344
  -7534392.88347  -5860765.11545  22340913.9534                   22340914.9144
   8224556.93846   6388272.47743  23572659.0944                   23572661.5044
   6917836.60946   5381760.06344  23512067.0864                   23512064.1954
  -4841667.46147  -3761425.52844  23293284.8364                   23293284.2194
  -4199625.18448  -3284966.54445  22057726.9924                   22057725.3754
  -9561117.18447  -7438945.02145  22965938.5784                   22965939.2034
 11  8 15 18 53 30.0000000  0  9G11G07G08G24G13G19G26G28G17
  -4757531.02348  -3698174.06545  21445893.7194                   21445892.3984
  -2339910.10948  -1865088.69947  20209659.6024                   20209657.5824
  -6842457.75848  -5325091.25446  20337581.5394                   20337580.1214
  -7617576.10947  -5925583.20445  22325084.4844                   22325085.3524
   8302439.33246   6448959.85643  23587480.1254                   23587481.5554
   6986515.34846   5435275.89444  23525136.0864                   23525133.9144
  -4937834.30547  -3836360.72144  23274985.0944                   23274984.1954
  -4258765.76647  -3331050.11445  22046473.1644                   22046471.2664
  -9684229.34447  -7534876.50645  22942510.8524                   22942511.1994
 11  8 15 18 54  0.0000000  0  9G11G07G08G24G13G19G26G28G17
  -4800363.67648  -3731550.15645  21437742.9534                   21437741.1844
  -2361259.80148  -1881724.84347  20205597.1024                   20205595.1254
  -6920888.29748  -5386205.96546  20322656.9774                   20322655.1954
  -7700376.32447  -5990102.83545  22309328.1884                   22309328.3404
   8380363.48046   6509679.76943  23602309.2974                   23602310.2234
   7055345.00047   5488909.32744  23538233.9774                   23538231.1254
  -5033477.02347  -3910887.49844  23256784.5704                   23256784.2074
  -4317835.04748  -3377078.12045  22035232.4774                   22035230.3914
  -9807077.39547  -7630602.18745  22919133.4384                   22919134.4144
 11  8 15 18 54 30.0000000  0  9G11G07G08G24G13G19G26G28G17
  -4842630.86748  -3764485.61846  21429699.9924                   21429698.1804
  -2382143.97748  -1897998.24447  20201622.9224                   20201621.0314
  -6998963.25048  -5447043.60246  20307799.6334                   20307798.2194
  -7782793.10547  -6054323.68145  22293644.6884                   22293645.7344
   8458324.35246   6570428.22043  23617143.8204                   23617146.2274
   7124321.07846   5542656.88744  23551359.9924                   23551357.2074
  -5128595.64146  -3985005.88944  23238684.0314                   23238683.4304
  -4376835.72748  -3423052.67845  22024005.0554                   22024002.5904
  -9929661.45747  -7726122.16745  22895806.9924                   22895807.0084
 11  8 15 18 55  0.0000000  0  9G11G07G08G24G13G19G26G28G17
  -4884330.88748  -3796979.13545  21421764.3364                   21421762.7504
  -2402561.17648  -1913907.77446  20197737.8834                   20197735.6724
  -7076679.93048  -5507602.06046  20293010.7034                   20293009.1254
  -7864823.13347  -6118243.16744  22278034.9454                   22278035.9304
   8536319.81346   6631203.69543  23631986.7034                   23631988.5554
   7193441.61746   5596516.94844  23564513.2274                   23564510.1884
  -5223187.70746  -4058714.01143  23220683.6334                   23220682.8834
  -4435768.22348  -3468974.09445  22012790.8984                   22012788.0554
 -10051979.33247  -7821434.71445  22872530.2894                   22872531.1054
 11  8 15 18 55 30.0000000  0  9G11G07G08G24G13G19G26G28G17
  -3350038.43048  -2601426.56645  21713730.5554                   21713728.9654
   -847086.84848   -701849.87147  20493734.5164                   20493732.6334
  -5578610.47348  -4340275.21846  20578083.7504                   20578082.2424
  -6371037.93447  -4954254.67945  22562292.7664                   22562293.8014
  10189767.27746   7919604.07543  23946627.1804                   23946629.4414
   8838124.44946   6878087.93144  23877485.6414                   23877483.5434
  -3741824.94946  -2904405.33743  23502577.5084                   23502577.1604
  -2919208.23047  -2287239.04945  22301382.3054                   22301380.1684
  -8598602.53947  -6688933.24045  23149098.4064                   23149099.0704
 11  8 15 18 56  0.0000000  0  9G11G07G08G24G13G19G26G28G17
  -3390596.06648  -2633029.91145  21706012.7974                   21706010.8794
   -866562.26248   -717025.53347  20490028.5314                   20490026.7424
  -5655598.48848  -4400265.88746  20563433.6484                   20563432.1484
  -6452281.01647  -5017560.94245  22546832.8134                   22546833.8054
  10267828.24647   7980430.64343  23961481.7274                   23961484.1294
   8907531.02746   6932170.90344  23890693.6024                   23890691.0514
  -3835352.60546  -2977284.01243  23484779.9774                   23484779.3674
  -2978000.97748  -2333051.56645  22290194.3984                   22290192.2154
  -8720378.24247  -6783823.32645  23125925.3674                   23125925.9884
 11  8 15 18 56 30.0000000  0  9G11G07G08G24G13G19G26G28G17
  -3430582.42648  -2664188.11245  21698403.6174                   21698401.5434
   -885566.74648   -731834.24547  20486412.2034                   20486410.2194
  -5732219.73048  -4459970.75946  20548852.9384                   20548851.4534
  -6533127.99647  -5080558.57845  22531447.8984                   22531449.0274
  10345916.11347   8041278.06443  23976342.2034                   23976343.6684
   8977075.63346   6986361.46544  23903927.7664                   23903925.0164
  -3928346.30546  -3049746.65744  23467083.8284                   23467083.1254
  -3036726.06248  -2378811.37145  22279019.3754                   22279017.4064
  -8841881.81247  -6878501.35745  23102803.6564                   23102804.7034
 11  8 15 18 57  0.0000000  0  9G11G07G08G24G13G19G26G28G17
  -3469995.80948  -2694899.82446  21690903.6484                   21690902.2774
   -904098.62548   -746274.69947  20482885.4144                   20482883.9104
  -5808470.94548  -4519387.29946  20534342.9384                   20534341.3444
  -6613575.55947  -5143244.94545  22516139.3524                   22516139.9534
  10424029.30947   8102145.27644  23991206.4064                   23991208.6644
   9046756.30147   7040658.03144  23917187.3364                   23917185.1994
  -4020803.38746  -3121791.11444  23449489.4384                   23449489.2854
  -3095383.67648  -2424518.61245  22267857.4924                   22267855.6914
  -8963110.73047  -6972965.38045  23079735.0084                   23079735.1684
 11  8 15 18 57 30.0000000  0  9G11G07G08G24G13G19G26G28G17
  -3508840.44148  -2725168.34845  21683511.4384                   21683510.1914
   -922162.12548   -760350.17247  20479448.3284                   20479446.5084
  -5884354.62548  -4578517.45546  20519902.9774                   20519901.3524
  -6693626.00847  -5205621.88345  22500906.3134                   22500907.1764
  10502159.23847   8163025.47744  24006074.4614                   24006077.1994
   9116564.88747   7095054.24444  23930471.2584                   23930469.2304
  -4112726.98046  -3193419.86944  23431997.0314                   23431997.3754
  -3153979.17648  -2470177.44846  22256707.0784                   22256704.8714
  -9084068.57447  -7067218.17145  23056716.4534                   23056717.5314
 11  8 15 18 58  0.0000000  0  9G11G07G08G24G13G19G26G28G17
  -3547111.84448  -2754990.22145  21676229.0554                   21676226.9654
   -939752.66048   -774057.10947  20476100.9304                   20476099.0164
  -5959864.56248  -4637356.36846  20505533.6564                   20505532.0744
  -6773273.16847  -5267684.57045  22485750.2194                   22485751.2774
  10580306.55547   8223919.29343  24020945.1644                   24020947.4534
   9186503.09447   7149551.50144  23943780.0944                   23943778.5204
  -4204111.75846  -3264628.77744  23414607.2584                   23414607.1884
  -3212509.82448  -2515785.75246  22245569.0704                   22245566.7304
  -9204750.27347  -7161255.78745  23033751.5784                   23033752.2544
 11  8 15 18 58 30.0000000  0  9G11G07G08G24G13G19G26G28G17
  -3584817.38348  -2784371.13245  21669053.5784                   21669051.8404
   -956877.64548   -787401.26447  20472842.2194                   20472840.4494
  -6035006.45748  -4695908.49746  20491234.6174                   20491233.1454
  -6852522.57447  -5329437.33445  22470669.3204                   22470669.6604
  10658460.63347   8284818.32443  24035817.5084                   24035820.2234
   9256560.19946   7204141.36544  23957111.1254                   23957109.8794
  -4294963.92246  -3335422.68944  23397318.7034                   23397318.6604
  -3270984.40248  -2561350.35945  22234441.8054                   22234439.8284
  -9325162.26247  -7255083.24445  23010838.3134                   23010838.6884
 11  8 15 18 59  0.0000000  0  9G11G07G08G24G13G19G26G28G17
  -3621961.09448  -2813314.29246  21661985.3914                   21661983.2854
   -973540.62948   -800385.43847  20469671.2584                   20469669.2704
  -6109782.39148  -4754175.47046  20477004.9534                   20477003.9654
  -6931376.23847  -5390881.69545  22455663.8834                   22455664.1024
  10736614.06346   8345716.87643  24050689.6724                   24050692.3954
   9326728.96146   7258818.23444  23970464.4144                   23970463.3054
  -4385286.11346  -3405803.60644  23380130.4924                   23380130.5124
  -3329408.08647  -2606875.28946  22223323.8754                   22223321.6484
  -9445307.52747  -7348702.89245  22987975.6804                   22987976.0044
 11  8 15 18 59 30.0000000  0  9G11G07G08G24G13G19G26G28G17
  -3658537.21948  -2841815.13946  21655025.3984                   21655023.4344
   -989736.21548   -813005.39447  20466589.2034                   20466587.3444
  -6184185.08248  -4812151.61046  20462846.9534                   20462845.3054
  -7009826.62947  -5452011.83845  22440735.3284                   22440735.6414
  10814768.89547   8406616.46543  24065562.2194                   24065565.0944
   9397011.62547   7313583.87344  23983838.4454                   23983837.1254
  -4475071.64146  -3475766.37444  23363045.1644                   23363045.0594
  -3387776.35948  -2652357.07645  22212216.8594                   22212214.8054
  -9565179.55547  -7442109.60445  22965164.3284                   22965164.9654
 11  8 15 19  0  0.0000000  0  9G11G07G08G24G13G19G26G28G17
  -3694551.35948  -2869878.10745  21648171.8284                   21648170.3794
  -1005469.94548   -825265.46547  20463595.3204                   20463593.4574
  -6258218.70748  -4869840.15346  20448758.9384                   20448757.1644
  -7087877.68047  -5512830.80145  22425882.4064                   22425883.1764
  10892915.67246   8467509.83043  24080432.7974                   24080435.9494
   9467399.33647   7368431.34544  23997233.5394                   23997231.5664
  -4564325.11346  -3545314.52444  23346061.1564                   23346060.3324
  -3446096.54747  -2697801.37045  22201118.7504                   22201116.6724
  -9684783.35547  -7535307.28945  22942404.7504                   22942405.2274
 11  8 15 19  0 30.0000000  0  9G11G07G08G24G13G19G26G28G17
  -3730001.91047  -2897501.91346  21641426.0084                   21641424.4384
  -1020740.28948   -837164.47247  20460689.6254                   20460687.6994
  -6331879.78548  -4927238.41146  20434741.6644                   20434739.8284
  -7165525.87147  -5573335.83845  22411106.2274                   22411107.0864
  10971052.40646   8528395.38543  24095302.4844                   24095304.9104
   9537890.20746   7423359.25544  24010646.7664                   24010644.9064
  -4653043.77046  -3614445.95944  23329178.6094                   23329178.0984
  -3504368.37548  -2743207.97645  22190030.0554                   22190027.7504
  -9804116.71147  -7628294.26545  22919696.2664                   22919696.5514
 11  8 15 19  1  0.0000000  0  9G11G07G08G24G13G19G26G28G17
  -3764887.64547  -2924685.59845  21634787.3134                   21634785.7774
  -1035545.91447   -848701.34947  20457872.3914                   20457870.2304
  -6405165.06648  -4984343.83646  20420796.1804                   20420794.2544
  -7242768.28947  -5633524.68745  22396407.9304                   22396407.8094
  11049176.75446   8589271.31943  24110168.8284                   24110171.6294
   9608482.59447   7478366.23944  24024081.1484                   24024078.1764
  -4741225.53146  -3683159.01844  23312398.1954                   23312398.3754
  -3562592.05148  -2788577.07545  22178950.6334                   22178948.4574
  -9923177.35947  -7721068.70945  22897039.6414                   22897040.6094
 11  8 15 19  1 30.0000000  0  9G11G07G08G24G13G19G26G28G17
  -3799207.48848  -2951428.33845  21628256.9064                   21628255.1174
  -1049885.37547   -859874.98347  20455143.6954                   20455141.6804
  -6478071.98048  -5041154.42746  20406922.0314                   20406920.7624
  -7319601.85247  -5693394.95945  22381786.7114                   22381787.2894
  11127286.53146   8650135.76343  24125033.5004                   24125035.3674
   9679174.41046   7533450.66944  24037532.7194                   24037531.0124
  -4828868.03947  -3751451.88244  23295720.3674                   23295719.7894
  -3620767.41048  -2833908.52445  22167879.9924                   22167878.2384
 -10041963.28547  -7813629.11645  22874435.6094                   22874435.6484
 11  8 15 19  2  0.0000000  0  9G11G07G08G24G13G19G26G28G17
  -3832961.69547  -2977730.29945  21621833.3444                   21621831.7814
  -1063758.83647   -870685.49146  20452503.6094                   20452501.4774
  -6550598.89547  -5097668.93246  20393120.7734                   20393119.3794
  -7396024.66447  -5752945.15745  22367243.8054                   22367244.5164
  11205378.30146   8710986.31043  24139894.2274                   24139896.5634
   9749962.53546   7588610.22143  24051003.4384                   24051000.8634
  -4915970.24247  -3819323.70344  23279145.2344                   23279145.4884
  -3678895.80547  -2879203.38046  22156818.8444                   22156816.2384
 -10160473.84047  -7905974.93345  22851883.4614                   22851884.0904
 11  8 15 19  2 30.0000000  0  9G11G07G08G24G13G19G26G28G17
  -3866151.70747  -3003592.65545  21615517.1954                   21615515.5744
  -1077167.80948   -881134.07947  20449952.0394                   20449950.0664
  -6622746.03148  -5153887.49046  20379391.8984                   20379390.0944
  -7472036.93447  -5812175.46245  22352779.0784                   22352780.0084
  11283446.52046   8771818.45443  24154749.5554                   24154752.9654
   9820841.52346   7643840.49944  24064491.1884                   24064489.4144
  -5002532.93447  -3886775.15144  23262672.7894                   23262673.4494
  -3736980.47348  -2924464.16545  22145765.4534                   22145763.2704
 -10278709.78947  -7998106.76645  22829383.7504                   22829384.0554
 11  8 15 19  3  0.0000000  0  9G11G07G08G24G13G19G26G28G17
  -3898773.23447  -3029012.01945  21609310.0234                   21609308.1454
  -1090108.33648   -891217.64747  20447489.5784                   20447487.4844
  -6694506.78548  -5209804.97746  20365736.1174                   20365734.7074
  -7547631.95747  -5871080.63345  22338394.1564                   22338394.6094
  11361492.31646   8832633.09643  24169601.5554                   24169604.7664
   9891813.19147   7699142.99643  24077996.8984                   24077994.9144
  -5088550.49647  -3953801.80044  23246304.5084                   23246304.6294
  -3795017.94148  -2969688.15245  22134721.2584                   22134719.0204
 -10396665.56647  -8090020.28845  22806937.5634                   22806937.7734
 11  8 15 19  3 30.0000000  0  9G11G07G08G24G13G19G26G28G17
  -3930827.01647  -3053988.98545  21603210.2584                   21603208.6994
  -1102580.53947   -900936.28046  20445116.3834                   20445114.3244
  -6765879.62548  -5265420.19846  20352153.9614                   20352152.5234
  -7622808.30147  -5929659.56445  22324088.6094                   22324089.1054
  11439511.94146   8893427.34743  24184448.6954                   24184451.4534
   9962873.88747   7754514.89944  24091519.4064                   24091517.0984
  -5174022.44147  -4020403.29744  23230039.5944                   23230040.0084
  -3853009.88747  -3014876.69245  22123685.7584                   22123683.7274
 -10514341.34847  -8181715.61945  22784544.3524                   22784544.7194
 11  8 15 19  4  0.0000000  0  9G11G07G08G24G13G19G26G28G17
  -3962311.99248  -3078522.73446  21597219.4144                   21597217.3484
  -1114583.48047   -910289.25147  20442832.5784                   20442830.4884
  -6836862.02347  -5320731.17646  20338646.6804                   20338645.3324
  -7697563.09047  -5987910.01045  22309863.1334                   22309864.0164
  11517502.96546   8954199.31844  24199289.9844                   24199293.4414
  10034021.42247   7809954.45744  24105058.0474                   24105056.6484
  -5258946.80147  -4086578.11344  23213879.0944                   23213879.3404
  -3910956.49648  -3060029.89045  22112659.2034                   22112656.7704
 -10631734.80147  -8273190.96945  22762205.3054                   22762205.6254
 11  8 15 19  4 30.0000000  0  9G11G07G08G24G13G19G26G28G17
  -3993228.89548  -3102613.83045  21591335.6254                   21591333.4574
  -1126117.62148   -919276.92847  20440637.3524                   20440635.1684
  -6907452.84048  -5375737.02746  20325213.8834                   20325212.2424
  -7771895.49647  -6045831.33345  22295718.1254                   22295718.5084
  11595461.05546   9014945.62343  24214124.7814                   24214127.7584
  10105252.17647   7865458.88044  24118613.1644                   24118611.3364
  -5343323.14847  -4152325.89244  23197822.2194                   23197822.7814
  -3968859.64548  -3105149.21845  22101640.1024                   22101637.8834
 -10748846.24647  -8364446.56145  22739919.8134                   22739920.1484
 11  8 15 19  5  0.0000000  0  9G11G07G08G24G13G19G26G28G17
  -4023575.67247  -3126260.66746  21585560.8444                   21585558.9654
  -1137180.95747   -927897.73347  20438531.7194                   20438530.0904
  -6977648.23847  -5430434.75346  20311856.2974                   20311854.0514
  -7845801.64847  -6103420.48545  22281653.5314                   22281654.5474
  11673385.16046   9075665.45243  24228953.4534                   24228956.3714
  10176565.33247   7921027.49244  24132184.0864                   24132182.2734
  -5427148.36747  -4217644.23944  23181871.0944                   23181871.3054
  -4026718.55147  -3150234.09945  22090630.1884                   22090627.7934
 -10865672.29747  -8455479.78345  22717688.1484                   22717688.7774
 11  8 15 19  5 30.0000000  0  9G11G07G08G24G13G19G26G28G17
  -4053352.03548  -3149463.04146  21579894.2504                   21579892.7384
  -1147772.83647   -936151.17947  20436516.5164                   20436514.5044
  -7047446.00848  -5484822.63746  20298574.2034                   20298572.5084
  -7919278.89147  -6160675.45045  22267671.7274                   22267672.6024
  11751272.45346   9136356.60143  24243775.5474                   24243778.6914
  10247958.36346   7976658.35144  24145768.9694                   24145767.8524
  -5510420.55947  -4282531.68244  23166024.8834                   23166024.8364
  -4084533.73848  -3195284.89245  22079628.3204                   22079625.8954
 -10982211.80947  -8546289.71445  22695511.2664                   22695511.6054
 11  8 15 19  6  0.0000000  0  9G11G07G08G24G13G19G26G28G17
  -4082557.59847  -3172220.62346  21574337.0234                   21574335.1724
  -1157892.42248   -944036.60646  20434590.7664                   20434589.0084
  -7116843.44948  -5538898.57846  20285368.2504                   20285366.4454
  -7992324.96147  -6217594.43345  22253771.5554                   22253772.3324
  11829120.30946   9197017.02243  24258589.9224                   24258592.8204
  10319428.98847   8032349.65444  24159370.3524                   24159367.8874
  -5593138.75847  -4346987.39644  23150284.1414                   23150284.1024
  -4142305.35947  -3240301.73545  22068634.4694                   22068632.6644
 -11098463.00047  -8636875.00945  22673389.5634                   22673390.0904
 11  8 15 19  6 30.0000000  0  9G11G07G08G24G13G19G26G28G17
  -4111192.13348  -3194533.23945  21568888.1174                   21568885.7704
  -1167540.18048   -951554.36747  20432754.9614                   20432753.1914
  -7185838.91448  -5592661.28446  20272238.7894                   20272236.9774
  -8064937.78547  -6274175.79445  22239953.7814                   22239954.7934
  11906925.23446   9257643.93543  24273395.6884                   24273398.7464
  10390974.07446   8088098.95844  24172985.0634                   24172982.8634
  -5675301.55547  -4411010.36744  23134649.2114                   23134649.4534
  -4200034.57847  -3285285.55345  22057649.0704                   22057647.0784
 -11214425.20747  -8727235.10545  22651322.7814                   22651323.2704
 11  8 15 19  7  0.0000000  0  9G11G07G08G24G13G19G26G28G17
  -4139252.73847  -3216398.66646  21563547.9694                   21563546.4304
  -1176712.34848   -958701.54546  20431009.3754                   20431007.5314
  -7254426.85548  -5646106.44846  20259186.6484                   20259185.2234
  -8137112.28147  -6330415.63045  22226219.1024                   22226220.0314
  11984687.42246   9318237.59042  24288192.6254                   24288196.5474
  10462593.97747   8143906.62144  24186613.6174                   24186611.6094
  -5756904.81647  -4474597.31644  23119120.3984                   23119121.1884
  -4257719.35247  -3330234.72646  22046672.0234                   22046670.1024
 -11330094.33647  -8817366.82845  22629311.3524                   22629312.0164
 11  8 15 19  7 30.0000000  0  9G11G07G08G24G13G19G26G28G17
  -4166739.25848  -3237816.73646  21558317.8984                   21558316.2504
  -1185408.85548   -965478.08946  20429354.7274                   20429352.7774
  -7322605.00848  -5699232.28946  20246212.6564                   20246211.6684
  -8208846.28147  -6386312.19945  22212568.7664                   22212569.2734
  12062404.01645   9378795.72742  24302982.0864                   24302985.4144
  10534286.19546   8199770.58443  24200255.7814                   24200253.9494
  -5837947.17647  -4537747.21644  23103698.3594                   23103698.9774
  -4315360.02348  -3375149.54346  22035703.6094                   22035701.4104
 -11445469.03147  -8907269.12545  22607356.4064                   22607356.6914
 11  8 15 19  8  0.0000000  0  9G11G07G08G24G13G19G26G28G17
  -4193655.03947  -3258790.07846  21553195.9064                   21553193.8444
  -1193632.74248   -971886.36246  20427789.7504                   20427787.7934
  -7390375.05148  -5752040.12846  20233316.7274                   20233315.5474
  -8280141.27747  -6441866.71945  22199001.8834                   22199002.5554
  12140068.73446   9439313.43842  24317761.7034                   24317764.7274
  10606044.52046   8255686.09144  24213911.2664                   24213909.8284
  -5918430.89147  -4600461.77844  23088382.4534                   23088382.9774
  -4372961.11747  -3420033.52045  22024742.2424                   22024740.4534
 -11560551.77747  -8996943.95345  22585456.8984                   22585457.1644
 11  8 15 19  8 30.0000000  0  9G11G07G08G24G13G19G26G28G17
  -4219997.11748  -3279316.37246  21548183.2274                   21548181.0434
  -1201381.17648   -977924.12247  20426315.1804                   20426313.3364
  -7457732.26248  -5804526.28446  20220498.9064                   20220497.5594
  -8350992.30947  -6497075.26745  22185519.0394                   22185520.1484
  12217681.11346   9499790.31642  24332531.2894                   24332534.7154
  10677869.54746   8311653.55143  24227578.9614                   24227577.4024
  -5998351.94947  -4662737.92544  23073174.3754                   23073175.0204
  -4430520.50448  -3464885.00745  22013788.9924                   22013787.3914
 -11675338.43747  -9086388.05745  22563613.8444                   22563613.9144
 11  8 15 19  9  0.0000000  0  9G11G07G08G24G13G19G26G28G17
  -4245770.10948  -3299399.23645  21543278.7274                   21543276.8324
  -1208658.40648   -983594.72146  20424930.3204                   20424928.1644
  -7524679.07448  -5856692.64546  20207759.5784                   20207758.0554
  -8421401.93047  -6551939.85645  22172120.9774                   22172121.3404
  12295233.48446   9560220.54742  24347289.3984                   24347292.4534
  10749753.78546   8367667.18044  24241258.0084                   24241256.4184
  -6077713.82447  -4724578.34344  23058072.5164                   23058072.6524
  -4488043.52048  -3509708.14646  22002842.8364                   22002841.1884
 -11789832.31247  -9175604.01645  22541826.1564                   22541826.5084
 11  8 15 19  9 30.0000000  0  9G11G07G08G24G13G19G26G28G17
  -4270968.03148  -3319033.99145  21538484.1414                   21538481.8634
  -1215458.39848   -988893.45346  20423636.3364                   20423634.7034
  -7591207.21148  -5908532.77746  20195099.6174                   20195098.1484
  -8491362.30947  -6606454.38045  22158807.2734                   22158808.1524
  12372728.64547   9620606.13043  24362036.1334                   24362039.6054
  10821700.37947   8423729.36644  24254948.9924                   24254947.6994
  -6156509.30947  -4785977.40544  23043077.7734                   23043077.9454
  -4545525.07448  -3554498.96645  21991904.2584                   21991902.6054
 -11904026.87147  -9264586.72845  22520095.8444                   22520095.4614
 11  8 15 19 10  0.0000000  0  9G11G07G08G24G13G19G26G28G17
  -4295593.53548  -3338222.71645  21533797.2194                   21533795.4454
  -1221783.16048   -993821.88046  20422432.7814                   20422431.1454
  -7657317.30148  -5960047.14346  20182519.5944                   20182518.0274
  -8560873.76647  -6660619.13445  22145579.7734                   22145580.5664
  12450161.25447   9680942.93743  24376771.7424                   24376775.0164
  10893704.47746   8479836.36544  24268651.6954                   24268649.8834
  -6234739.92647  -4846936.32744  23028190.9614                   23028190.7464
  -4602968.08648  -3599259.76946  21980973.4534                   21980971.4304
 -12017922.84447  -9353336.76245  22498422.0634                   22498422.2074
 11  8 15 19 10 30.0000000  0  9G11G07G08G24G13G19G26G28G17
  -4319646.82848  -3356965.55746  21529220.7584                   21529218.6374
  -1227632.93448   -998380.17946  20421319.7664                   20421318.0744
  -7723007.43748  -6011234.27246  20170018.8914                   20170017.3984
  -8629934.54747  -6714432.68545  22132438.1414                   22132439.0274
  12527528.32447   9741228.76143  24391494.3134                   24391497.0744
  10965763.37946   8535986.10644  24282363.3984                   24282361.7624
  -6312404.57847  -4907454.25444  23013412.2504                   23013411.1524
  -4660373.61348  -3643991.35145  21970049.3364                   21970047.5554
 -12131519.87147  -9441853.87345  22476804.9614                   22476805.0634
 11  8 15 19 11  0.0000000  0  9G11G07G08G24G13G19G26G28G17
  -4343125.78148  -3375260.87946  21524753.2114                   21524750.8984
  -1233005.31248  -1002566.47546  20420297.6644                   20420295.6844
  -7788273.40248  -6062090.89546  20157599.4774                   20157597.9774
  -8698540.52747  -6767891.87845  22119382.6094                   22119383.5514
  12604829.14147   9801462.89243  24406204.4224                   24406208.3204
  11037876.13346   8592177.73744  24296086.5944                   24296084.3954
  -6389500.44547  -4967528.95844  22998741.7114                   22998741.1174
  -4717740.73848  -3688693.00745  21959133.0634                   21959130.7154
 -12244814.76247  -9530135.55545  22455245.7114                   22455245.7774
 11  8 15 19 11 30.0000000  0  9G11G07G08G24G13G19G26G28G17
  -4366027.90648  -3393106.69245  21520394.4614                   21520392.7504
  -1237897.80948  -1006378.86046  20419366.3444                   20419364.3324
  -7853110.67248  -6112613.44846  20145261.1024                   20145259.8054
  -8766686.89147  -6820992.91145  22106415.2114                   22106415.6214
  12682063.46547   9861645.19443  24420901.3834                   24420905.8984
  11110043.46146   8648411.92344  24309819.6484                   24309818.1134
  -6466023.58647  -5027157.42944  22984179.7424                   22984179.1684
  -4775066.81248  -3733362.69345  21948224.1804                   21948222.0004
 -12357803.68447  -9618178.80745  22433744.6954                   22433744.7424
 11  8 15 19 12  0.0000000  0  9G11G07G08G24G13G19G26G28G17
  -4388355.43048  -3410504.76645  21516145.4224                   21516143.8594
  -1242312.19548  -1009818.67946  20418526.2894                   20418524.3634
  -7917518.77748  -6162801.58946  20133004.6804                   20133003.3714
  -8834373.68047  -6873735.83045  22093534.5864                   22093535.1134
  12759226.41447   9921771.92343  24435585.0554                   24435589.7774
  11182260.49646   8704684.84843  24323562.2974                   24323560.1994
  -6541974.80547  -5086340.20944  22969726.4064                   22969725.7154
  -4832354.39148  -3778002.36945  21937322.7894                   21937320.6214
 -12470487.47347  -9705984.28445  22412301.5314                   22412301.3634
 11  8 15 19 12 30.0000000  0  9G11G07G08G24G13G19G26G28G17
  -4410110.45748  -3427456.76945  21512005.9064                   21512003.8054
  -1246250.19548  -1012887.28846  20417776.7814                   20417775.2274
  -7981497.91048  -6212655.49446  20120829.8134                   20120828.3984
  -8901601.52047  -6926121.14845  22080741.2194                   22080742.1484
  12836312.77346   9981838.87343  24450254.4614                   24450258.9964
  11254522.54347   8760992.80043  24337313.7974                   24337310.9574
  -6617355.56247  -5145078.50044  22955382.1094                   22955381.7234
  -4889606.71548  -3822614.57046  21926428.2344                   21926426.0164
 -12582866.96547  -9793552.65645  22390916.2034                   22390916.4804
 11  8 15 19 13  0.0000000  0  9G11G07G08G24G13G19G26G28G17
  -4431291.34048  -3443961.37345  21507975.3754                   21507973.6564
  -1249710.10548  -1015583.36746  20417118.5394                   20417117.2304
  -8045044.29748  -6262172.16446  20108737.4064                   20108735.9104
  -8968366.53947  -6978145.80845  22068035.9774                   22068037.1954
  12913321.54346  10041845.45143  24464908.9534                   24464914.1914
  11326829.02346   8817335.47243  24351072.4304                   24351070.7584
  -6692162.85947  -5203369.88644  22941146.8754                   22941146.7974
  -4946822.60548  -3867198.38645  21915539.9774                   21915538.3164
 -12694939.96547  -9880882.20945  22369589.4534                   22369589.7114
 11  8 15 19 13 30.0000000  0  9G11G07G08G24G13G19G26G28G17
  -4451899.82048  -3460019.93945  21504053.5314                   21504051.8594
  -1252693.64148  -1017908.23446  20416550.8204                   20416549.5164
  -8108157.96548  -6311351.66746  20096727.3364                   20096725.6884
  -9034668.23847  -7029809.46545  22055419.7664                   22055420.2234
  12990247.95746  10101787.77943  24479547.9534                   24479552.7504
  11399175.77347   8873709.52443  24364840.1954                   24364837.6374
  -6766397.37147  -5261214.98044  22927020.4614                   22927020.4534
  -5004004.47348  -3911755.67745  21904658.8134                   21904656.9024
 -12806706.76647  -9967973.17045  22348321.0474                   22348321.0394
 11  8 15 19 14  0.0000000  0  9G11G07G08G24G13G19G26G28G17
  -4471933.98848  -3475630.97645  21500241.3284                   21500239.4414
  -1255198.23447  -1019859.91646  20416074.4844                   20416072.7304
  -8170834.27747  -6360190.37246  20084800.6094                   20084798.9064
  -9100502.37147  -7081108.76945  22042891.9064                   22042891.8674
  13067091.91045  10161665.85242  24494170.8054                   24494175.9534
  11471562.52347   8930114.69843  24378614.5004                   24378612.2894
  -6840055.80147  -5318611.18644  22913003.7734                   22913004.1484
  -5061150.32048  -3956284.92545  21893784.4534                   21893782.1724
 -12918163.90647 -10054822.82145  22327111.2194                   22327111.5984
 11  8 15 19 14 30.0000000  0  9G11G07G08G24G13G19G26G28G17
  -4491393.39848  -3490794.16445  21496538.1954                   21496536.3754
  -1257223.45748  -1021438.07346  20415689.3754                   20415687.6054
  -8233070.50048  -6408686.15246  20072957.1174                   20072955.8324
  -9165866.38347  -7132041.74245  22030453.4614                   22030453.8754
  13143851.13345  10221477.86943  24508777.9384                   24508783.3404
  11543987.60247   8986549.78643  24392397.3284                   24392394.0004
  -6913136.69147  -5375557.31544  22899096.8594                   22899097.3324
  -5118260.35248  -4000786.24145  21882917.1174                   21882914.4224
 -13029309.96547 -10141430.07745  22305961.1414                   22305960.9774
 11  8 15 19 15  0.0000000  0  9G11G07G08G24G13G19G26G28G17
  -4510277.68048  -3505509.21745  21492944.3134                   21492942.5944
  -1258768.52748  -1022642.07446  20415394.9774                   20415393.4224
  -8294864.37948  -6456837.25046  20061198.5004                   20061196.7934
  -9230758.30947  -7182606.86445  22018105.1644                   22018105.2814
  13220522.94946  10281221.80142  24523368.5474                   24523373.4304
  11616448.73846   9043012.87843  24406185.7034                   24406182.9104
  -6985638.63347  -5432052.35944  22885300.2894                   22885300.4844
  -5175334.51248  -4045259.61745  21872055.7584                   21872053.4924
 -13140142.99247 -10227793.42845  22284870.1954                   22284869.8914
 11  8 15 19 15 30.0000000  0  9G11G07G08G24G13G19G26G28G17
  -4528589.25448  -3519777.98545  21489459.7424                   21489458.3404
  -1259835.32048  -1023473.39246  20415192.1414                   20415190.3984
  -8356215.54348  -6504643.37146  20049523.5314                   20049521.9614
  -9295177.72347  -7232803.81545  22005846.5474                   22005846.8244
  13297102.90646  10340894.23442  24537941.2734                   24537946.0274
  11688941.90246   9099501.04343  24419980.0474                   24419978.1724
  -7057562.60247  -5488097.00444  22871613.5394                   22871613.6334
  -5232375.78148  -4089707.36446  21861201.2664                   21861198.9344
 -13250664.11747 -10313913.72745  22263838.4534                   22263838.4144
 11  8 15 19 16  0.0000000  0  8G11G07G08G24G19G26G28G17
  -4546324.52048  -3533597.68645  21486085.2344                   21486083.5554
  -1260420.51248  -1023929.43246  20415080.9614                   20415079.0274
  -8417118.28148  -6552100.06846  20037933.9694                   20037932.9654
  -9359119.50447  -7282628.54145  21993678.4614                   21993679.4104
  11761468.24646   9156015.01243  24433781.8834                   24433779.6094
  -7128904.19547  -5543687.87044  22858038.1884                   22858038.0084
  -5289380.51647  -4134126.64945  21850353.5164                   21850351.6254
 -13360868.93447 -10399787.57445  22242866.8674                   22242867.1094
 11  8 15 19 16 30.0000000  0  8G11G07G08G24G19G26G28G17
  -4563487.75448  -3546971.64545  21482819.1024                   21482817.3244
  -1260527.63348  -1024012.94646  20415060.3594                   20415058.8244
  -8477574.50448  -6599208.83646  20026429.8204                   20026428.3054
  -9422585.70747  -7332082.71445  21981601.2424                   21981602.0274
  11834020.97345   9212549.53043  24447588.7034                   24447585.9884
  -7199666.35247  -5598827.24344  22844572.5784                   22844572.0004
  -5346353.18048  -4178520.94546  21839511.8754                   21839510.2424
 -13470760.07047 -10485416.97145  22221955.5474                   22221955.4264
 11  8 15 19 17  0.0000000  0  8G11G07G08G24G19G26G28G17
  -4580067.64848  -3559891.06745  21479664.0634                   21479662.5164
  -1260144.97348  -1023714.82946  20415132.8054                   20415131.8484
  -8537570.60548  -6645959.06246  20015012.8834                   20015011.4694
  -9485562.65647  -7381155.64745  21969617.2664                   21969617.5434
  11906610.03145   9269112.27243  24461401.3754                   24461400.2384
  -7269836.28947  -5653505.15544  22831219.8284                   22831219.0744
  -5403283.05148  -4222881.89946  21828678.5004                   21828676.4734
 -13580325.06247 -10570792.24145  22201106.0164                   22201105.2934
 11  8 15 19 17 30.0000000  0  8G11G07G08G24G19G26G28G17
  -4596054.98848  -3572348.76145  21476621.7504                   21476619.9064
  -1259263.22748  -1023027.79146  20415300.8054                   20415299.4104
  -8597095.20348  -6692341.88246  20003685.5634                   20003684.5944
  -9548038.87947  -7429838.38445  21957728.3594                   21957729.0704
  11979242.45346   9325708.87043  24475222.8754                   24475221.6844
  -7339403.99247  -5707713.76944  22817981.3914                   22817980.8014
  -5460160.89148  -4267202.29346  21817855.3204                   21817853.1764
 -13689553.26248 -10655905.09145  22180320.5084                   22180320.5664
 11  8 15 19 18  0.0000000  0  8G11G07G08G24G19G26G28G17
  -4611443.61348  -3584339.92645  21473693.2274                   21473691.6134
  -1257876.03548  -1021946.91747  20415564.9534                   20415563.5394
  -8656139.61348  -6738350.53346  19992450.0314                   19992448.5274
  -9610006.26647  -7478124.65345  21945936.5004                   21945937.0434
  12051922.16046   9382342.30743  24489054.1884                   24489052.2304
  -7408362.42647  -5761447.62144  22804858.4614                   22804858.5234
  -5516980.73047  -4311477.51346  21807042.8054                   21807040.6844
 -13798437.25848 -10740749.72145  22159600.1564                   22159600.3834
 11  8 15 19 18 30.0000000  0  8G11G07G08G24G19G26G28G17
  -4626235.56648  -3595866.15245  21470878.5004                   21470876.8914
  -1255985.07047  -1020473.48946  20415925.0234                   20415923.5904
  -8714703.65648  -6783984.88046  19981305.7504                   19981304.3244
  -9671464.79747  -7526014.39945  21934241.3524                   21934241.6054
  12124645.24246   9439009.55844  24502892.6804                   24502890.6764
  -7476712.01647  -5814707.05444  22791852.4924                   22791852.1454
  -5573745.04347  -4355709.44846  21796240.9224                   21796238.9264
 -13906977.64547 -10825326.59745  22138946.2424                   22138946.2194
 11  8 15 19 19  0.0000000  0  8G11G07G08G24G19G26G28G17
  -3065006.83648  -2379324.29645  21767970.5944                   21767969.0274
    321833.77048    208995.69146  20716173.9454                   20716172.3054
  -7197358.97747  -5601638.39046  20270046.9064                   20270045.4924
  -8156986.35547  -6345901.30345  22222436.7894                   22222437.8984
  13772831.05146  10723310.08044  24816532.0474                   24816529.8324
  -5969025.78947  -4639886.63844  23078755.2034                   23078754.8714
  -4055027.77747  -3172293.40446  22085243.1564                   22085241.1454
 -12439745.60547  -9682028.85746  22418151.1334                   22418150.8204
 11  8 15 19 19 30.0000000  0  8G11G07G08G24G19G26G28G17
  -3078605.43448  -2389920.63245  21765382.7734                   21765381.4534
    324733.68448    211255.32046  20716726.0784                   20716724.3754
  -7254954.87147  -5646518.32446  20259086.7034                   20259085.2854
  -8217420.32447  -6392992.69245  22210936.8054                   22210937.0784
  13845635.12546  10780040.44944  24830386.7974                   24830384.1294
  -6036154.54347  -4692194.78144  23065980.9144                   23065980.8874
  -4111680.59847  -3216438.47546  22074462.6564                   22074460.3364
 -12547594.31647  -9766066.77245  22397628.3284                   22397628.1684
 11  8 15 19 20  0.0000000  0  8G11G07G08G24G19G26G28G17
  -3091612.37948  -2400055.95345  21762907.7034                   21762906.2704
    328133.25448    213904.27846  20717372.8754                   20717371.2464
  -7312068.27347  -5691022.29846  20248218.2424                   20248217.0664
  -8277343.82847  -6439686.31045  22199533.3204                   22199534.0944
  13918471.80547  10836796.24844  24844246.9304                   24844245.0204
  -6102676.05947  -4744029.73544  23053322.7814                   23053322.7894
  -4168282.83247  -3260544.12446  22063691.4304                   22063689.8594
 -12655100.42248  -9849837.71645  22377170.0474                   22377170.2624
 11  8 15 19 20 30.0000000  0  8G11G07G08G24G19G26G28G17
  -3104029.41048  -2409731.57645  21760544.8524                   21760542.8284
    332031.18447    216941.57946  20718114.5634                   20718112.8794
  -7368698.22347  -5735149.56046  20237442.0474                   20237440.8054
  -8336756.52047  -6485981.90845  22188227.6094                   22188228.2584
  13991337.21146  10893574.40144  24858112.6334                   24858111.0704
  -6168591.26247  -4795392.28444  23040779.5164                   23040779.7584
  -4224836.26647  -3304611.73946  22052930.0164                   22052927.8554
 -12762264.10547  -9933341.83446  22356777.4694                   22356777.9454
 11  8 15 19 21  0.0000000  0  8G11G07G08G24G19G26G28G17
  -3115858.11748  -2418948.76045  21758293.7114                   21758292.6804
    336426.15247    220366.19846  20718951.2504                   20718949.2934
  -7424844.27747  -5778899.75646  20226757.9144                   20226756.9454
  -8395657.97747  -6531879.14345  22177019.1254                   22177019.6214
  14064228.34446  10950372.65143  24871983.6334                   24871980.9574
  -6233900.44546  -4846282.56644  23028351.2974                   23028351.5864
  -4281342.69947  -3348642.75846  22042177.0784                   22042174.9964
 -12869085.63747 -10016579.34546  22336450.2814                   22336450.3284
 11  8 15 19 21 30.0000000  0  8G11G07G08G24G19G26G28G17
  -3127102.47348  -2427710.62945  21756154.3834                   21756152.6764
    341314.99648    224175.64046  20719881.3444                   20719879.8874
  -7480507.28947  -5822273.54946  20216165.5554                   20216164.3714
  -8454049.34447  -6577378.89645  22165907.4614                   22165908.3914
  14137139.73046  11007186.72743  24885857.4454                   24885855.7624
  -6298606.05147  -4896702.54844  23016038.3204                   23016038.7624
  -4337805.34447  -3392639.62146  22031432.5474                   22031430.4304
 -12975567.17647 -10099551.92746  22316187.0784                   22316187.3014
 11  8 15 19 22  0.0000000  0  8G11G07G08G24G19G26G28G17
  -3137770.09848  -2436023.08045  21754124.1334                   21754122.4304
    346690.43048    228364.20746  20720904.2584                   20720903.0394
  -7535692.93447  -5865275.37546  20205664.1334                   20205662.8054
  -8511936.37947  -6622485.67845  22154891.5864                   22154891.9414
  14210061.73846  11064008.92143  24899734.6174                   24899732.3794
  -6362714.93447  -4946657.53444  23003838.9924                   23003838.9144
  -4394232.28547  -3436608.68146  22020694.6254                   22020692.6644
 -13081715.13747 -10182264.57746  22295988.1414                   22295988.2034
 11  8 15 19 22 30.0000000  0  7G11G07G08G24G26G28G17
  -3147861.64547  -2443886.64645  21752204.0554                   21752202.1764
    352551.85948    232931.49946  20722019.7734                   20722018.3634
  -7590399.44548  -5907903.85446  20195253.5394                   20195252.5474
  -8569317.46547  -6667198.18145  22143972.8204                   22143973.2704
  -6426226.51647  -4996147.09444  22991753.0864                   22991753.9614
  -4450623.79348  -3480550.13346  22009963.7894                   22009961.6024
 -13187528.63347 -10264716.61846  22275852.6564                   22275852.0274
 11  8 15 19 23  0.0000000  0  7G11G07G08G24G26G28G17
  -3157374.82448  -2451299.54545  21750393.8204                   21750391.7234
    358901.93448    237879.58246  20723228.3054                   20723226.4184
  -7644622.07848  -5950155.27746  20184935.5944                   20184934.3094
  -8626188.38347  -6711513.19245  22133150.4144                   22133150.9924
  -6489137.50447  -5045168.67044  22979781.6954                   22979781.8404
  -4506977.48847  -3524462.09346  21999240.0004                   21999237.8364
 -13293004.10248 -10346905.24346  22255781.2584                   22255780.8634
 11  8 15 19 23 30.0000000  0  7G11G07G08G24G26G28G17
  -3166308.07448  -2458260.53845  21748693.7344                   21748691.9534
    365742.67248    243209.96046  20724530.1414                   20724528.5554
  -7698356.56248  -5992026.32946  20174710.3984                   20174709.0234
  -8682545.21547  -6755427.57945  22122426.3204                   22122426.6764
  -6551444.88347  -5093719.88844  22967925.6024                   22967925.4024
  -4563291.63348  -3568343.26546  21988523.7194                   21988521.9924
 -13398138.35548 -10428828.01646  22235774.3204                   22235774.5944
 11  8 15 19 24  0.0000000  0  7G11G07G08G24G26G28G17
  -3174652.13748  -2464762.43745  21747105.7664                   21747104.0274
    373083.86748    248930.32846  20725926.7424                   20725925.4304
  -7751590.88748  -6033507.65046  20164580.2344                   20164578.7624
  -8738376.21547  -6798932.25045  22111801.8364                   22111802.6484
  -6613138.38347  -5141792.78644  22956185.2894                   22956184.9304
  -4619556.63348  -3612186.12546  21977816.8524                   21977815.0394
 -13502920.53948 -10510476.42246  22215835.1724                   22215835.1884
 11  8 15 19 24 30.0000000  0  7G11G07G08G24G26G28G17
  -3182409.29348  -2470806.99245  21745629.7974                   21745628.1524
    380923.37948    255038.97446  20727418.8204                   20727417.3164
  -7804325.21548  -6074599.35646  20154544.9924                   20154543.7384
  -8793681.76647  -6842027.47145  22101277.4144                   22101277.7934
  -6674219.12947  -5189388.17144  22944561.8134                   22944562.1604
  -4675774.52348  -3655992.28746  21967119.1174                   21967117.0434
 -13607351.46948 -10591851.13046  22195962.6644                   22195962.1214
 11  8 15 19 25  0.0000000  0  7G11G07G08G24G26G28G17
  -3189585.77348  -2476399.07045  21744264.1884                   21744262.6684
    389255.42648    261531.43846  20729004.6954                   20729002.7074
  -7856563.24648  -6115304.34646  20144604.6094                   20144603.2934
  -8848465.82047  -6884716.33745  22090852.8054                   22090852.8954
  -6734692.52047  -5236510.34044  22933054.1644                   22933054.1644
  -4731951.16048  -3699766.30246  21956428.9694                   21956427.1564
 -13711435.74247 -10672955.72845  22176156.0704                   22176155.7624
 11  8 15 19 25 30.0000000  0  7G11G07G08G24G26G28G17
  -3196186.02348  -2481542.14745  21743008.2814                   21743006.5234
    398076.21948    268404.72246  20730682.9304                   20730681.4344
  -7908306.91448  -6155624.10146  20134757.9144                   20134756.7114
  -8902730.62948  -6927000.59045  22080526.9384                   22080526.8364
  -6794561.58647  -5283161.55044  22921661.4694                   22921661.5594
  -4788090.87548  -3743511.56646  21945746.0554                   21945743.9734
 -13815176.50848 -10753792.64446  22156414.7274                   22156414.3914
 11  8 15 19 26  0.0000000  0  7G11G07G08G24G26G28G17
  -3202215.09448  -2486240.14745  21741860.6094                   21741859.2194
    407380.86348    275655.05446  20732453.6804                   20732452.2114
  -7959558.72748  -6195560.60446  20125005.1174                   20125003.8634
  -8956478.94148  -6968882.37745  22070298.0084                   22070299.0514
  -6853830.46547  -5329345.11744  22910382.6094                   22910383.6644
  -4844198.10948  -3787231.50346  21935069.1884                   21935067.4494
 -13918577.21148 -10834364.58246  22136738.3284                   22136738.0474
 11  8 15 19 26 30.0000000  0  7G11G07G08G24G26G28G17
  -3207678.45347  -2490497.32745  21740821.1564                   21740819.6884
    417164.58248    283278.67346  20734315.4304                   20734313.5784
  -8010321.66448  -6235116.16746  20115344.9924                   20115344.3984
  -9009713.92247  -7010364.16145  22060167.9694                   22060168.4964
  -6912503.12147  -5375064.09644  22899217.3284                   22899218.0124
  -4900278.13748  -3830930.23346  21924397.6724                   21924395.6254
 -14021641.82848 -10914674.63946  22117125.6024                   22117125.4804
 11  8 15 19 27  0.0000000  0  7G11G07G08G24G26G28G17
  -3212574.02047  -2494312.09645  21739889.9304                   21739888.4614
    427429.49648    291277.25146  20736268.9454                   20736267.5784
  -8060590.93448  -6274287.04546  20105779.3754                   20105778.0554
  -9062431.39547  -7051442.71245  22050136.4304                   22050136.7384
  -6970576.79346  -5420316.32044  22888166.3444                   22888167.2034
  -4956328.37148  -3874605.74646  21913731.6414                   21913729.8914
 -14124366.48848 -10994719.77546  22097577.6564                   22097577.5204
 11  8 15 19 27 30.0000000  0  7G11G07G08G24G26G28G17
  -3216903.45347  -2497685.69845  21739065.7274                   21739064.1564
    438174.60248    299650.00646  20738313.7194                   20738312.4614
  -8110365.78948  -6313072.66546  20096307.4844                   20096306.4614
  -9114630.84447  -7092117.59145  22040203.2274                   22040203.4614
  -7028051.80947  -5465102.08944  22877228.9694                   22877229.7114
  -5012349.78548  -3918258.82246  21903070.8914                   21903069.0164
 -14226751.30548 -11074500.12046  22078094.5704                   22078094.6054
 11  8 15 19 28  0.0000000  0  7G11G07G08G24G26G28G17
  -3220670.63748  -2500621.19945  21738349.0314                   21738347.4844
    449396.63748    308394.35846  20740449.1564                   20740447.5554
  -8159647.24248  -6351473.82647  20086929.6174                   20086928.5634
  -9166313.68747  -7132389.93645  22030368.2344                   22030368.6454
  -7084930.75447  -5509423.36344  22866405.5234                   22866406.0704
  -5068346.05548  -3961892.29246  21892415.1564                   21892413.2974
 -14328798.41448 -11154017.30546  22058675.6484                   22058675.4734
 11  8 15 19 28 30.0000000  0  7G11G07G08G24G26G28G17
  -3223877.99647  -2503120.46445  21737738.7114                   21737737.1914
    461093.35248    317508.63246  20742675.0394                   20742673.4454
  -8208435.06248  -6389490.32646  20077645.8984                   20077644.4774
  -9217480.08647  -7172259.85045  22020631.5634                   22020631.9144
  -7141215.05947  -5553281.29044  22855695.0164                   22855695.1724
  -5124318.76248  -4005507.39946  21881764.1414                   21881762.1644
 -14430509.01248 -11233272.27946  22039320.5474                   22039320.4694
 11  8 15 19 29  0.0000000  0  7G11G07G08G24G26G28G17
  -3226520.10547  -2505179.27845  21737235.9304                   21737234.4264
    473270.68848    326997.40646  20744992.2114                   20744991.0904
  -8256721.58248  -6427116.20246  20068457.4384                   20068456.4534
  -9268122.48447  -7211721.43945  22010994.5784                   22010994.8364
  -7196898.41847  -5596670.95544  22845099.5944                   22845099.2464
  -5180262.17248  -4049099.69146  21871118.2274                   21871116.8054
 -14531875.81248 -11312259.37446  22020030.8754                   22020031.0554
 11  8 15 19 29 30.0000000  0  7G11G07G08G24G26G28G17
  -3228604.21547  -2506803.29445  21736839.1334                   21736837.9344
    485921.79748    336855.37046  20747399.8594                   20747398.5944
  -8304511.27048  -6464354.94446  20059362.9694                   20059361.7584
  -9318246.17647  -7250778.83345  22001456.5164                   22001457.1724
  -7251986.84047  -5639597.01144  22834616.2344                   22834616.2034
  -5236182.71148  -4092674.15346  21860476.9924                   21860475.1914
 -14632904.59448 -11390983.07246  22000805.6884                   22000805.7734
 11  8 15 19 30  0.0000000  0  7G11G07G08G24G26G28G17
  -3230128.24647  -2507990.88745  21736549.4064                   21736547.6764
    499049.25448    347084.47846  20749898.0234                   20749896.6294
  -8351799.31248  -6501202.79846  20050364.3984                   20050363.1884
  -9367846.51247  -7289428.43945  21992017.4844                   21992018.2624
  -7306477.15646  -5682057.03544  22824246.7734                   22824247.0904
  -5292077.72347  -4136228.73546  21849840.5704                   21849838.8244
 -14733591.50848 -11469440.37746  21981645.8834                   21981645.9384
 11  8 15 19 30 30.0000000  0  7G11G07G08G24G26G28G17
  -3231099.11348  -2508747.44245  21736364.6024                   21736363.3714
    512646.41048    357679.60846  20752485.2584                   20752484.0314
  -8398590.46148  -6537663.45546  20041460.4924                   20041459.4024
  -9416928.22347  -7327673.92545  21982677.2664                   21982677.8324
  -7360375.14147  -5724055.48244  22813990.7194                   22813990.4964
  -5347953.59848  -4179768.39546  21839207.7894                   21839205.9454
 -14833941.62548 -11547635.24046  21962549.8284                   21962549.8244
 11  8 15 19 31  0.0000000  0  7G11G07G08G24G26G28G17
  -3231514.13347  -2509070.85545  21736285.8364                   21736284.6604
    526716.64848    368643.36146  20755162.6954                   20755161.7154
  -8444879.11348  -6573732.55446  20032652.1174                   20032650.9454
  -9465486.54747  -7365511.57245  21973437.5784                   21973437.8094
  -7413677.09047  -5765589.50244  22803848.0164                   22803847.9494
  -5403806.82848  -4223290.40246  21828578.9924                   21828577.6334
 -14933950.77048 -11625564.40346  21943518.8284                   21943518.6484
 11  8 15 19 31 30.0000000  0  7G11G07G08G24G26G28G17
  -3231372.71148  -2508960.68145  21736312.7504                   21736311.2734
    541260.92248    379976.51246  20757930.6174                   20757929.2384
  -8490662.10948  -6609407.64546  20023939.7034                   20023938.6994
  -9513518.55948  -7402939.10845  21964297.1644                   21964297.6954
  -7466381.16447  -5806657.65344  22793818.7974                   22793819.2344
  -5459636.05948  -4266793.72246  21817955.1804                   21817953.2814
 -15033616.48848 -11703225.99046  21924552.9384                   21924552.4534
 11  8 15 19 32  0.0000000  0  7G11G07G08G24G26G28G17
  -3230679.52047  -2508420.56445  21736444.6254                   21736443.3984
    556274.88748    391675.64146  20760787.8754                   20760786.2704
  -8535941.57448  -6644690.37546  20015323.7734                   20015322.3554
  -9561026.89547  -7439958.57445  21955256.7424                   21955256.6994
  -7518491.08247  -5847262.81444  22783902.3364                   22783902.8794
  -5515445.36348  -4310281.50946  21807335.1484                   21807333.7074
 -15132942.16048 -11780622.59146  21905652.0554                   21905651.1024
 11  8 15 19 32 30.0000000  0  7G11G07G08G24G26G28G17
  -3229440.94148  -2507455.47445  21736680.0864                   21736678.4104
    571752.59848    403736.13746  20763732.9454                   20763731.7274
  -8580721.33248  -6679583.72746  20006802.0164                   20006801.1254
  -9608015.81647  -7476573.32045  21946314.8364                   21946315.4774
  -7570012.53147  -5887409.41644  22774098.5704                   22774098.7194
  -5571240.58648  -4353758.31346  21796717.4224                   21796715.8284
 -15231932.84448 -11857758.14546  21886814.9144                   21886814.3094
 11  8 15 19 33  0.0000000  0  7G11G07G08G24G26G28G17
  -3227653.44147  -2506062.64445  21737020.5164                   21737018.8834
    587698.58648    416161.52146  20766767.6564                   20766766.2734
  -8624994.52348  -6714082.34846  19998377.1644                   19998375.8834
  -9654479.03947  -7512778.41645  21937473.0554                   21937473.6524
  -7620940.28947  -5927093.43344  22764407.1804                   22764407.1684
  -5627016.58248  -4397220.15346  21786103.8204                   21786102.2424
 -15330582.10948 -11934627.68346  21868042.1334                   21868041.8954
 11  8 15 19 33 30.0000000  0  7G11G07G08G24G26G28G17
  -3225318.50447  -2504243.24445  21737464.8524                   21737464.0704
    604111.45748    428950.73846  20769891.1564                   20769889.7034
  -8668760.46148  -6748185.71046  19990048.9924                   19990047.8484
  -9700416.31647  -7548573.70445  21928731.4384                   21928732.3134
  -7671275.03147  -5966315.33544  22754828.7114                   22754829.4774
  -5682774.34448  -4440667.77646  21775493.4694                   21775491.4884
 -15428890.60548 -12011231.66446  21849334.5634                   21849334.3364
 11  8 15 19 34  0.0000000  0  7G11G07G08G24G26G28G17
  -3222436.87947  -2501997.84745  21738013.2664                   21738011.5944
    620991.05548    442103.62546  20773102.8914                   20773101.6764
  -8712016.78948  -6781891.97746  19981817.5004                   19981816.7854
  -9745825.50847  -7583957.49345  21920090.6174                   21920090.9654
  -7721016.33647  -6005074.82344  22745363.7034                   22745363.7074
  -5738513.75847  -4484101.10246  21764886.9384                   21764885.2114
 -15526856.97348 -12087569.07246  21830692.2734                   21830691.8984
 11  8 15 19 34 30.0000000  0  7G11G07G08G24G26G28G17
  -3219006.81647  -2499325.10045  21738666.2424                   21738664.5274
    638339.54748    455621.86846  20776404.2114                   20776403.0474
  -8754759.63348  -6815198.12646  19973684.0004                   19973682.6684
  -9790702.74247  -7618926.75945  21911550.6094                   21911551.3164
  -7770161.27747  -6043369.61544  22736011.1254                   22736011.6524
  -5794232.14848  -4527518.05246  21754283.7194                   21754282.0594
 -15624477.72748 -12163637.16046  21812115.7114                   21812115.1724
 11  8 15 19 35  0.0000000  0  7G11G07G08G24G26G28G17
  -3215029.53948  -2496225.96245  21739422.8134                   21739420.9774
    656156.03948    469504.78846  20779795.0004                   20779793.4964
  -8796987.59448  -6848103.05946  19965648.0474                   19965647.2464
  -9835047.40647  -7653481.03145  21903111.9224                   21903112.5784
  -7818710.42247  -6081200.15644  22726773.0474                   22726772.8014
  -5849929.67648  -4570918.73546  21743685.0864                   21743683.4614
 -15721752.91048 -12239435.97746  21793604.5634                   21793604.4654
 11  8 15 19 35 30.0000000  0  7G11G07G08G24G26G28G17
  -3210502.53547  -2492698.43945  21740284.4144                   21740282.8954
    674443.65248    483754.82246  20783274.4694                   20783273.8284
  -8838695.37548  -6880602.65546  19957711.6644                   19957710.2894
  -9878854.62147  -7687616.53145  21894775.7814                   21894776.6334
  -7866660.00447  -6118563.51044  22717647.9614                   22717648.4964
  -5905602.95348  -4614300.53146  21733090.8134                   21733088.9414
 -15818677.37148 -12314961.49546  21775160.6954                   21775160.4884
 11  8 15 19 36  0.0000000  0  7G11G07G08G24G26G28G17
  -3205430.94547  -2488746.59845  21741249.5864                   21741248.2894
    693197.82448    498368.40846  20786843.3914                   20786842.5594
  -8879885.36748  -6912698.79046  19949873.0164                   19949872.0824
  -9922127.32447  -7721335.51745  21886541.1724                   21886541.8164
  -7914013.96947  -6155462.73744  22708636.6804                   22708637.4924
  -5961255.94548  -4657666.51346  21722500.2504                   21722498.3594
 -15915254.96548 -12390216.72846  21756782.7114                   21756782.4264
 11  8 15 19 36 30.0000000  0  7G11G07G08G24G26G28G17
  -3199814.82847  -2484370.44945  21742318.3914                   21742317.0234
    712419.35948    513346.16646  20790501.6094                   20790500.4774
  -8920555.07448  -6944389.49546  19942134.0474                   19942133.0234
  -9964863.20347  -7754636.21945  21878409.0474                   21878409.9104
  -7960771.40647  -6191897.13044  22699739.7424                   22699740.3984
  -6016887.75048  -4701015.99246  21711914.1884                   21711912.2774
 -16011483.66448 -12465200.10546  21738470.8054                   21738470.6994
 11  8 15 19 37  0.0000000  0  7G11G07G08G24G26G28G17
  -3193659.66047  -2479574.25145  21743489.7664                   21743487.9964
    732102.80548    528683.84946  20794247.0084                   20794246.0744
  -8960707.11348  -6975676.82846  19934493.5164                   19934492.4184
 -10007065.57447  -7787521.17745  21870377.9224                   21870378.6684
  -8006936.75447  -6227870.15844  22690954.2584                   22690955.0434
  -6072502.48848  -4744352.17146  21701330.8284                   21701329.0004
 -16107367.73447 -12539914.94146  21720224.5164                   21720224.2114
 11  8 15 19 37 30.0000000  0  7G11G07G08G24G26G28G17
  -3186966.30548  -2474358.67045  21744763.4924                   21744761.9884
    752247.58248    544381.02146  20798080.6024                   20798079.4064
  -9000339.85548  -7006559.50146  19926951.3364                   19926950.3094
 -10048733.32047  -7819989.56645  21862448.9064                   21862449.5554
  -8052510.09047  -6263381.88044  22682281.9144                   22682282.4414
  -6128100.45748  -4787675.27546  21690750.8754                   21690748.9774
 -16202906.04748 -12614360.34946  21702044.4144                   21702043.8014
 11  8 15 19 38  0.0000000  0  7G11G07G08G24G26G28G17
  -3179734.68048  -2468723.67745  21746139.4454                   21746137.9184
    772854.77748    560438.51946  20802002.2734                   20802000.9344
  -9039450.48048  -7037035.34646  19919509.0084                   19919507.7114
 -10089863.83647  -7852039.31645  21854622.1094                   21854622.6294
  -8097490.12547  -6298431.29644  22673723.1254                   22673723.3444
  -6183679.90248  -4830983.96446  21680174.4224                   21680172.6844
 -16298096.54347 -12688534.74046  21683930.1094                   21683929.6524
 11  8 15 19 38 30.0000000  0  7G11G07G08G24G26G28G17
  -3171967.67648  -2462671.51545  21747617.1024                   21747616.3754
    793921.74647    576854.27146  20806011.2814                   20806009.8054
  -9078039.14148  -7067104.46946  19912165.9144                   19912164.6374
 -10130457.87547  -7883671.03545  21846897.3524                   21846898.1484
  -8141878.98047  -6333020.06344  22665275.9384                   22665276.3444
  -6239242.85248  -4874279.80546  21669601.4304                   21669599.5594
 -16392940.53547 -12762439.13046  21665881.7734                   21665881.3954
 11  8 15 19 39  0.0000000  0  7G11G07G08G24G26G28G17
  -3163665.46947  -2456202.30645  21749197.6414                   21749195.8404
    815448.82848    593628.57146  20810107.5864                   20810106.3954
  -9116102.89848  -7096764.58246  19904922.6334                   19904921.3714
 -10170513.31647  -7914883.06945  21839274.9064                   21839275.9694
  -8185675.58247  -6367147.31344  22656942.0004                   22656942.8794
  -6294788.29348  -4917561.97646  21659031.3204                   21659029.8794
 -16487436.10947 -12836072.01646  21647900.0704                   21647899.7304
 11  8 15 19 39 30.0000000  0  7G11G07G08G24G26G28G17
  -3154830.16048  -2449317.68245  21750878.5004                   21750876.9534
    837434.61347    610760.28046  20814291.3204                   20814290.0744
  -9153641.78148  -7126015.68146  19897779.3284                   19897778.2624
 -10210030.00047  -7945675.30845  21831755.4454                   21831755.9774
  -8228881.03147  -6400813.95744  22648720.1334                   22648720.9344
  -6350316.71948  -4960830.91146  21648464.5784                   21648462.8054
 -16581583.54348 -12909433.62446  21629984.2114                   21629983.9344
 11  8 15 19 40  0.0000000  0  7G11G07G08G24G26G28G17
  -3145467.21948  -2442021.93545  21752660.4304                   21752659.0044
    859874.23448    628245.63746  20818561.7584                   20818560.7664
  -9190658.24248  -7154859.70546  19890735.5164                   19890734.3244
 -10249011.18447  -7976050.25345  21824337.4694                   21824338.1764
  -8271499.65647  -6434023.33144  22640610.0554                   22640610.8794
  -6405832.39848  -5004089.90446  21637900.4694                   21637898.5984
 -16675386.44147 -12982526.78846  21612134.3134                   21612133.6844
 11  8 15 19 40 30.0000000  0  7G11G07G08G24G26G28G17
  -3135576.74248  -2434315.11145  21754542.4454                   21754541.0274
    882767.67647    646084.61246  20822917.9534                   20822917.2504
  -9227149.96547  -7183294.84346  19883791.0944                   19883790.1524
 -10287455.07447  -8006006.54045  21817022.0314                   21817022.8914
  -8313531.09047  -6466775.14444  22632611.6724                   22632612.1294
  -6461334.60948  -5047338.37746  21627338.6724                   21627336.6804
 -16768843.43047 -13055350.38946  21594349.9304                   21594349.1804
 11  8 15 19 41  0.0000000  0  7G11G07G08G24G26G28G17
  -3125157.70347  -2426196.41745  21756525.5164                   21756523.8284
    906116.91447    664278.73446  20827361.5394                   20827360.3444
  -9263113.07048  -7211318.07846  19876947.9694                   19876946.3634
 -10325358.13347  -8035541.40045  21809809.2894                   21809809.5984
  -8354972.94947  -6499067.55044  22624725.1724                   22624726.2854
  -6516820.70348  -5090574.31946  21616780.0864                   21616778.1024
 -16861951.44547 -13127902.07846  21576632.0704                   21576631.7304
 11  8 15 19 41 30.0000000  0  7G11G07G08G24G26G28G17
  -3114215.70748  -2417670.23745  21758607.6334                   21758606.1374
    929916.39547    682823.70646  20831890.0864                   20831889.0474
  -9298550.63348  -7238931.79146  19870204.4304                   19870203.3014
 -10362724.20347  -8064657.83245  21802698.6644                   21802698.7074
  -8395830.03547  -6530904.29744  22616951.0704                   22616951.4654
  -6572294.99248  -5133801.03746  21606223.8524                   21606221.8094
 -16954714.24647 -13200184.75046  21558980.0394                   21558979.5204
 11  8 15 19 42  0.0000000  0  7G11G07G08G24G26G28G17
  -3102750.56647  -2408736.40045  21760789.1884                   21760787.7734
    954167.26647    701720.42646  20836505.0474                   20836503.6334
  -9333459.57047  -7266133.58446  19863561.0704                   19863560.1094
 -10399550.58647  -8093353.72345  21795690.8284                   21795691.7154
  -8436101.04347  -6562284.35044  22609287.3834                   22609287.9774
  -6627755.50448  -5177017.04746  21595670.0784                   21595667.9654
 -17047129.65247 -13272196.74346  21541393.6724                   21541392.4774
 11  8 15 19 42 30.0000000  0  7G11G07G08G24G26G28G17
  -1515334.75447  -1171789.06545  22062864.2114                   22062862.9614
   2554297.07047   1948574.74846  21140999.4614                   21140998.5004
  -7792408.11748  -6065314.30846  20156813.7114                   20156812.1294
  -8860405.84447  -6894020.16945  22088580.1174                   22088581.2934
  -6900355.61747  -5365599.67644  22901530.0164                   22901530.7624
  -5107771.10548  -3992613.63446  21884912.9844                   21884911.4804
 -15563764.87547 -12116328.06246  21823668.4774                   21823668.1914
 11  8 15 19 43  0.0000000  0  7G11G07G08G24G26G28G17
  -1502815.23047  -1162033.63245  22065246.5944                   22065245.4224
   2579460.05547   1968182.19846  21145788.2274                   21145786.9734
  -7826243.69947  -6091679.73146  20150375.1484                   20150373.8484
  -8896138.25847  -6921863.61545  22081780.9534                   22081781.3954
  -6939443.68047  -5396057.95244  22894091.3984                   22894092.2034
  -5163192.17648  -4035798.90646  21874367.3984                   21874365.6484
 -15655472.19147 -12187788.30646  21806217.4064                   21806216.7304
 11  8 15 19 43 30.0000000  0  7G11G07G08G24G26G28G17
  -1489773.59848  -1151871.35745  22067728.5704                   22067727.0784
   2605074.82847   1988141.68246  21150662.5634                   21150661.6524
  -7859543.43048  -6117627.60846  20144038.4224                   20144037.0124
  -8931325.51647  -6949282.27445  22075084.8984                   22075085.2974
  -6977943.97347  -5426058.23544  22886765.8364                   22886765.9414
  -5218596.68048  -4078971.25946  21863824.0234                   21863821.9574
 -15746827.57047 -12258974.29146  21788832.7974                   21788832.6604
 11  8 15 19 44  0.0000000  0  7G11G07G08G24G26G28G17
  -1476207.44948  -1141300.39845  22070309.9844                   22070308.8094
   2631144.49647   2008455.63046  21155623.3674                   21155622.7114
  -7892302.32048  -6143154.05646  20137804.6884                   20137803.4384
  -8965962.96547  -6976272.51445  22068493.5314                   22068494.4804
  -7015852.99247  -5455597.79244  22879551.9144                   22879551.9694
  -5273980.18748  -4122127.26446  21853284.7584                   21853283.3794
 -15837826.61347 -12329882.62046  21771516.2734                   21771515.9224
 11  8 15 19 44 30.0000000  0  7G11G07G08G24G26G28G17
  -1462125.54748  -1130327.53545  22072990.0944                   22072988.7664
   2657660.99247   2029117.75746  21160669.6804                   21160668.7304
  -7924526.41447  -6168263.76846  20131672.3134                   20131671.3794
  -9000057.16447  -7002839.42445  22062005.5314                   22062006.2424
  -7053178.52747  -5484682.69844  22872449.0554                   22872449.2384
  -5329349.93448  -4165272.53746  21842748.0944                   21842746.5554
 -15928476.27747 -12400518.69846  21754266.3284                   21754266.0634
 11  8 15 19 45  0.0000000  0  7G11G07G08G24G26G28G17
  -1447524.79748  -1118950.36045  22075768.1564                   22075767.0784
   2684627.49647   2050130.53846  21165801.0944                   21165800.5594
  -7956210.10247  -6192952.39946  20125643.2274                   20125642.2194
  -9033603.11747  -7028979.15945  22055622.4064                   22055622.2384
  -7089916.92247  -5513310.07044  22865457.9144                   22865458.7034
  -5384701.46148  -4208403.61646  21832215.3524                   21832213.3834
 -16018771.44147 -12470878.54946  21737083.7504                   21737083.2154
 11  8 15 19 45 30.0000000  0  7G11G07G08G24G26G28G17
  -1432408.53947  -1107171.49045  22078645.0474                   22078643.6994
   2712041.48447   2071492.02046  21171017.5084                   21171016.6564
  -7987353.69147  -6217220.16046  20119716.7664                   20119715.6844
  -9066601.60947  -7054692.27545  22049342.7194                   22049343.3244
  -7126070.24647  -5541481.55744  22858578.2974                   22858579.5234
  -5440036.51248  -4251521.85246  21821685.3594                   21821683.6134
 -16108713.78147 -12540963.47246  21719968.3444                   21719968.1764
 11  8 15 19 46  0.0000000  0  7G11G07G08G24G26G28G17
  -1416774.50847  -1094989.17745  22081619.6644                   22081618.6294
   2739905.26647   2093203.96846  21176320.0554                   21176319.0474
  -8017952.67647  -6241063.57346  20113894.0554                   20113892.8244
  -9099048.69547  -7079975.74845  22043168.4224                   22043168.5274
  -7161635.80947  -5569195.06044  22851810.7734                   22851811.5594
  -5495351.30148  -4294624.31046  21811159.2734                   21811157.5234
 -16198299.46547 -12610770.48246  21702920.6724                   21702920.2974
 11  8 15 19 46 30.0000000  0  7G11G07G08G24G26G28G17
  -1400628.88348  -1082408.19345  22084692.5704                   22084690.6764
   2768213.46947   2115262.25346  21181707.1644                   21181706.1024
  -8048010.25447  -6264485.10146  20108174.5474                   20108173.0664
  -9130948.15247  -7104832.45945  22037097.4454                   22037099.1094
  -7196618.27047  -5596454.17144  22845153.5784                   22845154.6054
  -5550650.18448  -4337714.36646  21800636.2584                   21800634.4574
 -16287532.16047 -12680302.43246  21685940.2344                   21685939.8634
 11  8 15 19 47  0.0000000  0  7G11G07G08G24G26G28G17
  -1383970.08248  -1069427.33245  22087862.4844                   22087861.4104
   2796968.62547   2137668.79746  21187179.0474                   21187178.2774
  -8077522.07447  -6287481.35446  20102558.5704                   20102557.3714
  -9162296.04747  -7129259.40645  22031132.5164                   22031133.4064
  -7231015.63747  -5623257.36844  22838607.8984                   22838609.0004
  -5605929.68048  -4380789.31146  21790116.8444                   21790115.4414
 -16376408.51647 -12749556.71146  21669027.6024                   21669027.4414
 11  8 15 19 47 30.0000000  0  7G11G07G08G24G26G28G17
  -1366803.14547  -1056050.56545  22091129.4304                   22091128.0044
   2826166.07448   2160419.99646  21192735.4534                   21192734.7384
  -8106490.91048  -6310054.50646  20097045.8984                   20097045.0124
  -9193095.24247  -7153258.79445  22025271.3054                   22025272.8094
  -7264831.84447  -5649607.73744  22832172.9614                   22832173.8244
  -5661193.34048  -4423851.91946  21779600.6094                   21779599.0084
 -16464931.58647 -12818535.70646  21652182.0234                   21652181.6804
 11  8 15 19 48  0.0000000  0  7G11G07G08G24G26G28G17
  -1349126.25848  -1042276.41445  22094493.0704                   22094491.6134
   2855808.25048   2183517.72446  21198376.0314                   21198375.4064
  -8134912.19147  -6332200.99046  20091637.4924                   20091636.4454
  -9223341.88347  -7176827.62545  22019515.9614                   22019516.6994
  -7298064.04746  -5675503.01744  22825848.5704                   22825850.0354
  -5716437.23448  -4466899.12546  21769087.9384                   21769086.6214
 -16553097.38347 -12887236.31046  21635404.7114                   21635404.4654
 11  8 15 19 48 30.0000000  0  7G11G07G08G24G26G28G17
  -1330941.25047  -1028106.30345  22097953.9924                   22097952.2034
   2885893.60247   2206960.78646  21204100.9144                   21204100.5314
  -8162784.58248  -6353919.78546  20086334.0004                   20086332.6134
  -9253035.94547  -7199965.86245  22013865.3594                   22013865.9064
  -7330713.53946  -5700944.23044  22819636.0164                   22819637.0474
  -5771661.71148  -4509931.20146  21758578.9694                   21758577.3834
 -16640906.03947 -12955658.62646  21618694.8914                   21618694.7584
 11  8 15 19 49  0.0000000  0  7G11G07G08G24G26G28G17
  -1312244.05147  -1013537.08745  22101511.7034                   22101510.5004
   2916426.63348   2230752.69146  21209911.3594                   21209910.5984
  -8190101.86348  -6375206.00046  20081135.0864                   20081134.2584
  -9282171.44547  -7222668.85945  22008321.5314                   22008321.8954
  -7362775.50847  -5725927.63744  22813534.8284                   22813535.7034
  -5826861.12548  -4552943.75446  21748074.8134                   21748073.5234
 -16728352.10547 -13023798.40146  21602055.0704                   21602054.3054
 11  8 15 19 49 30.0000000  0  7G11G07G08G24G26G28G17
  -1293039.11347   -998572.23945  22105165.8594                   22105165.4024
   2947403.65247   2254890.54946  21215806.2344                   21215805.7114
  -8216865.94948  -6396061.18546  20076042.3524                   20076040.9694
  -9310750.46147  -7244938.24045  22002882.4844                   22002883.4654
  -7394253.33646  -5750455.87544  22807545.0084                   22807545.9494
  -5882037.87948  -4595938.64446  21737575.6724                   21737573.5904
 -16815437.58247 -13091657.19446  21585482.7894                   21585482.7704
 11  8 15 19 50  0.0000000  0  7G11G07G08G24G26G28G17
  -1273324.97347   -983210.62545  22108917.7504                   22108916.8014
   2978826.55547   2279375.86046  21221785.7734                   21221785.0394
  -8243072.35548  -6416481.79046  20071055.2894                   20071054.4384
  -9338769.26647  -7266771.09845  21997551.0394                   21997551.7774
  -7425144.80547  -5774527.21644  22801666.5004                   22801667.0704
  -5937188.63747  -4638913.28546  21727080.6484                   21727078.9344
 -16902158.78947 -13159232.13046  21568980.5474                   21568980.1914
 11  8 15 19 50 30.0000000  0  7G11G07G08G24G26G28G17
  -1253105.57847   -967455.29945  22112765.6484                   22112764.4924
   3010692.30947   2304206.24246  21227849.5004                   21227849.1604
  -8268722.06647  -6436468.61546  20066174.7114                   20066173.6174
  -9366229.87947  -7288168.98845  21992325.2194                   21992325.6134
  -7455452.82847  -5798143.91944  22795899.2664                   22795899.4884
  -5992315.56647  -4681869.34946  21716590.3284                   21716588.7194
 -16988517.89547 -13226524.92446  21552547.0944                   21552546.7584
 11  8 15 19 51  0.0000000  0  7G11G07G08G24G26G28G17
  -1232382.93447   -951307.82645  22116708.7344                   22116707.6134
   3042999.44947   2329380.56246  21233997.5944                   21233997.0204
  -8293814.87147  -6456021.48046  20061399.6024                   20061398.4614
  -9393132.15247  -7309131.78445  21987206.3984                   21987206.5004
  -7485178.61747  -5821306.93144  22790243.1334                   22790243.1684
  -6047418.31647  -4724806.56946  21706105.0164                   21706102.8204
 -17074514.77347 -13293535.46346  21536181.8284                   21536181.6604
 11  8 15 19 51 30.0000000  0  7G11G07G08G24G26G28G17
  -1211159.60547   -934770.21745  22120747.7664                   22120746.6724
   3075745.50047   2354896.88746  21240229.4224                   21240228.1764
  -8318350.94147  -6475140.53346  20056730.4614                   20056729.5274
  -9419476.78547  -7329660.09045  21982192.8204                   21982193.2274
  -7514324.20747  -5844017.86444  22784696.3984                   22784697.2934
  -6102497.77347  -4767725.64246  21695623.6334                   21695621.5314
 -17160150.48847 -13360264.57546  21519885.9694                   21519885.8324
 11  8 15 19 52  0.0000000  0  7G11G07G08G24G26G28G17
  -1189432.69947   -917840.18745  22124882.0634                   22124880.4884
   3108933.91047   2380757.90246  21246544.7424                   21246543.9884
  -8342324.63348  -6493821.37146  20052168.8984                   20052167.6484
  -9445258.63347  -7349749.83045  21977286.7584                   21977286.9304
  -7542885.89847  -5866273.78344  22779262.0234                   22779262.6724
  -6157549.43747  -4810623.05246  21685147.4304                   21685145.3364
 -17245419.99647 -13426708.32746  21503659.9224                   21503659.8554
 11  8 15 19 52 30.0000000  0  7G11G07G08G24G26G28G17
  -1167201.47747   -900517.20545  22129112.5004                   22129111.6454
   3142566.06347   2406964.70046  21252944.7114                   21252944.2424
  -8365732.37547  -6512061.21246  20047714.1884                   20047713.1484
  -9470475.30947  -7369399.18845  21972488.2274                   21972488.6214
  -7570862.26647  -5888073.62244  22773937.9844                   22773939.2304
  -6212570.31647  -4853496.47346  21674676.8674                   21674675.3364
 -17330320.81247 -13492864.79246  21487504.0944                   21487503.4804
 11  8 15 19 53  0.0000000  0  7G11G07G08G24G26G28G17
  -1144469.82447   -882804.25745  22133438.0944                   22133437.2894
   3176639.17647   2433515.09646  21259428.6174                   21259428.0634
  -8388574.96947  -6529860.66346  20043367.4064                   20043366.3484
  -9495128.05947  -7388609.14345  21967796.4384                   21967797.4734
  -7598255.87547  -5909419.34244  22768725.4454                   22768726.3204
  -6267561.62547  -4896346.86646  21664212.8754                   21664210.8984
 -17414854.35247 -13558735.06046  21471417.6724                   21471417.4844
 11  8 15 19 53 30.0000000  0  7G11G07G08G24G26G28G17
  -1121237.34447   -864701.07145  22137859.5944                   22137858.5744
   3211153.60947   2460409.39846  21265996.8754                   21265996.3484
  -8410849.68048  -6547217.62446  20039128.6024                   20039127.5394
  -9519214.59047  -7407377.88045  21963213.2584                   21963214.0744
  -7625065.76647  -5930310.21944  22763623.6334                   22763624.5864
  -6322521.42247  -4939172.71346  21653753.9224                   21653752.4694
 -17499018.32047 -13624317.35246  21455401.7584                   21455401.4304
 11  8 15 19 54  0.0000000  0  7G11G07G08G24G26G28G17
  -1097500.28547   -846204.71145  22142376.0164                   22142375.1414
   3246114.08247   2487651.23946  21272649.5474                   21272648.8324
  -8432550.51648  -6564127.40546  20034999.1954                   20034998.4454
  -9542729.08647  -7425700.88845  21958738.5944                   21958739.2274
  -7651287.61746  -5950742.90144  22758633.6254                   22758634.6374
  -6377443.57447  -4981969.19946  21643303.1254                   21643301.5664
 -17582806.96947 -13689607.19946  21439457.1724                   21439456.9144
 11  8 15 19 54 30.0000000  0  7G11G07G08G24G26G28G17
  -1073267.96547   -827322.42545  22146987.7194                   22146986.6294
   3281511.76247   2515233.77746  21279385.1564                   21279384.5784
  -8453684.09048  -6580595.16646  20030977.6954                   20030976.5204
  -9565679.02347  -7443583.95645  21954371.3674                   21954372.0274
  -7676929.85547  -5970723.94645  22753754.4774                   22753755.2624
  -6432336.04347  -5024742.57246  21632857.2734                   21632855.7074
 -17666227.71947 -13754610.36046  21423582.9224                   21423582.6604
 11  8 15 19 55  0.0000000  0  7G11G07G08G24G26G28G17
  -1048544.21947   -808057.19645  22151692.6484                   22151690.8554
   3317342.76247   2543153.94946  21286203.5164                   21286203.0004
  -8474251.43748  -6596621.71046  20027063.8984                   20027062.8324
  -9588066.34447  -7461028.64245  21950111.2114                   21950111.7624
  -7701995.88747  -5990255.96944  22748984.0234                   22748985.8284
  -6487200.16847  -5067493.85246  21622417.3204                   21622415.5314
 -17749282.34447 -13819328.23846  21407778.2664                   21407777.7894
 11  8 15 19 55 30.0000000  0  7G11G07G08G24G26G28G17
  -1023324.67247   -788405.64945  22156491.5554                   22156490.6134
   3353612.66447   2571416.12346  21293105.9844                   21293105.3484
  -8494245.62147  -6612201.63346  20023259.2814                   20023258.2034
  -9609884.35247  -7478029.70245  21945959.3984                   21945960.2774
  -7726480.27347  -6009334.78544  22744325.3134                   22744326.3284
  -6542029.16047  -5110217.75946  21611983.0864                   21611981.4694
 -17831964.62147 -13883755.96846  21392044.1484                   21392043.9924
 11  8 15 19 56  0.0000000  0  7G11G07G08G24G26G28G17
   -997616.39147   -768373.27245  22161383.6414                   22161382.6254
   3390314.54747   2600014.91446  21300089.8754                   21300089.5864
  -8513671.21548  -6627338.50046  20019562.8364                   20019561.6844
  -9631138.16047  -7494591.12245  21941915.3984                   21941915.8284
  -7750389.42646  -6027965.34544  22739775.5004                   22739776.6484
  -6596828.12547  -5152918.26746  21601555.1954                   21601553.5314
 -17914279.84047 -13947897.67446  21376380.4614                   21376379.6914
 11  8 15 19 56 30.0000000  0  7G11G07G08G24G26G28G17
   -971417.97747   -747958.97945  22166369.0634                   22166368.4884
   3427450.54747   2628951.96346  21307156.7114                   21307156.4264
  -8532524.25448  -6642029.21646  20015974.8364                   20015973.9734
  -9651824.44547  -7510710.31945  21937978.8204                   21937979.1764
  -7773721.38747  -6046146.17844  22735335.2274                   22735336.2814
  -6651593.37148  -5195592.49746  21591133.7194                   21591132.0984
 -17996224.30547 -14011750.49846  21360786.2504                   21360786.0704
 11  8 15 19 57  0.0000000  0  7G11G07G08G24G26G28G17
   -944729.81647   -727163.03245  22171447.9924                   22171446.7194
   3465020.87147   2658227.46346  21314306.1884                   21314305.9924
  -8550802.33248  -6656271.91746  20012496.9454                   20012495.5514
  -9671941.58247  -7526386.03245  21934150.0234                   21934150.7894
  -7796475.58247  -6063876.78144  22731006.1724                   22731006.9264
  -6706322.92648  -5238238.91646  21580719.5164                   21580717.4574
 -18077796.01247 -14075312.85046  21345264.2424                   21345263.6334
 11  8 15 19 57 30.0000000  0  7G11G07G08G24G26G28G17
   -917559.74247   -705991.59745  22176618.0234                   22176616.6954
   3503018.25048   2687835.71046  21321537.1024                   21321536.9884
  -8568511.14548  -6670071.02546  20009126.9454                   20009126.0664
  -9691495.55547  -7541622.92245  21930429.5634                   21930430.4494
  -7818659.32847  -6081162.87844  22726784.3754                   22726785.2274
  -6761022.68748  -5280862.11246  21570310.0704                   21570308.3364
 -18159001.25847 -14138589.65146  21329811.5234                   21329810.7464
 11  8 15 19 58  0.0000000  0  7G11G07G08G24G26G28G17
   -889904.05147   -684441.75445  22181881.2504                   22181879.7344
   3541447.06347   2717780.16946  21328849.7034                   21328849.7034
  -8585643.91448  -6683421.27246  20005866.7194                   20005865.9344
  -9710480.66047  -7556416.51045  21926817.1884                   21926817.4224
  -7840268.15247  -6098000.99544  22722672.6174                   22722672.7704
  -6815686.26248  -5323457.12046  21559908.2274                   21559906.4414
 -18239834.29747 -14201576.40646  21314428.7814                   21314428.6024
 11  8 15 19 58 30.0000000  0  7G11G07G08G24G26G28G17
   -861761.13747   -662512.26645  22187236.5084                   22187235.8134
   3580309.20348   2748062.26146  21336245.0784                   21336244.8324
  -8602196.43748  -6696319.37546  20002716.7974                   20002715.9384
  -9728893.20747  -7570763.96245  21923312.9924                   21923313.7934
  -7861299.82447  -6114389.38644  22718670.7274                   22718671.4304
  -6870309.72348  -5366020.86446  21549513.4144                   21549511.7304
 -18320291.49247 -14264270.31546  21299118.5394                   21299118.0004
 11  8 15 19 59  0.0000000  0  7G11G07G08G24G26G28G17
   -833130.00447   -640202.33245  22192684.7344                   22192683.4774
   3619606.20348   2778683.19746  21343723.3834                   21343722.8984
  -8618165.76248  -6708763.05246  19999678.2814                   19999677.2854
  -9746730.41047  -7584663.10345  21919918.7504                   21919919.6374
  -7881752.69947  -6130326.76544  22714778.0004                   22714778.8714
  -6924890.04348  -5408550.99846  21539127.3594                   21539125.6914
 -18400369.83647 -14326669.00946  21283880.3754                   21283879.6604
 11  8 15 19 59 30.0000000  0  7G11G07G08G24G26G28G17
   -804022.33247   -617521.08645  22198223.8674                   22198222.5044
   3659327.14548   2809634.49346  21351282.0634                   21351281.4264
  -8633560.89848  -6720759.30046  19996748.7114                   19996747.5904
  -9764002.14147  -7598121.60145  21916632.2974                   21916632.8674
  -7901637.93447  -6145821.81344  22710994.3054                   22710994.7734
  -6979436.28548  -5451054.56346  21528747.6334                   21528746.1644
 -18480078.79748 -14388779.86746  21268712.0164                   21268711.3204
 11  8 15 20  0  0.0000000  0  7G11G07G08G24G26G28G17
   -774434.39147   -594465.58245  22203854.0864                   22203853.1374
   3699475.84848   2840919.10146  21358922.0784                   21358921.7234
  -8648375.94548  -6732303.54146  19993929.4924                   19993928.8714
  -9780702.94948  -7611135.26545  21913453.9844                   21913455.2584
  -7920951.52347  -6160871.43644  22707318.7894                   22707319.5164
  -7033942.78548  -5493527.18246  21518375.5084                   21518373.9694
 -18559413.03548 -14450598.74546  21253615.0944                   21253614.4344
 11  8 15 20  0 30.0000000  0  7G11G07G08G24G26G28G17
   -744373.79347   -571041.76545  22209574.2034                   22209573.6414
   3740045.76647   2872531.93146  21366642.3054                   21366642.1884
  -8662615.12547  -6743399.04146  19991219.7894                   19991218.7774
  -9796838.07047  -7623708.09245  21910383.2894                   21910384.4064
  -7939699.69547  -6175480.47544  22703751.0004                   22703751.8674
  -7088414.13348  -5535972.40846  21508009.7504                   21508008.2584
 -18638377.95748 -14512129.83746  21238588.7584                   21238588.2194
 11  8 15 20  1  0.0000000  0  7G11G07G08G24G26G28G17
   -713838.66847   -547248.19945  22215384.9454                   22215384.0514
   3781039.47748   2904474.97846  21374443.3914                   21374443.1334
  -8676274.40248  -6754042.67146  19988620.4614                   19988619.7894
  -9812403.68047  -7635837.17745  21907421.4534                   21907422.5744
  -7957880.03147  -6189647.03444  22700292.0474                   22700292.1954
  -7142846.07048  -5578386.92146  21497651.6094                   21497650.4184
 -18716969.28948 -14573369.82146  21223633.1334                   21223632.9414
 11  8 15 20  1 30.0000000  0  7G11G07G08G24G26G28G17
   -682835.86747   -523090.22245  22221285.0864                   22221283.6334
   3822450.26248   2936743.03946  21382323.8984                   21382323.5634
  -8689358.55548  -6764238.16546  19986130.6024                   19986129.8984
  -9827404.85247  -7647526.40245  21904566.9224                   21904567.6254
  -7975499.16447  -6203376.29344  22696939.6484                   22696939.3364
  -7197243.33648  -5620774.42546  21487300.3444                   21487298.4804
 -18795192.13348 -14634322.66946  21208748.2504                   21208747.4064
 11  8 15 20  2  0.0000000  0  7G11G07G08G24G26G28G17
   -651363.64147   -498566.44345  22227273.5944                   22227273.0704
   3864280.37948   2969337.84646  21390283.6954                   21390283.6604
  -8701863.30148  -6773982.14946  19983751.0784                   19983750.1564
  -9841838.07047  -7658773.11045  21901820.6644                   21901821.1764
  -7992554.59447  -6216666.27944  22693693.3054                   22693693.8364
  -7251601.37548  -5663131.33946  21476956.3594                   21476954.6564
 -18873043.02048 -14694985.68846  21193933.1724                   21193932.4574
 11  8 15 20  2 30.0000000  0  7G11G07G08G24G26G28G17
   -619420.76247   -473675.94244  22233351.9384                   22233351.0984
   3906531.84848   3002260.98746  21398323.8914                   21398323.9534
  -8713784.55547  -6783271.48146  19981482.4304                   19981481.7384
  -9855700.34847  -7669574.89445  21899182.7894                   21899183.4844
  -8009044.61347  -6229515.71944  22690555.7114                   22690555.9344
  -7305916.65248  -5705454.94146  21466620.4694                   21466619.0394
 -18950518.46948 -14755356.16346  21179190.2504                   21179189.6024
 11  8 15 20  3  0.0000000  0  7G11G07G08G24G26G28G17
   -587007.96147   -448419.26945  22239520.3524                   22239519.8914
   3949204.26248   3035512.11246  21406444.3754                   21406443.9414
  -8725120.84448  -6792105.00946  19979325.5944                   19979324.7664
  -9868990.46147  -7679930.87645  21896653.2194                   21896653.9654
  -8024969.18047  -6241924.56044  22687525.1024                   22687525.8134
  -7360187.38748  -5747743.83746  21456293.4064                   21456291.5354
 -19027617.03948 -14815432.95646  21164518.8054                   21164518.3524
 11  8 15 20  3 30.0000000  0  7G11G07G08G24G26G28G17
   -554117.50047   -422790.38145  22245779.0704                   22245778.3134
   3992306.00448   3069097.78646  21414646.3524                   21414646.2664
  -8735861.93048  -6800474.72346  19977281.4304                   19977280.5784
  -9881698.78147  -7689833.48645  21894235.3444                   21894236.0594
  -8040319.87147  -6253886.20744  22684604.2114                   22684605.2704
  -7414403.00448  -5789989.79046  21445976.6644                   21445974.6954
 -19104329.04348 -14875208.54046  21149920.9144                   21149920.7424
 11  8 15 20  4  0.0000000  0  7G11G07G08G24G26G28G17
   -520757.89847   -396795.94244  22252127.1254                   22252126.3674
   4035828.91848   3103011.66046  21422928.5474                   21422928.2154
  -8746014.32048  -6808385.72346  19975349.6644                   19975348.7734
  -9893832.03147  -7699287.99445  21891926.4384                   21891927.7074
  -8055105.11747  -6265407.24344  22681790.2974                   22681792.0664
  -7468569.57048  -5832197.52546  21435668.9614                   21435667.1254
 -19180661.06648 -14934688.02646  21135395.9064                   21135395.0784
 11  8 15 20  4 30.0000000  0  7G11G07G08G24G26G28G17
   -486924.96947   -370432.66845  22258565.7344                   22258564.8754
   4079777.88748   3137257.50846  21431291.4064                   21431291.7194
  -8755570.74648  -6815832.33646  19973531.1954                   19973530.5984
  -9905384.19947  -7708289.70945  21889727.7664                   21889728.8094
  -8069319.82047  -6276483.71744  22679085.8914                   22679086.9224
  -7522680.19548  -5874361.65746  21425371.6484                   21425370.2664
 -19256606.33248 -14993866.14246  21120943.8524                   21120942.8484
 11  8 15 20  5  0.0000000  0  7G11G07G08G24G26G28G17
   -452628.52347   -343708.19645  22265092.3444                   22265091.6414
   4124143.63748   3171828.11346  21439734.1804                   21439734.3984
  -8764538.98848  -6822820.62246  19971824.5394                   19971823.8484
  -9916363.43747  -7716844.99545  21887638.8984                   21887639.5084
  -8082973.61747  -6287123.09744  22676487.8914                   22676488.8874
  -7576742.37948  -5916488.04846  21415084.0634                   21415082.6334
 -19332173.78148 -15052749.86746  21106563.6414                   21106563.1914
 11  8 15 20  5 30.0000000  0  7G11G07G08G24G26G28G17
   1157546.75447    910973.76344  22571498.7894                   22571497.8484
   5744341.71548   4434320.03646  21748047.9924                   21748047.6094
  -7197500.11348  -5601751.41746  20270022.0864                   20270021.5984
  -8351351.39547  -6497355.11045  22185450.5944                   22185451.4844
  -6520648.68447  -5069727.11844  22973788.1954                   22973789.2114
  -6055335.01648  -4730975.83446  21704598.3364                   21704596.7234
 -17831941.93448 -13883738.02246  21392048.6804                   21392048.1764
 11  8 15 20  6  0.0000000  0  7G11G07G08G24G26G28G17
   1192759.22347    938412.00945  22578199.0084                   22578198.2894
   5789531.46948   4469532.71146  21756647.0634                   21756646.9774
  -7205295.95348  -5607826.14846  20268538.5944                   20268537.8054
  -8361190.57047  -6505022.04345  22183578.6254                   22183579.3284
  -6533189.54347  -5079499.29744  22971401.4774                   22971403.1174
  -6109302.98848  -4773028.82046  21694328.6414                   21694326.6804
 -17906757.27748 -13942035.69046  21377811.6644                   21377811.0744
 11  8 15 20  6 30.0000000  0  7G11G07G08G24G26G28G17
   1228419.48447    966199.17844  22584985.0704                   22584984.1604
   5835123.82848   4505059.11346  21765323.1804                   21765323.5204
  -7212512.45748  -5613449.44446  20267165.2894                   20267164.8164
  -8370467.19147  -6512250.61045  22181813.1024                   22181814.1024
  -6545183.60247  -5088845.37644  22969119.9924                   22969121.0554
  -6163229.94548  -4815049.84546  21684066.9694                   21684064.9454
 -17981203.83648 -14000045.99246  21363644.6484                   21363644.0474
 11  8 15 20  7  0.0000000  0  7G11G07G08G24G26G28G17
   1264526.90247    994334.77144  22591856.0634                   22591854.9264
   5881118.84848   4540899.28946  21774075.7034                   21774075.4654
  -7219147.21548  -5618619.42246  20265902.8444                   20265902.2154
  -8379180.06247  -6519039.88645  22180155.4924                   22180155.7814
  -6556630.68047  -5097765.24744  22966941.3674                   22966942.9774
  -6217113.68048  -4857037.19046  21673812.9224                   21673811.0664
 -18055280.31648 -14057767.91446  21349548.3914                   21349547.7854
 11  8 15 20  7 30.0000000  0  7G11G07G08G24G26G28G17
   1301078.33647   1022816.37944  22598811.7194                   22598811.1134
   5927513.62548   4577050.95946  21782904.7584                   21782904.6954
  -7225201.40648  -5623337.02946  20264750.8524                   20264750.2034
  -8387330.95747  -6525391.25545  22178603.9304                   22178604.9694
  -6567533.81647  -5106261.26645  22964867.1024                   22964868.0514
  -6270955.16448  -4898991.61746  21663567.2664                   21663565.4384
 -18128987.85248 -14115202.35346  21335522.0554                   21335521.6134
 11  8 15 20  8  0.0000000  0  7G11G07G08G24G26G28G17
   1338073.69547   1051643.84044  22605851.8364                   22605850.7384
   5974308.64548   4613514.51646  21791809.4534                   21791809.3054
  -7230672.77348  -5627600.47746  20263710.1094                   20263709.6294
  -8394917.66447  -6531303.00645  22177160.4384                   22177161.5084
  -6577892.37547  -5114332.93545  22962895.3594                   22962897.4064
  -6324751.35548  -4940910.73746  21653330.1564                   21653328.3674
 -18202324.34848 -14172347.67146  21321566.8914                   21321566.1994
 11  8 15 20  8 30.0000000  0  7G11G07G08G24G26G28G17
   1375505.91447   1080811.77645  22612974.7584                   22612973.6134
   6021497.39148   4650284.86246  21800789.0944                   21800789.3364
  -7235566.15648  -5631413.54046  20262778.8444                   20262778.0904
  -8401945.79347  -6536779.50545  22175823.1564                   22175823.5594
  -6587713.42647  -5121985.75944  22961027.0004                   22961028.8634
  -6378506.38348  -4982797.78346  21643101.0634                   21643099.1214
 -18275294.91848 -14229207.84446  21307680.8134                   21307680.5124
 11  8 15 20  9  0.0000000  0  8G11G07G08G24G04G26G28G17
   1413371.17247   1110317.10544  22620180.8984                   22620179.2234
   6069076.76248   4687359.58546  21809843.2344                   21809843.3444
  -7239883.22748  -5634777.54046  20261957.6024                   20261956.6764
  -8408417.49247  -6541822.39345  22174591.3364                   22174592.0474
   7723394.47356   6031552.82052  24689177.4304                   24689182.6954
  -6596999.72747  -5129221.91244  22959259.5004                   22959261.2464
  -6432221.49248  -5024653.73846  21632879.2894                   21632877.5704
 -18347901.21148 -14285784.18146  21293864.6644                   21293864.0204
 11  8 15 20  9 30.0000000  0  8G11G07G08G24G04G26G28G17
   1451660.20347   1140152.66244  22627466.5004                   22627465.7304
   6117037.93048   4724731.82846  21818970.4064                   21818970.2194
  -7243630.80548  -5637697.78146  20261244.1414                   20261243.2154
  -8414340.21547  -6546437.53245  22173464.7344                   22173465.3364
   7576903.67246   5917404.41743  24661300.4774                   24661307.2814
  -6605760.32847  -5136048.40444  22957592.8134                   22957594.2894
  -6485902.96948  -5066483.46946  21622664.1804                   21622662.0164
 -18420150.50848 -14342082.32846  21280115.8444                   21280115.3324
 11  8 15 20 10  0.0000000  0  8G11G07G08G24G04G26G28G17
   1490362.93847   1170310.58944  22634831.3054                   22634830.6214
   6165371.09847   4762393.92946  21828167.7734                   21828167.5434
  -7246816.96148  -5640180.54046  20260637.9844                   20260637.5354
  -8419722.46147  -6550631.52745  22172440.6484                   22172441.4264
   7430328.88346   5803190.54843  24633408.8284                   24633415.0474
  -6614005.16847  -5142473.03045  22956023.9064                   22956024.8594
  -6539558.12548  -5108292.70646  21612453.7424                   21612452.0594
 -18492051.14548 -14398108.79046  21266433.5554                   21266433.4534
 11  8 15 20 10 30.0000000  0  8G11G07G08G24G04G26G28G17
   1529479.00847   1200790.58344  22642274.9304                   22642274.0944
   6214076.54347   4800346.11646  21837435.8204                   21837436.5004
  -7249439.45347  -5642224.08646  20260138.5704                   20260138.1294
  -8424563.14147  -6554403.50845  22171519.1174                   22171520.4614
   7283674.44546   5688914.51843  24605500.0314                   24605507.0044
  -6621734.12547  -5148495.63044  22954552.5704                   22954554.0864
  -6593184.29748  -5150079.34646  21602249.0004                   21602247.3484
 -18563601.50848 -14453862.31646  21252818.2274                   21252817.8094
 11  8 15 20 11  0.0000000  0  8G11G07G08G24G04G26G28G17
   1569009.73847   1231593.70344  22649797.7034                   22649796.6764
   6263156.27748   4838589.96146  21846775.7584                   21846775.9064
  -7251494.95348  -5643825.81846  20259747.5164                   20259746.9534
  -8428859.00847  -6557750.95345  22170701.9694                   22170702.4574
   7136946.83246   5574581.63843  24577579.5864                   24577586.4494
  -6628945.02047  -5154114.57944  22953180.6564                   22953182.1644
  -6646777.26648  -5191840.12746  21592050.7344                   21592049.1604
 -18634797.97748 -14509340.07546  21239269.6564                   21239269.1524
 11  8 15 20 11 30.0000000  0  8G11G07G08G24G04G26G28G17
   1608955.03547   1262719.86244  22657399.1414                   22657397.8014
   6312610.78948   4877125.84546  21856186.9064                   21856186.7974
  -7252981.08648  -5644983.89546  20259464.8524                   20259464.5704
  -8432608.62147  -6560672.75245  22169988.1804                   22169989.1764
   6990150.63346   5460195.21043  24549644.8054                   24549651.3714
  -6635637.82047  -5159329.82544  22951906.7814                   22951908.9654
  -6700334.14548  -5233572.76946  21581859.0864                   21581857.4494
 -18705637.98448 -14564540.07546  21225789.2034                   21225788.9384
 11  8 15 20 12  0.0000000  0  8G11G07G08G24G04G26G28G17
   1649316.68447   1294170.43444  22665079.5084                   22665078.6374
   6362441.91448   4915955.18546  21865669.5704                   21865669.1604
  -7253893.77348  -5645695.12946  20259291.4454                   20259290.5984
  -8435808.55147  -6563166.22345  22169379.4224                   22169380.0044
   6843292.56346   5345760.56343  24521698.3054                   24521704.8054
  -6641810.58647  -5164139.84244  22950732.1884                   22950733.7384
  -6753850.53148  -5275273.85446  21571675.3054                   21571673.6254
 -18776118.83248 -14619460.20446  21212377.1414                   21212376.9614
 11  8 15 20 12 30.0000000  0  8G11G07G08G24G04G26G28G17
   1690092.36747   1325943.63844  22672838.6334                   22672838.4384
   6412647.85548   4955076.58946  21875223.4694                   21875223.4064
  -7254233.68048  -5645960.03546  20259226.8054                   20259225.9694
  -8438459.70347  -6565232.08545  22168874.4774                   22168875.4654
   6696374.86746   5231279.42343  24493741.0784                   24493747.3444
  -6647465.35547  -5168546.20144  22949656.4614                   22949657.3714
  -6807325.95348  -5316943.03246  21561499.4064                   21561497.6804
 -18846240.88748 -14674100.75846  21199033.3984                   21199032.8834
 11  8 15 20 13  0.0000000  0  8G11G07G08G24G04G26G28G17
   1731278.30147   1358036.51844  22680676.4224                   22680675.9224
   6463225.50448   4994487.62846  21884848.2894                   21884848.3204
  -7254002.25448  -5645779.76046  20259270.7814                   20259270.3834
  -8440564.05147  -6566871.86545  22168474.5784                   22168475.3444
   6549398.95747   5116752.99844  24465771.7814                   24465778.7704
  -6652605.34847  -5172551.48644  22948678.6414                   22948680.0744
  -6860760.91448  -5358580.67246  21551331.0004                   21551329.4964
 -18916005.51648 -14728462.78746  21185757.8594                   21185757.1914
 11  8 15 20 13 30.0000000  0  8G11G07G08G24G04G26G28G17
   1772876.69947   1390450.78944  22688593.0554                   22688591.9224
   6514177.55147   5034190.41246  21894543.8834                   21894544.4844
  -7253194.94948  -5645150.73546  20259424.2974                   20259423.6294
  -8442118.02047  -6568082.77245  22168178.8054                   22168179.4534
   6402372.21147   5002186.93643  24437793.8754                   24437800.0634
  -6657228.01247  -5176153.62944  22947798.8364                   22947799.8984
  -6914150.29748  -5400182.80446  21541171.2734                   21541169.9844
 -18985408.48448 -14782543.01946  21172550.8134                   21172550.0354
 11  8 15 20 14  0.0000000  0  8G11G07G08G24G04G26G28G17
   1814888.47747   1423187.19944  22696586.7974                   22696586.3634
   6565505.68847   5074186.26846  21904311.4614                   21904311.9534
  -7251808.64848  -5644070.54046  20259687.9384                   20259687.1804
  -8443118.66447  -6568862.51845  22167988.3594                   22167988.8954
   6255300.86746   4887586.04743  24409806.6024                   24409813.4844
  -6661331.83647  -5179351.47944  22947017.5554                   22947019.2854
  -6967489.73848  -5441746.02446  21531021.2974                   21531019.5904
 -19054446.60548 -14836338.94346  21159413.2504                   21159412.6604
 11  8 15 20 14 30.0000000  0  8G11G07G08G24G04G26G28G17
   1857315.72347   1456247.31744  22704660.2424                   22704659.4844
   6617211.93447   5114476.70146  21914150.8754                   21914151.2624
  -7249839.64848  -5642536.32046  20260062.9844                   20260062.3244
  -8443563.21947  -6569208.93145  22167903.4384                   22167904.7074
   6108191.19546   4772955.42143  24381812.5704                   24381819.4774
  -6664915.12147  -5182143.74544  22946336.2584                   22946337.6294
  -7020774.83248  -5483266.87646  21520881.5704                   21520880.0864
 -19123116.32448 -14889847.80146  21146345.6564                   21146345.1134
 11  8 15 20 15  0.0000000  0  8G11G07G08G24G04G26G28G17
   1900154.87147   1489628.42544  22712812.9304                   22712812.1884
   6669293.34048   5155059.51946  21924061.8204                   21924062.3014
  -7247289.16048  -5640548.98946  20260548.3054                   20260547.6054
  -8443453.25847  -6569123.30145  22167924.5314                   22167925.6994
   5961044.92646   4658296.20343  24353811.9144                   24353817.2154
  -6667980.75047  -5184532.59944  22945753.1804                   22945754.0124
  -7074005.78548  -5524745.55546  21510751.8594                   21510750.3404
 -19191418.99248 -14943070.65446  21133348.5164                   21133347.5274
 11  8 15 20 15 30.0000000  0  8G11G07G08G24G04G26G28G17
   1943406.36347   1523330.83944  22721043.6094                   22721042.8554
   6721750.96947   5195935.47646  21934044.4224                   21934044.9534
  -7244154.71948  -5638106.61746  20261144.8524                   20261144.4024
  -8442787.01247  -6568604.17845  22168051.7274                   22168052.3204
   5813867.49646   4543612.68443  24325804.4694                   24325810.2774
  -6670527.94147  -5186517.49244  22945268.3364                   22945269.7894
  -7127179.28548  -5566179.45146  21500633.3524                   21500631.9884
 -19259352.02048 -14996005.46546  21120421.1174                   21120420.4414
 11  8 15 20 16  0.0000000  0  8G11G07G08G24G04G26G28G17
   1987073.73847   1557357.31544  22729352.8364                   22729352.4144
   6774589.15648   5237107.96646  21944099.4224                   21944099.4774
  -7240430.40248  -5635204.60246  20261853.7584                   20261853.0984
  -8441558.89147  -6567647.23845  22168285.7274                   22168286.1254
   5666667.85545   4428911.93442  24297792.7274                   24297798.7194
  -6672552.69547  -5188095.30045  22944883.0004                   22944884.7704
  -7180288.13348  -5607562.98446  21490527.2814                   21490525.5474
 -19326909.80548 -15048647.87346  21107565.1414                   21107564.7934
 11  8 15 20 16 30.0000000  0  8G11G07G08G24G04G26G28G17
   2031159.72747   1591709.98044  22737742.5004                   22737741.7344
   6827810.79748   5278579.26646  21954226.9304                   21954227.7034
  -7236111.75048  -5631839.47546  20262675.6174                   20262674.6604
  -8439764.90247  -6566249.33545  22168626.3594                   22168627.6844
   5519453.53946   4314199.71542  24269778.0634                   24269784.5944
  -6674052.14847  -5189263.78144  22944597.6564                   22944599.6994
  -7233326.82048  -5648891.83246  21480434.1724                   21480432.6214
 -19394088.37148 -15100994.78646  21094781.5314                   21094780.6604
 11  8 15 20 17  0.0000000  0  8G11G07G08G24G04G26G28G17
   2075656.23047   1626382.52344  22746209.7504                   22746209.3054
   6881408.01647   5320343.17345  21964426.4844                   21964426.7974
  -7231204.64848  -5628015.81046  20263609.3594                   20263609.0354
  -8437411.93447  -6564415.89545  22169074.7274                   22169075.6094
   5372221.48846   4199473.62343  24241761.6024                   24241766.7344
  -6675034.38347  -5190029.23144  22944410.7894                   22944412.6024
  -7286300.25048  -5690169.85046  21470353.7504                   21470352.4694
 -19460893.09048 -15153050.39446  21082069.1174                   21082068.5434
 11  8 15 20 17 30.0000000  0  8G11G07G08G24G04G26G28G17
   2120566.16047   1661377.25244  22754755.3984                   22754755.2894
   6935384.07847   5362402.33445  21974697.8524                   21974698.3014
  -7225704.55148  -5623730.07246  20264655.8204                   20264655.2464
  -8434495.59847  -6562143.44845  22169629.5234                   22169630.0164
   5224979.35246   4084739.73343  24213741.8134                   24213747.5904
  -6675496.55147  -5190389.45144  22944322.3284                   22944324.9654
  -7339202.98848  -5731392.78146  21460286.7894                   21460285.0084
 -19527319.38748 -15204811.11946  21069428.6334                   21069427.7504
 11  8 15 20 18  0.0000000  0  8G11G07G08G24G04G26G28G17
   2165887.93447   1696692.84044  22763380.2894                   22763379.8444
   6989738.16847   5404756.05045  21985040.6724                   21985041.7624
  -7219610.60548  -5618981.59846  20265815.7734                   20265815.2034
  -8431015.93047  -6559432.06145  22170291.5234                   22170292.0784
   5077731.11346   3970001.06443  24185720.6954                   24185727.5704
  -6675439.39547  -5190344.98744  22944333.7114                   22944336.0234
  -7392032.99248  -5772559.01846  21450233.6174                   21450231.9694
 -19593367.03548 -15256276.80146  21056859.9844                   21056859.4734
 11  8 15 20 18 30.0000000  0  8G11G07G08G24G04G26G28G17
   2211609.45747   1732319.92544  22772080.9924                   22772080.2704
   7044458.74247   5447395.32546  21995454.3594                   21995454.4614
  -7212932.87148  -5613778.23146  20267086.5394                   20267086.1954
  -8426983.66847  -6556290.05745  22171059.0474                   22171059.6054
   4930469.79346   3855252.22743  24157698.0474                   24157704.6604
  -6674874.92647  -5189905.23744  22944440.6174                   22944443.2774
  -7444798.85248  -5813675.29546  21440192.5314                   21440190.9184
 -19659045.82048 -15307455.05346  21044361.7504                   21044361.2384
 11  8 15 20 19  0.0000000  0  8G11G07G08G24G04G26G28G17
   2257726.72347   1768255.40644  22780856.6024                   22780856.4024
   7099542.25047   5490317.40945  22005936.0704                   22005936.8754
  -7205673.80948  -5608121.85646  20268467.9064                   20268467.8244
  -8422401.17247  -6552719.31545  22171930.8444                   22171931.8524
   4783196.27046   3740493.80944  24129673.1334                   24129678.9734
  -6673806.71947  -5189072.94244  22944644.3754                   22944646.5164
  -7497501.71148  -5854742.46346  21430163.5004                   21430161.9614
 -19724357.98048 -15358347.64146  21031933.3284                   21031932.9264
 11  8 15 20 19 30.0000000  0  8G11G07G08G24G04G26G28G17
   2304232.89547   1804493.92044  22789706.8204                   22789705.8594
   7154982.21947   5533517.25645  22016485.9694                   22016486.7384
  -7197837.82448  -5602015.95146  20269959.1804                   20269958.4884
  -8417273.94147  -6548724.08445  22172906.8984                   22172907.6994
   4635909.20746   3625724.83444  24101645.1254                   24101650.8554
  -6672241.85947  -5187853.69244  22944942.4064                   22944944.4414
  -7550145.17248  -5895763.36346  21420145.7034                   21420144.1484
 -19789307.82848 -15408957.88846  21019573.8284                   21019573.0594
 11  8 15 20 20  0.0000000  0  8G11G07G08G24G04G26G28G17
   2351120.28547   1841029.53244  22798628.8594                   22798628.7234
   7210771.33247   5576989.17145  22027102.8524                   22027103.2774
  -7189430.75048  -5595465.02846  20271558.8524                   20271558.0514
  -8411608.21547  -6544309.24445  22173984.9534                   22173985.6764
   4488605.81347   3510943.14744  24073613.7974                   24073619.8634
  -6670187.34047  -5186252.84844  22945333.5784                   22945335.5634
  -7602733.68747  -5936741.43646  21410138.5864                   21410136.7504
 -19853901.76248 -15459290.80046  21007282.2114                   21007281.1764
 11  8 15 20 20 30.0000000  0  8G11G07G08G24G04G26G28G17
   2398388.96547   1877862.19444  22807623.6724                   22807623.2974
   7266910.03947   5620733.48745  22037785.8134                   22037786.1954
  -7180451.23048  -5588468.05746  20273267.5394                   20273267.1844
  -8405402.94947  -6539474.01045  22175165.4534                   22175166.3594
   4341291.22747   3396152.79643  24045580.5784                   24045586.6374
  -6667643.75047  -5184270.90744  22945817.8834                   22945819.7034
  -7655264.25047  -5977674.37146  21400142.6024                   21400140.7664
 -19918137.84448 -15509344.87946  20995058.3134                   20995057.3634
 11  8 15 20 21  0.0000000  0  8G11G07G08G24G04G26G28G17
   2446038.75047   1914991.84544  22816691.6094                   22816690.5984
   7323398.69547   5664750.48645  22048535.2194                   22048535.7854
  -7170897.14148  -5581023.36546  20275085.6094                   20275085.4964
  -8398656.74247  -6534217.23645  22176449.1644                   22176450.4884
   4193970.80547   3281357.84343  24017546.5164                   24017552.3554
  -6664610.56247  -5181907.47844  22946395.3524                   22946396.8554
  -7707733.45748  -6018559.47246  21390157.5864                   21390156.1684
 -19982013.82448 -15559118.34946  20982903.1564                   20982902.3054
 11  8 15 20 21 30.0000000  0  8G11G07G08G24G04G26G28G17
   2494063.94547   1952414.02544  22825830.4534                   22825829.7624
   7380232.13747   5709036.15545  22059350.5084                   22059351.0354
  -7160772.23848  -5573133.88146  20277012.3914                   20277012.2034
  -8391373.88347  -6528542.32145  22177835.2664                   22177836.0474
   4046643.81646   3166557.77643  23989510.9144                   23989516.6684
  -6661093.32047  -5179166.86944  22947064.5474                   22947066.0984
  -7760143.67248  -6059398.61546  21380184.4694                   21380182.9384
 -20045533.51648 -15608614.20246  20970815.4924                   20970814.6724
 11  8 15 20 22  0.0000000  0  8G11G07G08G24G04G26G28G17
   2542467.07047   1990130.66644  22835041.5784                   22835040.7074
   7437413.48047   5753592.91645  22070231.6334                   22070232.3444
  -7150072.03548  -5564796.12146  20279048.6954                   20279048.2304
  -8383550.46547  -6522446.18745  22179324.4224                   22179325.3444
   3899318.28546   3051758.77043  23961475.2584                   23961480.6804
  -6657089.29347  -5176046.92344  22947826.2034                   22947828.0784
  -7812489.10948  -6100187.28446  21370223.4144                   21370221.8834
 -20108692.67248 -15657829.12246  20958796.7034                   20958796.3364
 11  8 15 20 22 30.0000000  0  8G11G07G08G24G04G26G28G17
   2591239.05547   2028134.76544  22844322.5704                   22844322.0514
   7494933.54747   5798413.62645  22081177.3984                   22081178.0864
  -7138803.75048  -5556015.69446  20281193.0084                   20281192.5044
  -8375194.43747  -6515935.01645  22180914.1024                   22180914.8484
   3751990.09446   2936957.71943  23933440.9224                   23933445.1334
  -6652607.59847  -5172554.75144  22948679.3754                   22948681.3754
  -7864775.73448  -6140930.11946  21360273.6564                   21360271.8794
 -20171498.62148 -15706768.81546  20946845.4534                   20946844.6214
 11  8 15 20 23  0.0000000  0  8G11G07G08G24G04G26G28G17
   2640381.60547   2066427.59644  22853674.0394                   22853673.3794
   7552794.82047   5843500.18345  22092187.9534                   22092188.9344
  -7126964.21948  -5546790.14346  20283445.9224                   20283445.6134
  -8366302.63747  -6509006.38945  22182605.8204                   22182607.0664
   3604666.13346   2822160.03943  23905405.4534                   23905410.0204
  -6647646.30947  -5168688.88544  22949623.3754                   22949624.9304
  -7916998.37947  -6181623.10846  21350336.1724                   21350334.4384
 -20233947.31248 -15755430.12046  20934961.3914                   20934960.6024
 11  8 15 20 23 30.0000000  0  8G11G07G08G24G04G26G28G17
   2689888.48047   2105004.34244  22863095.0944                   22863094.0554
   7610991.33247   5888847.99145  22103262.9774                   22103263.5314
  -7114557.85948  -5537122.90646  20285807.1884                   20285806.7664
  -8356880.24647  -6501664.27245  22184399.1884                   22184399.9494
   3457345.35946   2707364.79143  23877370.2894                   23877375.2934
  -6642211.93047  -5164454.37844  22950657.6484                   22950659.0784
  -7969160.02748  -6222268.55946  21340409.8524                   21340408.6054
 -20296043.52348 -15803816.77346  20923145.0004                   20923144.2194
 11  8 15 20 24  0.0000000  0  8G11G07G08G24G04G26G28G17
   2739759.92247   2143865.14944  22872585.2274                   22872584.3364
   7669523.41047   5934457.27445  22114401.0004                   22114401.8954
  -7101582.55548  -5527012.33246  20288276.3284                   20288275.5784
  -8346926.00447  -6493907.76945  22186293.8594                   22186294.6484
   3310033.45346   2592576.45643  23849337.3204                   23849342.3484
  -6636303.91847  -5159850.82844  22951781.7894                   22951783.9144
  -8021257.39148  -6262863.91346  21330496.3364                   21330494.6054
 -20357784.65648 -15851926.72146  20911396.0944                   20911395.5084
 11  8 15 20 24 30.0000000  0  8G11G07G08G24G04G26G28G17
   2789997.32047   2183011.12444  22882145.0314                   22882144.1454
   7728393.52047   5980329.93645  22125603.4384                   22125604.9774
  -7088034.85548  -5516455.74546  20290854.2344                   20290854.1214
  -8336436.87947  -6485734.44845  22188289.6564                   22188290.4844
   3162737.40246   2477800.48043  23821307.7894                   23821313.5554
  -6629920.55147  -5154876.84844  22952996.0634                   22952998.6564
  -8073285.06248  -6303404.96146  21320596.0084                   21320594.0664
 -20419167.48848 -15899757.48446  20899715.2344                   20899714.6454
 11  8 15 20 25  0.0000000  0  8G11G07G08G24G04G26G28G17
   2840594.80947   2222437.69644  22891773.0634                   22891772.6844
   7787595.89547   6026461.51345  22136869.5554                   22136870.9804
  -7073919.51648  -5505456.82646  20293540.2584                   20293540.0204
  -8325417.54347  -6477147.97645  22190386.5474                   22190387.5824
   3015456.32047   2363036.13143  23793281.7894                   23793286.4614
  -6623067.78547  -5149537.13644  22954300.4534                   22954303.0274
  -8125245.75448  -6343893.80946  21310707.9844                   21310706.3244
 -20480196.04748 -15947312.18646  20888101.7974                   20888100.8834
 11  8 15 20 25 30.0000000  0  8G11G07G08G24G04G26G28G17
   2891551.64847   2262144.26944  22901469.9774                   22901470.0474
   7847130.22747   6072851.76245  22148198.6804                   22148199.9224
  -7059234.89548  -5494014.32646  20296334.7814                   20296334.5274
  -8313867.32447  -6468147.83945  22192584.7504                   22192585.0514
   2868194.95347   2248287.15743  23765258.3674                   23765264.2344
  -6615745.99647  -5143831.91944  22955694.0704                   22955696.8014
  -8177136.63748  -6384328.26746  21300833.4694                   21300831.7544
 -20540868.98048 -15994589.77946  20876556.1094                   20876555.3754
 11  8 15 20 26  0.0000000  0  8G11G07G08G24G04G26G28G17
   2942866.66847   2302129.96444  22911235.0474                   22911234.6054
   7906995.58647   6119499.93645  22159590.7274                   22159591.9494
  -7043981.03948  -5482128.26046  20299237.6884                   20299237.4574
  -8301786.82847  -6458734.49645  22194883.4224                   22194884.5904
   2720957.09447   2133556.47643  23737239.5784                   23737245.3754
  -6607956.95347  -5137762.62444  22957176.5164                   22957178.9064
  -8228956.07448  -6424707.05846  21290972.7274                   21290971.0314
 -20601185.96148 -16041590.01246  20865078.1414                   20865077.6334
 11  8 15 20 26 30.0000000  0  8G11G07G08G24G04G26G28G17
   2994531.73447   2342388.36944  22921066.7034                   22921066.6024
   7967184.35247   6166400.12845  22171044.6644                   22171045.4734
  -7028164.55948  -5469803.78246  20302247.2114                   20302247.1684
  -8289182.58247  -6448913.04645  22197281.8594                   22197283.1024
   2573740.00847   2018842.02444  23709225.7194                   23709230.3164
  -6599708.38747  -5131335.28744  22958746.1254                   22958748.4844
  -8280708.44548  -6465033.58846  21281124.4454                   21281122.7624
 -20661152.92248 -16088317.51546  20853667.1644                   20853666.1994
 11  8 15 20 27  0.0000000  0  8G11G07G08G24G04G26G28G17
   3046549.54747   2382921.74944  22930965.0004                   22930964.6484
   8027699.61347   6213554.74345  22182560.0314                   22182561.5474
  -7011780.83648  -5457037.31446  20305365.3914                   20305364.9774
  -8276050.69948  -6438680.44745  22199780.7034                   22199781.7854
   2426551.75847   1904150.04344  23681216.2894                   23681221.3284
  -6590997.60947  -5124547.74444  22960403.7194                   22960405.8134
  -8332387.48448  -6505302.98246  21271290.1884                   21271288.6374
 -20720765.42648 -16134768.80946  20842323.1724                   20842322.3634
 11  8 15 20 27 30.0000000  0  8G11G07G08G24G04G26G28G17
   3098913.23447   2423724.57944  22940929.3754                   22940928.9734
   8088534.94947   6260958.74445  22194136.9844                   22194137.9344
  -6994834.94548  -5443832.77546  20308589.8524                   20308589.7344
  -8262396.94947  -6428041.18645  22202378.9064                   22202380.0664
   2279390.92647   1789479.37044  23653212.8284                   23653217.6294
  -6581831.59447  -5117405.47644  22962148.4844                   22962150.5354
  -8383996.60948  -6545517.88546  21261469.2584                   21261467.4144
 -20780028.45348 -16180947.77746  20831045.4774                   20831044.6334
 11  8 15 20 28  0.0000000  0  8G11G07G08G24G04G26G28G17
   3151616.37547   2464791.87344  22950958.7424                   22950958.3594
   8149684.74647   6308607.78845  22205773.8524                   22205774.7194
  -6977331.48448  -5430193.78046  20311920.5084                   20311920.5394
  -8248226.54347  -6416999.33345  22205075.4304                   22205076.7114
   2132256.68046   1674829.47044  23625214.1414                   23625218.8014
  -6572216.53547  -5109913.29244  22963978.3054                   22963979.7854
  -8435538.82848  -6585680.66046  21251661.2424                   21251659.5474
 -20838946.29748 -16226857.78246  20819833.6884                   20819833.2154
 11  8 15 20 28 30.0000000  0  8G11G07G08G24G04G26G28G17
   3204658.23847   2506123.15744  22961052.9694                   22961052.3594
   8211147.50847   6356500.69945  22217469.3914                   22217470.5274
  -6959270.12148  -5416120.05546  20315357.6334                   20315357.4304
  -8233539.30947  -6405554.79045  22207870.3674                   22207871.8324
   1985152.92646   1560203.31344  23597221.1174                   23597225.7854
  -6562153.61347  -5102072.15544  22965892.9774                   22965894.4804
  -8487011.84848  -6625789.51146  21241866.0474                   21241864.9064
 -20897518.41848 -16272498.38846  20808688.2424                   20808687.7114
 11  8 15 20 29  0.0000000  0  8G11G07G08G24G04G26G28G17
   4833448.80147   3775310.53344  23271000.7814                   23271001.4344
   9848333.91847   7632230.22745  22529015.9144                   22529017.5824
  -5365237.60248  -4174016.84846  20618691.9924                   20618691.7344
  -6642922.57847  -5166113.20345  22510555.0164                   22510556.3244
   3413502.21946   2673202.94444  23869026.3984                   23869031.7154
  -4976230.91847  -3866288.30644  23267684.4454                   23267685.5314
  -6962998.24648  -5438246.45546  21531876.4304                   21531875.0784
 -19380328.71548 -15090272.63346  21097399.4844                   21097398.9184
 11  8 15 20 29 30.0000000  0  8G11G07G08G24G04G26G28G17
   4887154.37947   3817158.98544  23281220.8984                   23281220.6294
   9910411.32447   7680602.07045  22540828.8834                   22540830.0864
  -5346068.95348  -4159080.31046  20622339.8914                   20622339.8634
  -6627211.69947  -5153871.01045  22513544.4454                   22513545.7624
   3266463.12946   2558627.17344  23841045.1954                   23841050.4144
  -4965285.19147  -3857759.24844  23269767.0164                   23269769.1724
  -7014335.06648  -5478249.18046  21522107.5944                   21522105.9694
 -19438216.36748 -15135379.88046  21086383.8594                   21086383.4734
 11  8 15 20 30  0.0000000  0  8G11G07G08G24G04G26G28G17
   4941188.43447   3859263.39144  23291503.4224                   23291502.9804
   9972793.24647   7729211.22545  22552700.1724                   22552701.1684
  -5326347.78548  -4143713.22346  20626092.7664                   20626092.5944
  -6610990.75447  -5141231.32145  22516631.1024                   22516632.5394
   3119460.77746   2444080.06844  23813071.7814                   23813076.6844
  -4953901.70747  -3848889.09444  23271932.7114                   23271935.1484
  -7065601.94548  -5518197.40546  21512351.7194                   21512349.6564
 -19495762.32848 -15180220.88946  21075433.4144                   21075432.6024
 11  8 15 20 30 30.0000000  0  8G11G07G08G24G04G26G28G17
   4995548.04347   3901621.53244  23301847.1174                   23301847.2814
  10035476.86747   7778055.43445  22564628.2894                   22564629.6844
  -5306075.31248  -4127916.55146  20629950.3754                   20629950.0944
  -6594261.64547  -5128195.66945  22519814.3364                   22519815.7424
   2972497.73446   2329563.59043  23785106.0704                   23785110.1724
  -4942083.46947  -3839680.16344  23274182.3754                   23274184.2274
  -7116798.79748  -5558091.07246  21502608.9694                   21502607.1414
 -19552968.20748 -15224796.88446  21064547.5474                   21064546.8984
 11  8 15 20 31  0.0000000  0  8G11G07G08G24G04G26G28G17
   5050227.56347   3944228.87144  23312253.2344                   23312252.8984
  10098457.26647   7827130.92445  22576613.4304                   22576614.3834
  -5285255.42248  -4111693.32646  20633912.2814                   20633912.0554
  -6577028.73047  -5114767.49045  22523094.2664                   22523095.0784
   2825573.94946   2215077.67143  23757146.6484                   23757151.1564
  -4929835.88747  -3830136.65544  23276513.2034                   23276514.7274
  -7167926.98448  -5597931.21546  21492879.4454                   21492877.9654
 -19609837.12548 -15269110.30146  21053725.7034                   21053724.9414
 11  8 15 20 31 30.0000000  0  8G11G07G08G24G04G26G28G17
   5105226.20347   3987084.89644  23322718.5944                   23322718.2074
  10161733.39847   7876436.82845  22588654.4844                   22588655.8984
  -5263887.80548  -4095043.29546  20637978.4064                   20637978.3134
  -6559292.32047  -5100946.91645  22526469.0554                   22526470.5044
   2678693.62946   2100625.63743  23729196.0864                   23729200.9104
  -4917160.50047  -3820259.84844  23278925.0634                   23278927.3554
  -7218984.12148  -5637716.01246  21483163.8204                   21483161.9224
 -19666368.69548 -15313160.86546  21042967.8204                   21042967.5314
 11  8 15 20 32  0.0000000  0  8G11G07G08G24G04G26G28G17
   5160553.45347   4030196.99744  23333247.2504                   23333246.6524
  10225315.48447   7925981.13245  22600753.6334                   22600755.1994
  -5241961.74248  -4077958.11546  20642151.0704                   20642150.7344
  -6541041.57447  -5086725.59845  22529942.3444                   22529943.3754
   2531872.01646   1986219.38043  23701256.6954                   23701261.4384
  -4904047.42647  -3810041.96744  23281420.4774                   23281422.8094
  -7269957.25448  -5677435.34046  21473463.7974                   21473462.4064
 -19722551.47748 -15356939.63846  21032276.7424                   21032275.9734
 11  8 15 20 32 30.0000000  0  8G11G07G08G24G04G26G28G17
   5216199.29347   4073557.32444  23343836.3834                   23343836.4414
  10289193.78547   7975756.27145  22612909.6644                   22612911.3754
  -5219485.48448  -4060444.22246  20646428.1024                   20646427.7074
  -6522285.72747  -5072110.68645  22533511.0784                   22533512.3984
   2385104.32046   1871855.06243  23673327.5864                   23673332.1644
  -4890506.69147  -3799490.85844  23283997.6254                   23283999.8754
  -7320852.55148  -5717094.02546  21463779.0864                   21463777.1884
 -19778393.47348 -15400452.86346  21021650.3674                   21021649.8054
 11  8 15 20 33  0.0000000  0  8G11G07G08G24G04G26G28G17
   5272166.77347   4117168.31444  23354486.9924                   23354486.4454
  10353371.20747   8025764.47445  22625122.6254                   22625124.0984
  -5196455.18048  -4042498.58846  20650810.6174                   20650810.3634
  -6503021.05147  -5057099.25845  22537177.5004                   22537178.8444
   2238398.95747   1757539.37244  23645410.3204                   23645415.1174
  -4876535.88747  -3788604.61644  23286656.2504                   23286658.3284
  -7371663.93448  -5756687.32246  21454110.0164                   21454108.2304
 -19833890.12948 -15443696.99946  21011089.8524                   21011088.9924
 11  8 15 20 33 30.0000000  0  8G11G07G08G24G04G26G28G17
   5328461.09847   4161033.97044  23365199.3984                   23365199.0824
  10417854.13347   8076010.73045  22637393.3204                   22637394.9384
  -5172863.60248  -4024115.60746  20655300.0314                   20655300.0124
  -6483240.62147  -5041685.97045  22540941.3524                   22540942.7234
   2091766.82446   1643280.69443  23617506.9064                   23617511.7664
  -4862129.07047  -3777378.61544  23289397.7504                   23289399.9884
  -7422382.07048  -5796207.94846  21444458.7194                   21444457.1804
 -19889033.95348 -15486666.18846  21000595.8204                   21000595.5004
 11  8 15 20 34  0.0000000  0  8G11G07G08G24G04G26G28G17
   5385075.48046   4205149.01844  23375972.6484                   23375972.4614
  10482635.86347   8126489.82145  22649720.8204                   22649722.8954
  -5148716.20348  -4005299.53146  20659895.2664                   20659895.0394
  -6462950.52747  -5025875.57345  22544802.2974                   22544803.8134
   1945206.76647   1529078.22144  23589617.5784                   23589622.1094
  -4847293.69147  -3765818.65844  23292220.9304                   23292223.2114
  -7473009.92248  -5835658.24046  21434824.5554                   21434822.9774
 -19943830.13348 -15529364.49846  20990168.8364                   20990168.0234
 11  8 15 20 34 30.0000000  0  8G11G07G08G24G04G26G28G17
   5442010.65246   4249514.02544  23386807.2274                   23386807.0314
  10547717.01247   8177202.21145  22662105.6564                   22662107.4574
  -5124011.30948  -3986049.02546  20664596.3674                   20664596.4064
  -6442149.29747  -5009666.84045  22548761.0314                   22548762.6524
   1798724.69947   1414936.51444  23561742.6024                   23561746.8444
  -4832029.44947  -3753924.53944  23295125.5004                   23295127.3874
  -7523543.61348  -5875035.15246  21425208.1024                   21425206.4774
 -19998276.19548 -15571789.98146  20979808.0864                   20979807.4304
 11  8 15 20 35  0.0000000  0  8G11G07G08G24G04G26G28G17
   5499262.17646   4294125.54043  23397701.1564                   23397701.6884
  10613093.95347   8228145.10345  22674546.8674                   22674548.5274
  -5098751.63748  -3966366.23646  20669402.8834                   20669403.3404
  -6420840.15647  -4993062.36345  22552815.9694                   22552817.3914
   1652321.84447   1300856.51944  23533883.5084                   23533887.9064
  -4816340.42247  -3741699.40944  23298110.6564                   23298113.0354
  -7573983.69548  -5914339.12546  21415609.6954                   21415608.0004
 -20052374.59848 -15613944.56146  20969513.4534                   20969512.5434
 11  8 15 20 35 30.0000000  0  8G11G07G08G24G04G26G28G17
   5556827.55946   4338981.63643  23408655.8594                   23408655.8324
  10678763.96547   8279316.39245  22687043.5164                   22687045.1564
  -5072938.73448  -3946252.35146  20674315.3674                   20674315.4344
  -6399025.14847  -4976063.68745  22556967.1254                   22556967.9654
   1506000.75047   1186840.26644  23506038.7344                   23506044.2194
  -4800229.62947  -3729145.65244  23301176.8204                   23301179.2854
  -7624329.12148  -5953569.33046  21406029.6094                   21406027.8794
 -20106126.58648 -15655829.20646  20959284.3834                   20959283.9534
 11  8 15 20 36  0.0000000  0  8G11G07G08G24G04G26G28G17
   5614705.77746   4384081.53343  23419669.4844                   23419669.2504
  10744726.63347   8330715.65745  22699595.6254                   22699597.4924
  -5046571.89848  -3925706.84246  20679332.9144                   20679332.8794
  -6376704.11347  -4958670.65945  22561214.6884                   22561216.0394
   1359766.26246   1072891.47644  23478211.0554                   23478216.2584
  -4783698.07447  -3716264.00044  23304322.8914                   23304325.0164
  -7674577.14148  -5992723.66146  21396467.5084                   21396465.9104
 -20159531.05548 -15697443.07446  20949122.2664                   20949121.4614
 11  8 15 20 36 30.0000000  0  8G11G07G08G24G04G26G28G17
   5672892.35946   4429421.70144  23430742.4844                   23430742.7854
  10810977.89547   8382339.83645  22712203.2344                   22712204.7304
  -5019654.90248  -3904732.63846  20684455.0394                   20684454.8324
  -6353880.75447  -4940886.26545  22565558.1024                   22565559.4304
   1213619.32446    959010.94444  23450400.1414                   23450404.8874
  -4766750.39547  -3703058.08944  23307547.4304                   23307549.9804
  -7724729.18448  -6031803.18146  21386923.8054                   21386922.4534
 -20212590.43748 -15738788.02846  20939025.2424                   20939024.8554
 11  8 15 20 37  0.0000000  0  8G11G07G08G24G04G26G28G17
   5731384.58246   4475000.00144  23441873.0004                   23441872.5124
  10877514.85247   8434186.64345  22724864.6254                   22724866.8484
  -4992189.26248  -3883330.89546  20689681.8594                   20689681.3014
  -6330557.44547  -4922712.31745  22569996.4774                   22569997.7974
   1067562.45346    845200.54244  23422606.5004                   23422611.3594
  -4749389.89547  -3689530.56544  23310851.2664                   23310854.0274
  -7774783.85548  -6070806.83746  21377398.5944                   21377397.1564
 -20265306.40248 -15779865.39946  20928993.8834                   20928993.0314
 11  8 15 20 37 30.0000000  0  8G11G07G08G24G04G26G28G17
   5790184.57046   4520818.11844  23453062.3054                   23453062.0354
  10944340.37947   8486258.31945  22737580.9774                   22737583.2544
  -4964170.72348  -3861498.32946  20695013.2664                   20695013.3364
  -6306730.29747  -4904145.76245  22574530.6954                   22574531.9574
    921603.81647    731466.73944  23394831.1414                   23394835.9694
  -4731614.04747  -3675679.32144  23314234.2664                   23314237.1644
  -7824734.92648  -6109729.76346  21367893.1644                   21367891.6844
 -20317674.21548 -15820671.45946  20919028.5394                   20919027.8164
 11  8 15 20 38  0.0000000  0  8G11G07G08G24G04G26G28G17
   5849290.49246   4566874.64044  23464309.7424                   23464309.9774
  11011452.85247   8538553.54545  22750352.1484                   22750354.6804
  -4935600.44548  -3839235.85046  20700450.3364                   20700450.2114
  -6282400.73447  -4885187.67245  22579160.5234                   22579161.9104
    775746.90247    617812.18044  23367076.4224                   23367080.0514
  -4713425.04747  -3661506.16944  23317695.6334                   23317698.5514
  -7874580.92248  -6148570.80946  21358407.8364                   21358406.3674
 -20369694.41848 -15861206.66146  20909129.4694                   20909128.6054
 11  8 15 20 38 30.0000000  0  8G11G07G08G24G04G26G28G17
   5908702.54746   4613169.74243  23475616.1334                   23475615.6414
  11078852.44547   8591072.50145  22763178.3594                   22763180.8674
  -4906477.38348  -3816542.62746  20705992.2734                   20705992.5044
  -6257568.03947  -4865837.59645  22583885.6334                   22583887.0704
    629997.30547    504241.23444  23339340.4614                   23339344.5274
  -4694823.41047  -3647011.49144  23321235.5864                   23321238.3984
  -7924318.07048  -6187327.05246  21348943.5634                   21348941.7544
 -20421365.33648 -15901469.69846  20899296.8914                   20899296.1214
 11  8 15 20 39  0.0000000  0  8G11G07G08G24G04G26G28G17
   5968407.93446   4659693.40344  23486977.6724                   23486976.8444
  11146526.70347   8643805.52545  22776056.6724                   22776058.7664
  -4876812.88348  -3793427.50546  20711637.1094                   20711637.3634
  -6232243.69547  -4846104.35445  22588705.3134                   22588706.0044
    484347.69147    390748.17944  23311623.6414                   23311628.2034
  -4675821.66447  -3632205.04944  23324851.2114                   23324854.1484
  -7973955.24248  -6226005.37946  21339497.3134                   21339496.0164
 -20472697.51248 -15941468.77246  20889528.6094                   20889527.6844
 11  8 15 20 39 30.0000000  0  8G11G07G08G24G04G26G28G17
   6028406.87546   4706445.79144  23498394.5864                   23498394.8054
  11214476.24647   8696753.02445  22788987.2274                   22788989.3634
  -4846605.64848  -3769889.46746  20717385.5474                   20717385.8714
  -6206427.09847  -4825987.55745  22593617.7114                   22593618.8794
    338803.82047    277337.54244  23283928.1484                   23283931.9774
  -4656420.18747  -3617087.10044  23328543.4614                   23328546.2504
  -8023488.81247  -6264602.97546  21330071.8444                   21330070.3364
 -20523689.25847 -15981202.58646  20879825.2974                   20879824.3954
 11  8 15 20 40  0.0000000  0  8G11G07G08G24G04G26G28G17
   6088692.74646   4753421.75144  23509866.5314                   23509866.7814
  11282694.50047   8749909.90945  22801968.4454                   22801970.9734
  -4815860.83648  -3745932.54746  20723235.9614                   20723236.4104
  -6180123.94147  -4805491.61945  22598623.0554                   22598624.4774
    193364.55947    164008.40644  23256252.0704                   23256255.3054
  -4636625.77747  -3601662.99444  23332309.9614                   23332312.4694
  -8072921.39548  -6303121.88346  21320665.1724                   21320663.5824
 -20574345.24248 -16020674.76446  20870185.6884                   20870184.8484
 11  8 15 20 40 30.0000000  0  8G11G07G08G24G04G26G28G17
   6149267.72346   4800623.01244  23521394.0234                   23521393.7894
  11351184.12547   8803278.25245  22815002.2894                   22815004.3634
  -4784575.62948  -3721554.52246  20729189.5314                   20729189.4734
  -6153331.27347  -4784614.26145  22603721.5394                   22603722.9654
     48037.71547     50766.86044  23228596.5944                   23228600.7544
  -4616436.35547  -3585931.08744  23336152.1094                   23336154.6214
  -8122247.21148  -6341557.59546  21311278.5944                   21311277.1994
 -20624661.82448 -16059882.47546  20860610.5864                   20860609.8714
 11  8 15 20 41  0.0000000  0  8G11G07G08G24G04G26G28G17
   6210128.69546   4848047.09344  23532975.5004                   23532975.3984
  11419941.66847   8856855.34845  22828086.3284                   22828088.5004
  -4752751.99248  -3696756.96846  20735245.4064                   20735245.5664
  -6126051.52347  -4763357.33944  22608913.0784                   22608914.4734
    -97174.39147    -62385.30444  23200964.3524                   23200967.5824
  -4595855.43447  -3569894.09344  23340068.5164                   23340070.8594
  -8171465.56248  -6379909.56046  21301912.7274                   21301911.1294
 -20674640.51248 -16098826.89346  20851100.0234                   20851099.3364
 11  8 15 20 41 30.0000000  0  8G11G07G08G24G04G26G28G17
   6271266.62147   4895686.98744  23544609.7274                   23544609.7234
  11488959.23847   8910635.07045  22841219.9844                   22841222.8244
  -4720397.50848  -3671545.73846  20741402.2114                   20741402.4804
  -6098292.87147  -4741727.26045  22614194.9924                   22614196.1564
   -242274.96547   -175450.53444  23173351.8364                   23173356.0314
  -4574892.28147  -3553559.25644  23344057.6254                   23344060.7304
  -8220581.31248  -6418181.58546  21292566.2344                   21292565.0084
 -20724288.28148 -16137513.45146  20841652.2814                   20841651.4844
 11  8 15 20 42  0.0000000  0  8G11G07G08G24G04G26G28G17
   6332675.78946   4943538.23844  23556295.1954                   23556295.2704
  11558230.83647   8964612.73345  22854402.5084                   22854404.7034
  -4687517.50448  -3645925.03346  20747658.9384                   20747659.5044
  -6070060.52747  -4719728.06245  22619567.8054                   22619568.5044
   -387264.69547   -288429.35144  23145760.8054                   23145765.0474
  -4553553.12147  -3536931.42944  23348119.2814                   23348121.5664
  -8269597.17248  -6456375.76746  21283239.1414                   21283237.7384
 -20773609.64548 -16175945.65246  20832266.6884                   20832265.8524
 11  8 15 20 42 30.0000000  0  8G11G07G08G24G04G26G28G17
   6394356.44146   4991601.05044  23568033.2034                   23568032.3834
  11627756.89847   9018788.67645  22867633.3444                   22867635.3014
  -4654110.89548  -3619893.97046  20754016.1094                   20754016.4654
  -6041353.57847  -4697359.02445  22625030.2974                   22625031.7344
   -532137.61747   -401317.24644  23118192.5944                   23118197.0944
  -4531837.75847  -3520010.45644  23352251.0784                   23352253.5434
  -8318508.71948  -6494488.67646  21273931.2664                   21273930.0124
 -20822602.41848 -16214121.82346  20822944.0474                   20822942.8984
 11  8 15 20 43  0.0000000  0  8G11G07G08G24G04G26G28G17
   6456306.91046   5039874.13743  23579821.9064                   23579821.9654
  11697535.88347   9073161.70545  22880911.2734                   22880913.9104
  -4620177.92248  -3593452.75946  20760473.7114                   20760473.5744
  -6012173.09847  -4674621.02044  22630582.8364                   22630584.3524
   -676889.74647   -514110.93744  23090647.1564                   23090650.8914
  -4509748.56647  -3502798.21944  23356454.6954                   23356457.2664
  -8367314.16048  -6532518.89946  21264643.8984                   21264642.4884
 -20871266.82848 -16252042.12746  20813683.1954                   20813682.4454
 11  8 15 20 43 30.0000000  0  8G11G07G08G24G04G26G28G17
   6518521.36346   5088352.91043  23591660.8054                   23591660.9694
  11767562.19147   9127727.45245  22894236.9774                   22894239.3134
  -4585723.27748  -3566605.06146  20767029.9384                   20767030.3364
  -5982524.17247  -4651518.00644  22636225.4064                   22636226.4304
   -821521.37147   -626810.74144  23063124.1414                   23063128.5164
  -4487291.44147  -3485299.23844  23360728.4924                   23360730.9494
  -8416015.53548  -6570468.03346  21255376.4304                   21255375.1134
 -20919606.95748 -16289709.74746  20804484.0164                   20804483.2584
 11  8 15 20 44  0.0000000  0  8G11G07G08G24G04G26G28G17
   6580994.32446   5137033.10543  23603548.9064                   23603549.0274
  11837830.84447   9182482.03945  22907608.5944                   22907611.1414
  -4550751.56248  -3539354.44946  20773685.0474                   20773685.7074
  -5952411.85247  -4628053.87245  22641955.3914                   22641956.5314
   -966032.50047   -739416.65544  23035624.7664                   23035628.6804
  -4464472.38347  -3467518.23344  23365070.0944                   23365073.4344
  -8464614.28548  -6608337.19146  21246128.4454                   21246126.8674
 -20967626.50448 -16327127.56046  20795346.6724                   20795345.9414
 11  8 15 20 44 30.0000000  0  8G11G07G08G24G04G26G28G17
   6643723.64846   5185913.06243  23615485.7344                   23615486.1374
  11908339.82447   9237423.90744  22921026.2504                   22921028.6484
  -4515264.09048  -3511701.92446  20780438.2194                   20780438.7384
  -5921837.07447  -4604229.39144  22647773.5314                   22647774.7304
  -1110419.33647   -851925.70244  23008148.3834                   23008152.9574
  -4441293.55547  -3449456.94144  23369481.0704                   23369484.5354
  -8513108.59848  -6646124.97346  21236900.1884                   21236898.4654
 -21015325.60248 -16364295.66246  20786269.6414                   20786269.0824
 11  8 15 20 45  0.0000000  0  8G11G07G08G24G04G26G28G17
   6706704.19146   5234988.79743  23627471.0864                   23627470.0904
  11979084.14547   9292549.14444  22934488.8134                   22934491.5634
  -4479265.14148  -3483650.86746  20787288.1644                   20787288.6254
  -5890804.59447  -4580048.26645  22653679.1724                   22653680.4304
  -1254681.86747   -964337.94044  22980696.7584                   22980700.1294
  -4417760.50847  -3431119.58444  23373959.1564                   23373962.7464
  -8561500.00848  -6683832.55946  21227691.8674                   21227690.0634
 -21062708.21548 -16401217.17046  20777253.1644                   20777252.2934
 11  8 15 20 45 30.0000000  0  8G11G07G08G24G04G26G28G17
   6769939.43046   5284263.00243  23639504.1414                   23639503.9024
  12050067.40246   9347860.55845  22947996.9064                   22947999.1644
  -4442750.44148  -3455197.93646  20794236.7894                   20794237.1564
  -5859310.73047  -4555507.63545  22659672.1884                   22659673.8284
  -1398811.00447  -1076646.19644  22953269.6484                   22953273.5474
  -4393870.39847  -3412504.07444  23378505.6334                   23378508.5944
  -8609781.24647  -6721454.30246  21218504.0234                   21218503.0944
 -21109769.30547 -16437888.12646  20768297.5634                   20768296.6724
 11  8 15 20 46  0.0000000  0  8G11G07G08G24G04G26G28G17
   6833429.68046   5333735.90643  23651585.7114                   23651585.5084
  12121290.19147   9403358.59944  22961549.8054                   22961552.5514
  -4405718.83648  -3426342.20646  20801284.2194                   20801284.6914
  -5827354.42247  -4530606.64645  22665753.3674                   22665754.5784
  -1542800.87147  -1188845.93944  22925868.9694                   22925872.9694
  -4369623.10247  -3393610.17744  23383120.1254                   23383122.5084
  -8657948.17647  -6758986.96946  21209338.2814                   21209336.7344
 -21156506.81648 -16474306.95446  20759403.9064                   20759402.7664
 11  8 15 20 46 30.0000000  0  8G11G07G08G24G04G26G28G17
   6897164.79746   5383399.58743  23663714.4534                   23663714.4384
  12192742.34847   9459035.40645  22975146.9144                   22975149.6604
  -4368179.74248  -3397091.04646  20808427.6954                   20808428.1174
  -5794945.33647  -4505352.85244  22671920.7584                   22671922.4454
  -1686656.08647  -1300940.77344  22898494.5634                   22898497.9304
  -4345029.28547  -3374446.26944  23387800.0474                   23387802.8914
  -8706007.12548  -6796435.50246  21200192.9224                   21200191.7464
 -21202929.09448 -16510480.14946  20750569.8984                   20750569.2074
 11  8 15 20 47  0.0000000  0  8G11G07G08G24G04G26G28G17
   6961146.00046   5433255.05943  23675889.5784                   23675889.8244
  12264425.26647   9514891.97745  22988788.3914                   22988791.0664
  -4330130.64848  -3367442.46546  20815667.9534                   20815668.6844
  -5762081.53147  -4479744.70644  22678174.7974                   22678175.4614
  -1830369.71547  -1412925.25044  22871146.3524                   22871149.6884
  -4320088.15646  -3355011.71144  23392545.9774                   23392548.8954
  -8753952.93048  -6833795.87446  21191068.9844                   21191067.7624
 -21249033.39548 -16546405.56046  20741796.5164                   20741795.5124
 11  8 15 20 47 30.0000000  0  8G11G07G08G24G04G26G28G17
   7025366.19546   5483296.72443  23688110.2814                   23688109.9144
  12336332.13747   9570923.10045  23002471.8204                   23002474.8204
  -4291577.99248  -3337401.52746  20823004.7974                   20823004.8954
  -5728769.65247  -4453787.39644  22684513.0704                   22684514.6174
  -1973943.38347  -1524800.73044  22843824.6254                   22843828.5354
  -4294807.11347  -3335312.29844  23397357.5164                   23397360.0634
  -8801789.37148  -6871071.02146  21181966.0394                   21181964.6214
 -21294825.35248 -16582087.59946  20733082.6174                   20733081.7664
 11  8 15 20 48  0.0000000  0  8G11G07G08G24G04G26G28G17
   7089828.10546   5533526.78543  23700377.0784                   23700376.6524
  12408465.80147   9627130.91745  23016198.1484                   23016201.5394
  -4252518.72348  -3306965.80046  20830437.3524                   20830437.6884
  -5695006.36747  -4427478.37744  22690938.6334                   22690939.6454
  -2117368.86747  -1636560.68344  22816531.9064                   22816535.1604
  -4269184.20347  -3315346.46044  23402233.3444                   23402235.5314
  -8849509.49648  -6908255.51246  21172885.1884                   21172883.6134
 -21340300.75848 -16617522.95946  20724428.8444                   20724428.0354
 11  8 15 20 48 30.0000000  0  8G11G07G08G24G04G26G28G17
   7154528.18046   5583942.37843  23712689.0474                   23712688.7894
  12480822.80947   9683512.78845  23029967.2734                   23029971.1604
  -4212955.29748  -3276137.24046  20837966.2114                   20837966.4414
  -5660794.94947  -4400820.16044  22697448.1954                   22697449.7464
  -2260644.04747  -1748203.54044  22789267.5944                   22789270.8134
  -4243222.98847  -3295117.03144  23407173.5234                   23407176.3714
  -8897112.89548  -6945349.07146  21163826.6954                   21163825.1374
 -21385461.32048 -16652712.99646  20715835.2504                   20715834.2384
 11  8 15 20 49  0.0000000  0  8G11G07G08G24G04G26G28G17
   7219457.74246   5634536.83943  23725044.8984                   23725044.8164
  12553394.65247   9740062.06645  23043778.0554                   23043781.1954
  -4172895.53948  -3244921.91946  20845589.3754                   20845589.6524
  -5626143.34047  -4373818.93344  22704042.3444                   22704043.9844
  -2403772.13747  -1859731.76244  22762030.7034                   22762034.8404
  -4216932.73047  -3274631.24344  23412175.9774                   23412179.1604
  -8944604.56648  -6982355.56546  21154789.2814                   21154787.6294
 -21430314.20748 -16687663.28646  20707300.0234                   20707299.1374
 11  8 15 20 49 30.0000000  0  8G11G07G08G24G04G26G28G17
   7284614.22746   5685308.13243  23737443.3524                   23737443.5354
  12626178.89847   9796776.78745  23057628.4064                   23057631.7814
  -4132341.69947  -3213321.59246  20853306.1094                   20853306.8954
  -5591053.86747  -4346476.53044  22710719.6174                   22710721.5514
  -2546750.16047  -1971143.04344  22734822.3674                   22734826.6994
  -4190316.49646  -3253891.40344  23417241.1094                   23417243.6604
  -8991983.24648  -7019274.01146  21145773.2664                   21145772.0124
 -21474860.36348 -16722374.55546  20698823.0784                   20698822.1174
 11  8 15 20 50  0.0000000  0  8G11G07G08G24G04G26G28G17
   7349995.93846   5736254.85543  23749884.9694                   23749885.9344
  12699174.18847   9853656.00144  23071518.9774                   23071522.2894
  -4091294.22748  -3181336.62746  20861117.4614                   20861117.9694
  -5555527.49647  -4318793.65644  22717480.3984                   22717481.7544
  -2689574.03547  -2082434.21944  22707644.3444                   22707648.0434
  -4163376.07446  -3232898.95844  23422367.7424                   23422370.9614
  -9039246.74248  -7056102.69846  21136779.4534                   21136778.0554
 -21519099.96948 -16756846.95746  20690404.3754                   20690403.8054
 11  8 15 20 50 30.0000000  0  8G11G07G08G24G04G26G28G17
   7415604.87146   5787378.70343  23762369.8674                   23762370.0204
  12772382.29347   9910701.05644  23085450.3444                   23085453.2304
  -4049751.09847  -3148965.44246  20869022.7114                   20869023.4804
  -5519562.09447  -4290768.68444  22724324.4304                   22724325.3014
  -2832236.49647  -2193599.64244  22680496.6254                   22680500.2624
  -4136110.46146  -3211653.15344  23427556.6724                   23427559.8594
  -9086389.20348  -7092837.08046  21127808.3054                   21127807.2424
 -21563029.77348 -16791077.96346  20682044.7424                   20682044.1724
 11  8 15 20 51  0.0000000  0  8G11G07G08G24G04G26G28G17
   7481432.64546   5838673.04043  23774897.6254                   23774896.5164
  12845795.26246   9967905.72344  23099419.9844                   23099423.2774
  -4007719.77347  -3116213.83546  20877021.3594                   20877021.8054
  -5483165.28547  -4262407.56944  22731250.1094                   22731251.9654
  -2974740.00847  -2304641.18844  22653378.6094                   22653382.6254
  -4108528.09847  -3190160.48944  23432805.0784                   23432809.1254
  -9133415.03147  -7129480.57446  21118860.0164                   21118858.4614
 -21606656.01648 -16825072.42046  20673743.3674                   20673742.2424
 11  8 15 20 51 30.0000000  0  8G11G07G08G24G04G26G28G17
   7547477.69146   5890136.68243  23787464.6174                   23787464.8674
  12919411.02047  10025268.38044  23113429.2344                   23113432.4224
  -3965201.71548  -3083082.96846  20885112.9614                   20885112.9264
  -5446338.69147  -4233711.55944  22738258.6564                   22738259.5944
  -3117081.32047  -2415556.32144  22626292.5004                   22626295.3244
  -4080631.65647  -3168423.11544  23438114.2194                   23438117.4414
  -9180322.28548  -7166031.67846  21109933.7814                   21109932.2464
 -21649979.38348 -16858830.87046  20665499.2424                   20665497.9494
 11  8 15 20 52  0.0000000  0  8G11G07G08G24G04G26G28G17
   9189161.77346   7169371.02943  24099867.1724                   24099866.7664
  14568651.76247  11310390.81544  23427269.6414                   23427272.9414
  -2346773.21148  -1821969.93046  21193088.8984                   21193089.6174
  -3833658.76647  -2977077.88844  23045141.4384                   23045142.5394
  -1683825.35247  -1298733.36444  22899031.5084                   22899035.3524
  -2476998.02347  -1918838.57544  23743276.1174                   23743278.9734
  -7651681.13748  -5974882.72446  21400824.6024                   21400823.0004
 -20117572.65248 -15664747.69746  20957106.2814                   20957105.7074
 11  8 15 20 52 30.0000000  0  8G11G07G08G24G04G26G28G17
   9255646.34846   7221177.18343  24112518.2114                   24112518.9264
  14642679.68446  11368074.64844  23441356.7274                   23441359.9574
  -2303273.67248  -1788074.27246  21201367.0554                   21201367.1994
  -3795965.62947  -2947706.65444  23052313.6804                   23052315.5474
  -1825819.15647  -1409377.73844  22872010.6334                   22872014.2704
  -2448468.62547  -1896607.96544  23748704.6094                   23748707.6684
  -7698333.94148  -6011235.55846  21391946.8204                   21391945.1094
 -20160280.09048 -15698026.19846  20948979.0784                   20948978.5044
 11  8 15 20 53  0.0000000  0  8G11G07G08G24G04G26G28G17
   9322353.49246   7273156.76043  24125212.3914                   24125213.0514
  14716916.60947  11425921.37144  23455483.9614                   23455487.8484
  -2259279.81248  -1753793.40746  21209738.4304                   21209739.2974
  -3757835.88747  -2917995.17844  23059570.3204                   23059571.6214
  -1967628.27047  -1519878.17644  22845025.4774                   22845028.4734
  -2419621.05947  -1874129.43544  23754194.4224                   23754197.3634
  -7744850.92648  -6047482.54446  21383094.7114                   21383093.0514
 -20202674.30948 -15731060.64746  20940912.0164                   20940911.1174
 11  8 15 20 53 30.0000000  0  8G11G07G08G24G04G26G28G17
   9389284.79346   7325311.04243  24137948.6804                   24137949.4104
  14791363.88747  11483931.96844  23469650.8914                   23469654.5314
  -2214789.44547  -1719125.66946  21218204.9224                   21218205.6994
  -3719267.82847  -2887942.18044  23066908.7194                   23066910.4454
  -2109245.73847  -1630229.29945  22818076.2734                   22818079.2854
  -2390454.33247  -1851402.19244  23759744.7344                   23759747.8094
  -7791226.90248  -6083619.66846  21374269.7734                   21374267.9884
 -20244752.52348 -15763848.83446  20932904.4454                   20932903.7854
 11  8 15 20 54  0.0000000  0  8G11G07G08G24G04G26G28G17
   9456441.66846   7377641.03943  24150728.1024                   24150728.7234
  14866023.11347  11542107.74644  23483858.7034                   23483862.2464
  -2169800.99648  -1684069.82846  21226766.1024                   21226766.8364
  -3680259.74247  -2857546.29244  23074332.2114                   23074333.7464
  -2250664.41847  -1740425.51645  22791165.2504                   22791168.3754
  -2360967.44147  -1828425.53144  23765355.5164                   23765359.5234
  -7837456.27748  -6119642.56446  21365472.6094                   21365470.9494
 -20286511.85248 -15796388.56946  20924958.0394                   20924957.3914
 11  8 15 20 54 30.0000000  0  8G11G07G08G24G04G26G28G17
   9523820.00246   7430143.52243  24163549.7584                   24163550.7664
  14940890.28547  11600445.51844  23498105.4694                   23498109.5084
  -2124317.95347  -1648628.57546  21235421.2034                   21235421.8444
  -3640815.25447  -2826810.34244  23081838.2504                   23081840.1134
  -2391883.07047  -1850465.89344  22764291.8054                   22764295.1804
  -2331165.09047  -1805203.02944  23771027.0704                   23771030.6454
  -7883539.47348  -6155551.55146  21356703.0234                   21356701.8444
 -20327954.95748 -15828681.88046  20917071.8054                   20917070.9414
 11  8 15 20 55  0.0000000  0  8G11G07G08G24G04G26G28G17
   9591419.39846   7482818.39143  24176413.8984                   24176414.1294
  15015965.16446  11658945.15444  23512391.4534                   23512395.4384
  -2078339.94947  -1612801.65146  21244170.5474                   21244171.2034
  -3600934.44547  -2795734.40044  23089426.7974                   23089428.9534
  -2532896.27747  -1960346.15244  22737458.2584                   22737460.6764
  -2301047.97747  -1781735.26444  23776758.4844                   23776761.2424
  -7929472.72748  -6191343.68746  21347962.5314                   21347961.1954
 -20369080.35548 -15860727.62746  20909246.0704                   20909244.8674
 11  8 15 20 55 30.0000000  0  8G11G07G08G24G04G26G28G17
   9659238.48446   7535664.38243  24189320.1884                   24189320.4654
  15091246.35247  11717605.57944  23526717.6094                   23526721.3284
  -2031868.22348  -1576589.99046  21253014.0944                   21253014.6684
  -3560618.40647  -2764319.33444  23097098.9224                   23097100.6454
  -2673699.73047  -2070062.97144  22710663.8834                   22710667.0354
  -2270618.13347  -1758023.79744  23782548.6334                   23782552.3164
  -7975253.66448  -6227017.14246  21339250.5554                   21339249.5314
 -20409888.21548 -15892525.95246  20901480.2034                   20901479.4804
 11  8 15 20 56  0.0000000  0  8G11G07G08G24G04G26G28G17
   9727278.73446   7588682.79543  24202267.2344                   24202267.2154
  15166735.51647  11776428.05044  23541082.5314                   23541086.9024
  -1984900.75848  -1539992.04946  21261951.8594                   21261952.2814
  -3519865.43747  -2732563.78844  23104854.0784                   23104855.2344
  -2814286.64147  -2179611.06045  22683910.9774                   22683914.0664
  -2239874.68747  -1734067.99744  23788399.2734                   23788402.6844
  -8020876.92248  -6262567.73946  21330568.7114                   21330567.4224
 -20450375.81648 -15924074.72146  20893775.9064                   20893774.8634
 11  8 15 20 56 30.0000000  0  8G11G07G08G24G04G26G28G17
   9795540.72346   7641873.94343  24215257.5314                   24215256.8164
  15242433.28147  11835413.06844  23555487.7504                   23555491.5274
  -1937436.62148  -1503007.08946  21270984.0234                   21270984.9384
  -3478674.64147  -2700467.08944  23112692.5234                   23112693.7154
  -2954650.96947  -2288985.72744  22657200.5864                   22657203.8324
  -2208817.69947  -1709867.87244  23794309.6804                   23794312.9184
  -8066338.04748  -6297991.98146  21321917.8284                   21321916.9574
 -20490540.81248 -15955372.10446  20886132.5554                   20886131.8094
 11  8 15 20 57  0.0000000  0  8G11G07G08G24G04G26G28G17
   9864024.26646   7695237.68943  24228289.4144                   24228289.7464
  15318339.45746  11894560.44144  23569932.3754                   23569936.8284
  -1889475.39148  -1465634.79246  21280110.5004                   21280111.5904
  -3437045.74647  -2668029.01444  23120614.2584                   23120615.3244
  -3094787.28547  -2398182.69045  22630533.4454                   22630536.5084
  -2177447.66447  -1685423.80044  23800278.7814                   23800282.5204
  -8111633.08248  -6333286.82146  21313298.4844                   21313297.0124
 -20530381.80948 -15986417.02246  20878551.2034                   20878550.3714
 11  8 15 20 57 30.0000000  0  8G11G07G08G24G04G26G28G17
   9932728.24246   7748773.31843  24241363.7424                   24241362.5434
  15394452.98046  11953869.41944  23584415.9384                   23584420.8634
  -1841017.93748  -1427875.81246  21289331.6174                   21289332.4064
  -3394979.83247  -2635250.40644  23128619.3204                   23128620.7774
  -3234691.19947  -2507198.59145  22603910.1414                   22603913.1724
  -2145766.73047  -1660737.47544  23806307.4304                   23806311.0044
  -8156759.79348  -6368450.49546  21304711.1804                   21304709.6094
 -20569898.93748 -16017209.57146  20871031.1564                   20871030.4304
 11  8 15 20 58  0.0000000  0  8G11G07G08G24G04G26G28G17
  10001644.72346   7802474.53243  24254477.4064                   24254476.1604
  15470766.09047  12013333.88044  23598938.3444                   23598942.8094
  -1792071.82848  -1389736.09046  21298646.0784                   21298646.8984
  -3352484.71547  -2602137.35044  23136705.6254                   23136706.9534
  -3374365.03547  -2616035.19145  22577331.1724                   22577334.2274
  -2113783.09847  -1635815.29144  23812393.8054                   23812398.1254
  -8201721.73448  -6403485.76246  21296155.2664                   21296153.6804
 -20609098.34048 -16047754.54746  20863572.1094                   20863570.9494
 11  8 15 20 58 30.0000000  0  8G11G07G08G24G04G26G28G17
  10070781.58246   7856347.42043  24267634.0634                   24267633.0554
  15547286.37146  12072959.80344  23613500.5944                   23613504.5594
  -1742628.87547  -1351209.19046  21308054.9384                   21308055.4414
  -3309552.19947  -2568683.47444  23144875.5864                   23144877.0234
  -3513795.66847  -2724682.29045  22550798.5394                   22550800.8754
  -2081489.58647  -1610651.67044  23818538.9454                   23818542.6954
  -8246507.16448  -6438383.49846  21287632.6254                   21287631.2544
 -20647970.96948 -16078044.89046  20856174.7664                   20856173.7814
 11  8 15 20 59  0.0000000  0  8G11G07G08G24G04G26G28G17
  10140134.54346   7910388.67242  24280830.6254                   24280830.1644
  15624009.52347  12132743.77944  23628100.3204                   23628104.9184
  -1692693.33647  -1312298.48246  21317557.2814                   21317558.1454
  -3266186.48047  -2534892.03044  23153127.8444                   23153129.3444
  -3652981.71947  -2833138.82445  22524311.9144                   22524314.9654
  -2048891.30547  -1585250.51044  23824743.0234                   23824745.6294
  -8291116.89848  -6473144.32346  21279143.8834                   21279142.2504
 -20686519.78948 -16108082.90146  20848839.0394                   20848838.0124
 11  8 15 20 59 30.0000000  0  8G11G07G08G24G04G26G28G17
  10209701.53146   7964596.74743  24294069.1724                   24294069.2504
  15700933.69147  12192684.42544  23642738.0004                   23642742.8594
  -1642266.92647  -1273005.25946  21327152.9844                   21327154.0004
  -3222389.37147  -2500764.47444  23161462.2664                   23161463.4224
  -3791919.69947  -2941402.05445  22497872.9694                   22497876.1804
  -2015990.67646  -1559613.76943  23831003.7034                   23831007.1334
  -8335548.70348  -6507766.49946  21270688.8594                   21270687.2544
 -20724745.20348 -16137868.92346  20841565.0554                   20841564.0514
 11  8 15 21  0  0.0000000  0  8G11G07G08G24G04G26G28G17
  10279480.42646   8018969.83543  24307347.7194                   24307347.7544
  15778056.67646  12252779.97944  23657414.9694                   23657419.5044
  -1591351.43447  -1233330.94246  21336842.2274                   21336843.1644
  -3178162.73447  -2466302.17144  23169878.2194                   23169879.6954
  -3930606.27347  -3049469.35745  22471481.5004                   22471484.6884
  -1982790.52047  -1533743.63244  23837321.5704                   23837325.2384
  -8379800.68448  -6542248.55646  21262267.9144                   21262266.3754
 -20762648.15247 -16167403.66547  20834352.3524                   20834351.3324
 11  8 15 21  0 30.0000000  0  8G11G07G08G24G04G26G28G17
  10349464.25046   8073502.66243  24320664.7424                   24320665.4614
  15855371.50847  12313025.01144  23672128.1094                   23672131.4924
  -1539953.53547  -1193280.72046  21346622.9924                   21346623.7384
  -3133513.32047  -2431510.44644  23178374.8524                   23178376.4454
  -4069043.00047  -3157341.99145  22445138.1724                   22445140.6844
  -1949298.73047  -1507646.23943  23843694.9384                   23843698.2734
  -8423876.15648  -6576593.07146  21253880.6484                   21253879.0234
 -20800234.09047 -16196691.37946  20827199.6804                   20827198.6764
 11  8 15 21  1  0.0000000  0  8G11G07G08G24G04G26G28G17
  10419650.74646   8128193.46343  24334020.0704                   24334022.2504
  15932876.07847  12373417.94544  23686876.5784                   23686880.1884
  -1488075.18747  -1152856.12646  21356494.9534                   21356496.3054
  -3088443.43746  -2396391.07844  23186951.2664                   23186952.7624
  -4207226.41047  -3265017.24645  22418842.5234                   22418845.4534
  -1915517.76647  -1481323.54343  23850123.8284                   23850127.2934
  -8467773.44148  -6610798.74746  21245527.3364                   21245525.7704
 -20837504.09048 -16225732.91046  20820107.6174                   20820106.5314
 11  8 15 21  1 30.0000000  0  8G11G07G08G24G04G26G28G17
  10490033.28546   8183036.88143  24347414.3054                   24347415.2114
  16010563.93847  12433953.65644  23701660.5704                   23701664.6844
  -1435722.99647  -1112062.30846  21366457.4534                   21366458.5784
  -3042959.38747  -2360948.99644  23195606.4304                   23195608.2544
  -4345157.84447  -3372496.13045  22392594.7584                   22392597.8674
  -1881455.25047  -1454781.44644  23856605.5234                   23856608.6524
  -8511494.99648  -6644867.47546  21237207.1804                   21237205.9184
 -20874463.07448 -16254532.09046  20813074.3524                   20813073.7114
 11  8 15 21  2  0.0000000  0  8G11G07G08G24G04G26G28G17
  10560595.55146   8238020.46443  24360842.5164                   24360842.8874
  16088418.49647  12494619.27344  23716475.7114                   23716480.3674
  -1382912.57848  -1070911.43246  21376507.1254                   21376508.0594
  -2997077.34447  -2325196.81244  23204337.5704                   23204338.9144
  -4482847.73047  -3479786.81345  22366392.9454                   22366395.5634
  -1847127.71147  -1428032.83444  23863137.3674                   23863141.6024
  -8555052.92648  -6678808.71846  21228918.2344                   21228916.7974
 -20911125.84448 -16283100.44946  20806098.1174                   20806097.0084
 11  8 15 21  2 30.0000000  0  8G11G07G08G24G04G26G28G17
  10631339.61746   8293145.71343  24374304.8524                   24374304.0084
  16166441.65646  12555416.29244  23731323.2114                   23731327.9064
  -1329642.12147  -1029402.08946  21386643.9384                   21386645.1414
  -2950795.31247  -2289132.86444  23213144.1804                   23213147.0434
  -4620288.83247  -3586883.63545  22340238.6484                   22340241.1454
  -1812534.02347  -1401076.87444  23869720.6334                   23869724.7274
  -8598442.04348  -6712618.40346  21220661.6094                   21220660.3324
 -20947489.44548 -16311435.69947  20799177.9144                   20799176.9534
 11  8 15 21  3  0.0000000  0  8G11G07G08G24G04G26G28G17
  10702257.72347   8348406.62043  24387799.9224                   24387799.9774
  16244625.18046  12616338.20744  23746201.5554                   23746205.7854
  -1275919.75047   -987540.60146  21396867.1724                   21396868.4224
  -2904121.51646  -2252763.73344  23222025.8364                   23222027.3134
  -4757484.08647  -3693788.88945  22314131.2034                   22314133.9654
  -1777683.25847  -1373920.55344  23876352.8284                   23876356.8594
  -8641666.56648  -6746299.84546  21212436.3984                   21212435.1094
 -20983560.78548 -16339543.21846  20792314.0164                   20792313.1804
 11  8 15 21  3 30.0000000  0  8G11G07G08G24G04G26G28G17
  10773342.98847   8403797.70143  24401326.7194                   24401326.8794
  16322963.27046  12677380.59244  23761108.7894                   23761113.3754
  -1221751.37147   -945331.57846  21407175.0864                   21407176.3404
  -2857061.71147  -2216093.75744  23230981.7814                   23230982.8714
  -4894433.91447  -3800502.90745  22288070.2424                   22288072.8674
  -1742582.12947  -1346569.17044  23883032.5944                   23883036.3444
  -8684728.31248  -6779854.44046  21204241.9774                   21204240.5864
 -21019344.49248 -16367426.60047  20785504.7274                   20785503.5984
 11  8 15 21  4  0.0000000  0  8G11G07G08G24G04G26G28G17
  10844590.41446   8459315.15643  24414884.7814                   24414884.4264
  16401450.17246  12738538.93744  23776045.1644                   23776049.2854
  -1167142.02747   -902778.95146  21417566.8754                   21417568.3324
  -2809621.38746  -2179127.29644  23240009.0784                   23240010.9964
  -5031138.37547  -3907025.72545  22262056.4534                   22262058.8554
  -1707236.54747  -1319027.29544  23889758.5704                   23889762.4024
  -8727629.30148  -6813283.78346  21196078.0474                   21196076.8094
 -21054844.63748 -16395089.02847  20778748.9384                   20778748.0044
 11  8 15 21  4 30.0000000  0  8G11G07G08G24G04G26G28G17
  10915997.43447   8514956.99243  24428473.7114                   24428473.3484
  16480083.46146  12799811.29644  23791008.0004                   23791013.2194
  -1112094.30547   -859884.72646  21428042.2814                   21428043.4654
  -2761802.93046  -2141866.20844  23249109.0784                   23249110.9414
  -5167594.39547  -4013354.98745  22236089.7734                   22236092.1254
  -1671649.80147  -1291297.48743  23896530.7424                   23896533.3594
  -8770367.68448  -6846586.41246  21187945.1174                   21187943.8364
 -21090062.24648 -16422531.29346  20772047.1954                   20772046.1844
 11  8 15 21  5  0.0000000  0  8G11G07G08G24G04G26G28G17
  10987556.88347   8570717.66143  24442090.3054                   24442090.9884
  16558856.03546  12861192.22344  23805998.2734                   23806003.6174
  -1056615.42247   -816654.52846  21438599.5474                   21438600.9844
  -2713613.61746  -2104316.11844  23258279.3754                   23258280.5314
  -5303803.82847  -4119492.08945  22210169.8444                   22210172.2504
  -1635829.70747  -1263385.88643  23903347.1804                   23903349.3794
  -8812946.64548  -6879764.81246  21179842.9614                   21179841.0904
 -21125003.61747 -16449758.31446  20765398.2424                   20765397.0394
 11  8 15 21  5 30.0000000  0  9G11G07G08G24G04G20G26G28G17
  11059266.45346   8626595.24443  24455736.2974                   24455736.1524
  16637765.28946  12922679.64044  23821014.4384                   23821019.6604
  -1000707.71547   -773090.19746  21449238.8444                   21449239.7194
  -2665055.56647  -2066478.68244  23267520.0784                   23267521.6524
  -5439763.49247  -4225434.54245  22184297.2894                   22184299.4304
  10946826.94115                  24595211.102
  -1599779.39847  -1235294.83743  23910206.9304                   23910210.0474
  -8855364.50048  -6912817.68346  21171770.8754                   21171769.4344
 -21159669.37148 -16476770.56046  20758801.4064                   20758800.6254
 11  8 15 21  6  0.0000000  0  9G11G07G08G24G04G20G26G28G17
  11131116.19146   8682582.04342  24469409.3524                   24469408.6724
  16716801.30946  12984265.88644  23836054.5394                   23836059.4534
   -944380.96147   -729199.31346  21459957.4774                   21459958.8054
  -2616138.88347  -2028361.83944  23276827.8984                   23276828.9414
  -5575478.02347  -4331186.00345  22158472.0314                   22158473.9844
  10869601.430 5                  24580513.445
  -1563509.64147  -1207032.85344  23917109.3984                   23917112.8674
  -8897628.05548  -6945750.31946  21163728.8204                   21163727.3444
 -21194068.19548 -16503574.82346  20752255.4694                   20752254.6174
 11  8 15 21  6 30.0000000  0  8G07G08G24G04G20G26G28G17
  16795957.74246  13045945.91244  23851118.0004                   23851123.0904
   -887641.55547   -684986.91245  21470754.5164                   21470755.9144
  -2566869.93447  -1989970.50244  23286203.5634                   23286205.6884
  -5710948.18747  -4436747.02845  22132692.7974                   22132694.9884
  10792607.926 5                  24565861.938
  -1527027.38747  -1178605.26044  23924052.2344                   23924055.5394
  -8939739.19148  -6978564.19546  21155715.2034                   21155714.0044
 -21228205.39148 -16530175.22046  20745759.3834                   20745758.3914
 11  8 15 21  7  0.0000000  0  8G07G08G24G04G20G26G28G17
  16875225.36346  13107712.54244  23866202.3524                   23866207.5044
   -830498.31647   -640459.81345  21481628.4614                   21481630.2424
  -2517257.25846  -1951311.30044  23295644.6174                   23295646.5984
  -5846177.44147  -4542120.35145  22106959.0784                   22106961.5824
  10715842.863 6                  24551256.055
  -1490342.26647  -1150019.61144  23931032.6334                   23931036.7664
  -8981702.84848  -7011263.14046  21147729.6024                   21147728.2384
 -21262088.36748 -16556577.49646  20739311.8594                   20739310.7464
 11  8 15 21  7 30.0000000  0  8G07G08G24G04G20G26G28G17
  16954624.91847  13169582.06844  23881311.9844                   23881317.9964
   -772930.64147   -595601.99946  21492583.3984                   21492584.8014
  -2467280.63346  -1912368.50444  23305154.3674                   23305156.8754
  -5981140.05947  -4647285.89145  22081276.3134                   22081278.5354
  10639331.820 5                  24536696.195
  -1453434.57047  -1121260.51344  23938056.0394                   23938060.6644
  -9023494.58648  -7043828.12546  21139777.1884                   21139775.7934
 -21295695.49648 -16582764.84546  20732916.4774                   20732915.3954
 11  8 15 21  8  0.0000000  0  8G07G08G24G04G20G26G28G17
  17034172.95747  13231567.25244  23896449.6724                   23896454.8914
   -714922.45347   -550400.92845  21503622.3284                   21503623.5004
  -2416923.59847  -1873129.27344  23314737.4774                   23314739.3554
  -6115813.96147  -4752226.44645  22055648.1254                   22055650.8554
  10563096.50445   8238215.16452  24522189.2734                   24522192.2664
  -1416288.42247  -1092315.61644  23945125.0704                   23945129.3364
  -9065094.20748  -7076243.42146  21131860.7664                   21131859.4654
 -21329008.84848 -16608723.26746  20726577.2114                   20726576.1294
 11  8 15 21  8 30.0000000  0  8G07G08G24G04G20G26G28G17
  17113870.16446  13293668.66244  23911615.3674                   23911621.2074
   -656472.50847   -504855.61945  21514745.1334                   21514746.4614
  -2366184.80947  -1833592.54944  23324392.2734                   23324394.9304
  -6250192.64147  -4856936.96145  22030077.4694                   22030079.3634
  10487143.30546   8179030.95742  24507735.3674                   24507738.3634
  -1378903.39546  -1063184.61344  23952239.0004                   23952244.0784
  -9106496.59848  -7108505.02146  21123981.9924                   21123980.5474
 -21362025.84048 -16634450.77546  20720294.2114                   20720293.2544
 11  8 15 21  9  0.0000000  0  8G07G08G24G04G20G26G28G17
  17193715.30546  13355885.36843  23926810.0474                   23926815.4844
   -597581.96547   -458966.98545  21525951.3134                   21525952.9774
  -2315065.77347  -1793759.60644  23334120.1644                   23334122.2854
  -6384272.03947  -4961414.28845  22004562.5164                   22004564.9534
  10411475.64546   8120069.23443  24493336.3754                   24493338.8444
  -1341281.53146  -1033869.03144  23959398.7194                   23959402.7584
  -9147699.03948  -7140610.82746  21116141.7114                   21116139.8244
 -21394747.07848 -16659947.82046  20714067.3524                   20714066.3554
 11  8 15 21  9 30.0000000  0  8G07G08G24G04G20G26G28G17
  17273707.49246  13418216.66043  23942032.5164                   23942037.0354
   -538251.50447   -412735.57645  21537242.0474                   21537243.1094
  -2263567.12947  -1753630.81344  23343920.3444                   23343922.0434
  -6518047.35548  -5065654.68045  21979106.0554                   21979108.4844
  10336098.51646   8061333.89543  24478992.4224                   24478995.5554
  -1303424.24647  -1004369.99144  23966602.9454                   23966607.1374
  -9188698.18048  -7172558.20846  21108339.6724                   21108338.1454
 -21427171.44148 -16685213.53747  20707897.5784                   20707896.5984
 11  8 15 21 10  0.0000000  0  8G07G08G24G04G20G26G28G17
  17353837.57446  13480655.36744  23957280.6564                   23957286.0394
   -478490.50047   -366168.67945  21548614.0864                   21548615.3204
  -2211698.34447  -1713213.58844  23353790.7034                   23353792.1294
  -6651522.66047  -5169661.28945  21953706.6954                   21953708.6564
  10261007.55946   8002821.53043  24464703.3444                   24464705.1094
  -1265341.75047   -974695.48344  23973850.1644                   23973854.4104
  -9229499.56648  -7204351.49146  21100575.6254                   21100574.2464
 -21459307.38348 -16710254.50546  20701781.9454                   20701780.9614
 11  8 15 21 10 30.0000000  0  8G07G08G24G04G20G26G28G17
  17434102.22346  13543198.94544  23972554.3914                   23972560.7304
   -418302.59047   -319269.11245  21560067.6254                   21560068.9384
  -2159462.59847  -1672510.44644  23363731.0554                   23363732.6254
  -6784695.73847  -5273432.39845  21928364.2734                   21928366.5704
  10186204.78546   7944533.70643  24450470.0634                   24450471.1914
  -1227037.72347   -944848.34244  23981138.5704                   23981143.0514
  -9270102.32848  -7235990.00246  21092849.1094                   21092847.3164
 -21491156.66448 -16735072.10446  20695721.3914                   20695720.1724
 11  8 15 21 11  0.0000000  0  8G07G08G24G04G20G26G28G17
  17514499.77346  13605846.10844  23987854.2584                   23987860.2194
   -357689.60547   -272038.35145  21571601.9534                   21571603.1134
  -2106861.69547  -1631522.77143  23373740.1174                   23373742.2504
  -6917562.89148  -5376965.12845  21903080.6254                   21903082.5044
  10111693.44146   7886472.94443  24436290.1804                   24436292.3554
  -1188514.83647   -914830.66444  23988469.6804                   23988474.2704
  -9310504.47748  -7267472.20046  21085160.4924                   21085159.3204
 -21522720.00848 -16759666.90646  20689714.9534                   20689714.1094
 11  8 15 21 11 30.0000000  0  8G07G08G24G04G20G26G28G17
  17595025.57846  13668593.15144  24003177.8674                   24003184.0124
   -296655.75447   -224479.61345  21583216.8204                   21583217.9064
  -2053899.88747  -1590253.87244  23383818.6334                   23383820.4144
  -7050122.95348  -5480258.56245  21877855.0394                   21877857.1294
  10037474.31646   7828639.91843  24422166.3204                   24422169.3404
  -1149778.03546   -884646.30143  23995840.4454                   23995845.7464
  -9350706.21148  -7298798.22246  21077510.3754                   21077509.1564
 -21553999.97748 -16784040.89446  20683762.1644                   20683761.3524
 11  8 15 21 12  0.0000000  0  8G07G08G24G04G20G26G28G17
  17675678.78546  13731439.50444  24018525.9844                   24018532.7274
   -235201.90247   -176593.61545  21594910.9534                   21594912.4924
  -2000578.13347  -1548704.43444  23393965.1564                   23393967.5514
  -7182371.69148  -5583309.41745  21852688.8834                   21852691.0664
   9963551.53946   7771037.80243  24408099.0084                   24408102.1684
  -1110828.90647   -854296.48443  24003252.9304                   24003257.6054
  -9390704.63348  -7329965.83146  21069899.3364                   21069897.6254
 -21584996.39148 -16808193.93647  20677863.9384                   20677863.0984
 11  8 15 21 12 30.0000000  0  8G07G08G24G04G20G26G28G17
  17756453.35246  13794380.40044  24033896.6094                   24033903.5554
   -173334.19947   -128385.12445  21606683.9304                   21606685.9774
  -1946902.46547  -1506879.31644  23404179.7894                   23404181.3914
  -7314309.32447  -5686117.86045  21827582.0634                   21827583.6644
   9889924.64146   7713666.23343  24394087.9844                   24394090.8914
  -1071674.14147   -823786.42243  24010703.0634                   24010708.6054
  -9430501.44148  -7360976.34446  21062326.3754                   21062324.6334
 -21615713.77048 -16832129.55846  20672018.8524                   20672017.9614
 11  8 15 21 13  0.0000000  0  8G07G08G24G04G20G26G28G17
  17837348.82046  13857415.51744  24049291.1254                   24049297.0164
   -111053.57447    -79854.89645  21618535.4774                   21618537.6414
  -1892873.62147  -1464778.90844  23414461.2734                   23414462.6884
  -7445930.86347  -5788679.97045  21802534.8204                   21802537.2234
   9816597.85946   7656528.55243  24380134.7974                   24380137.5274
  -1032314.91846   -793117.05043  24018194.0944                   24018198.6644
  -9470093.48848  -7391827.28846  21054791.9534                   21054790.4534
 -21646151.47348 -16855847.23546  20666226.6094                   20666225.7934
 11  8 15 21 13 30.0000000  0  8G07G08G24G04G20G26G28G17
  17918357.37946  13920538.78044  24064706.6954                   24064713.0904
    -48367.85947    -31009.00845  21630464.1884                   21630465.8484
  -1838499.47347  -1422409.43444  23424808.1884                   23424809.4614
  -7577239.30947  -5890998.12945  21777547.9924                   21777549.9804
   9743568.60946   7599622.73944  24366237.8524                   24366240.1094
   -992759.87147   -762295.12444  24025720.9224                   24025725.9614
  -9509484.86748  -7422521.86846  21047296.0944                   21047294.7504
 -21676316.34848 -16879352.32646  20660486.0314                   20660485.2704
 11  8 15 21 14  0.0000000  0  8G07G08G24G04G20G26G28G17
  17999476.28946  13983748.02344  24080143.5554                   24080149.8134
     14720.48447     18150.61945  21642469.9614                   21642471.7344
  -1783782.42647  -1379772.77244  23435220.7504                   23435221.9964
  -7708231.68047  -5993069.99045  21752620.5634                   21752622.6604
   9670839.69547   7542950.92344  24352398.1414                   24352400.3834
   -953012.42647   -731323.19144  24033285.2194                   24033289.6414
  -9548673.37948  -7453058.37846  21039838.7504                   21039837.6254
 -21706209.41848 -16902645.61646  20654798.2424                   20654797.2774
 11  8 15 21 14 30.0000000  0  8G07G08G24G04G20G26G28G17
  18080696.74646  14047036.34543  24095599.2814                   24095605.8714
     78202.05548     67616.66145  21654550.1024                   21654552.1644
  -1728731.32046  -1336875.81144  23445696.5634                   23445697.5744
  -7838911.12547  -6094898.00745  21727753.0234                   21727755.0744
   9598406.91847   7486509.84944  24338614.3594                   24338617.4454
   -913081.80947   -700208.57644  24040883.7114                   24040888.3554
  -9587664.34848  -7483440.94746  21032419.3364                   21032417.6294
 -21735838.38348 -16925733.10446  20649159.8674                   20649159.1414
 11  8 15 21 15  0.0000000  0  8G07G08G24G04G20G26G28G17
  18162012.89846  14110399.26243  24111073.4844                   24111079.8874
    142071.00047    117384.54445  21666704.0864                   21666705.9454
  -1673352.30547  -1293723.35444  23456234.9534                   23456236.8674
  -7969278.30147  -6196482.69945  21702945.0784                   21702946.9884
   9526269.61346   7430299.06644  24324887.2034                   24324889.7664
   -872974.74247   -668956.48344  24048515.6094                   24048520.3834
  -9626459.55947  -7513670.97846  21025036.5554                   21025035.2304
 -21765207.58248 -16948618.17646  20643571.1414                   20643570.4224
 11  8 15 21 15 30.0000000  0  8G07G08G24G04G20G26G28G17
  19818833.10946  15401427.65443  24426356.3674                   24426362.3984
   1781736.44147   1395045.80345  21978722.0634                   21978723.8754
    -42235.89846    -22723.55744  23766626.2814                   23766627.2504
  -6523912.40647  -5070223.45045  21977988.7344                   21977990.5784
  11029846.41847   8601917.39144  24611008.1954                   24611010.6644
    742717.99647    590024.71844  24355972.5944                   24355977.2074
  -8089642.47748  -6316151.17246  21317483.1644                   21317481.6024
 -20218903.72348 -15743706.07146  20937822.9384                   20937821.9734
 11  8 15 21 16  0.0000000  0  8G07G08G24G04G20G26G28G17
  19900323.08646  15464926.05443  24441863.0164                   24441870.1844
   1846362.74647   1445403.83945  21991020.3594                   21991021.8874
     13781.79746     20926.58644  23777285.6174                   23777287.6414
  -6653656.28947  -5171322.47145  21953299.1804                   21953301.3284
  10958298.11346   8546165.56243  24597393.3364                   24597395.1914
    783158.75847    621536.86544  24363668.0084                   24363672.2854
  -8128051.41448  -6346080.21146  21310174.3754                   21310172.6644
 -20247766.96948 -15766196.90546  20932330.3054                   20932329.5204
 11  8 15 21 16 30.0000000  0  8G07G08G24G04G20G26G28G17
  19981892.95346  15528486.67743  24457386.3834                   24457392.5394
   1911360.37547   1496051.22545  22003388.7424                   22003390.2424
     70111.77346     64820.03744  23788005.0554                   23788006.2974
  -6783087.35247  -5272177.73245  21928669.6644                   21928671.5474
  10887045.11346   8490643.81043  24583833.9304                   24583836.0434
    823758.17247    653172.60043  24371393.6024                   24371398.1214
  -8166268.14547  -6375859.47746  21302901.7274                   21302900.2624
 -20276382.18048 -15788494.46246  20926885.0164                   20926884.3714
 11  8 15 21 17  0.0000000  0  8G07G08G24G04G20G26G28G17
  20063536.30946  15592104.59943  24472923.0314                   24472929.1484
   1976722.34047   1546982.49845  22015827.1094                   22015828.5944
    126747.60247    108951.83944  23798782.5704                   23798783.8364
  -6912206.60947  -5372790.04745  21904099.0554                   21904100.2774
  10816086.07046   8435351.11643  24570330.6954                   24570333.2734
    864509.28547    684926.56843  24379148.3674                   24379153.2544
  -8204295.14847  -6405490.91446  21295665.6564                   21295664.0434
 -20304754.73848 -15810602.94746  20921485.8134                   20921484.8834
 11  8 15 21 17 30.0000000  0  8G07G08G24G04G20G26G28G17
  20145247.69146  15655775.49743  24488471.5634                   24488478.9064
   2042443.26647   1598193.49245  22028333.4454                   22028334.6334
    183683.89847    153317.77744  23809617.0944                   23809618.2234
  -7041013.94947  -5473159.26945  21879587.4064                   21879588.8754
  10745420.52746   8380287.10943  24556883.8984                   24556886.0514
    905406.07047    716794.00843  24386930.9224                   24386936.0084
  -8242133.87548  -6434975.63146  21288465.1254                   21288463.7384
 -20332888.67648 -15832525.48147  20916132.3524                   20916131.3714
 11  8 15 21 18  0.0000000  0  8G07G08G24G04G20G26G28G17
  20227029.25846  15719501.04644  24504035.1024                   24504041.7384
   2108525.07447   1649685.69445  22040908.5004                   22040910.2774
    240922.56647    197919.31444  23820509.2274                   23820510.8364
  -7169502.15647  -5573279.82345  21855136.6174                   21855138.4574
  10675055.76646   8325457.54343  24543493.0864                   24543495.8444
    946449.98046    748776.16843  24394741.5474                   24394746.0984
  -8279778.08248  -6464308.76546  21281301.3524                   21281299.8164
 -20360780.65248 -15854259.49246  20910824.6884                   20910823.9574
 11  8 15 21 18 30.0000000  0  8G07G08G24G04G20G26G28G17
  20308875.57046  15783277.00943  24519610.3204                   24519617.4104
   2174962.04347   1701454.63345  22053550.8754                   22053553.0634
    298457.84846    242751.98044  23831458.1804                   23831459.6524
  -7297671.53547  -5673151.95745  21830747.0394                   21830748.4804
  10604990.95746   8270861.63643  24530160.7504                   24530163.0744
    987634.84047    780868.11543  24402579.0004                   24402583.3634
  -8317229.23048  -6493491.47646  21274174.5084                   21274173.1804
 -20388434.87548 -15875808.23146  20905561.9924                   20905561.0514
 11  8 15 21 19  0.0000000  0  8G07G08G24G04G20G26G28G17
  20390782.80146  15847100.52544  24535196.7504                   24535203.7344
   2241749.71547   1753496.85145  22066260.4694                   22066262.3674
    356285.42247    287812.44044  23842461.7274                   23842463.1954
  -7425520.77047  -5772774.61945  21806418.2114                   21806419.9654
  10535227.32846   8216500.48443  24516884.4304                   24516886.3094
   1028955.53547    813065.80843  24410441.8364                   24410446.6644
  -8354488.00848  -6522524.29846  21267084.5634                   21267082.8164
 -20415854.18448 -15897173.91046  20900344.6254                   20900343.5084
 11  8 15 21 19 30.0000000  0  8G07G08G24G04G20G26G28G17
  20472750.47346  15910971.11743  24550794.2894                   24550801.8754
   2308888.30147   1805812.50945  22079036.4694                   22079038.7074
    414405.80946    333101.06944  23853522.0234                   23853523.6994
  -7553044.48847  -5872143.62945  21782150.8364                   21782152.2974
  10465769.86746   8162377.80143  24503667.5394                   24503669.1334
   1070411.80547    845369.28743  24418331.4144                   24418336.6174
  -8391549.44148  -6551403.31646  21260032.1884                   21260030.9144
 -20443036.89548 -15918355.23446  20895171.9384                   20895170.7504
 11  8 15 21 20  0.0000000  0  8G07G08G24G04G20G26G28G17
  20554773.34846  15974884.66643  24566402.9614                   24566410.6914
   2376372.13347   1858397.17645  22091878.1724                   22091880.3794
    472813.58246    378613.58743  23864636.1884                   23864638.3794
  -7680242.20348  -5971258.61145  21757945.7274                   21757947.4614
  10396618.32846   8108493.64143  24490508.6334                   24490510.4304
   1111997.48846    877773.51043  24426243.6804                   24426249.9184
  -8428415.05548  -6580129.77246  21253016.7974                   21253015.5044
 -20469987.45348 -15939355.66446  20890042.9694                   20890042.0474
 11  8 15 21 20 30.0000000  0  8G07G08G24G04G20G26G28G17
  20636851.02046  16038840.93243  24582022.5784                   24582029.9144
   2444200.30147   1911250.17545  22104785.6564                   22104788.1484
    531507.89146    424349.39043  23875805.8914                   23875807.8324
  -7807109.56248  -6070116.16645  21733803.8054                   21733805.8634
  10327777.48046   8054851.57643  24477407.7274                   24477409.9064
   1153711.67247    910277.88544  24434182.5394                   24434188.1454
  -8465081.43748  -6608700.96746  21246039.2894                   21246037.9494
 -20496704.83248 -15960174.40546  20884959.0704                   20884958.1414
 11  8 15 21 21  0.0000000  0  8G07G08G24G04G20G26G28G17
  20718981.95746  16102838.69343  24597651.1484                   24597658.8484
   2512371.36747   1964370.32845  22117758.2974                   22117760.6294
    590487.34846    470307.36943  23887029.1564                   23887030.6454
  -7933642.55948  -6168713.19845  21709725.1954                   21709726.6334
  10259250.41046   8001453.92943  24464366.9844                   24464369.3404
   1195551.97346    942880.51143  24442145.0084                   24442149.9964
  -8501546.00048  -6637114.92246  21239100.6484                   21239099.0944
 -20523189.42648 -15980811.74546  20879919.2814                   20879918.2074
 11  8 15 21 21 30.0000000  0  8G07G08G24G04G20G26G28G17
  20801164.73046  16166876.93643  24613290.7114                   24613298.9024
   2580883.37147   2017756.17845  22130795.8594                   22130797.9104
    649750.18846    516486.16143  23898306.6724                   23898307.9734
  -8059837.14548  -6267046.51646  21685711.1094                   21685712.6644
  10191040.72746   7948303.67643  24451387.5314                   24451390.3874
   1237516.52746    975579.97844  24450130.4384                   24450135.8874
  -8537806.26248  -6665369.67446  21232200.8284                   21232198.6724
 -20549441.25048 -16001267.71547  20874923.7344                   20874922.8444
 11  8 15 21 22  0.0000000  0  8G07G08G24G04G20G26G28G17
  20883403.53146  16230958.79143  24628940.9924                   24628948.3364
   2649739.95747   2071410.53045  22143899.0394                   22143901.0474
    709300.78546    562889.23843  23909638.4304                   23909640.7854
  -8185684.15648  -6365109.00746  21661763.2274                   21661764.6294
  10123157.75846   7895408.00543  24438470.1094                   24438472.7734
   1279608.43446   1008378.69343  24458139.9614                   24458146.1524
  -8573854.02748  -6693458.84846  21225340.7734                   21225339.1844
 -20575454.58648 -16021537.84446  20869973.4614                   20869972.6454
 11  8 15 21 22 30.0000000  0  7G08G24G04G20G26G28G17
   2718937.68047   2125330.69145  22157067.0704                   22157068.8524
    769135.23047    609513.50044  23921025.4224                   23921026.7704
  -8311181.68748  -6462899.17446  21637881.6954                   21637883.1334
  10055602.61346   7842767.64543  24425615.1954                   24425616.0984
   1321823.87146   1041273.58243  24466174.0554                   24466179.8954
  -8609688.81648  -6721382.06546  21218521.7344                   21218520.0354
 -20601232.23448 -16041624.31646  20865068.3594                   20865067.4614
 11  8 15 21 23  0.0000000  0  7G08G24G04G20G26G28G17
   2788475.36747   2179515.76845  22170299.5634                   22170301.6844
    829253.26246    656358.74543  23932465.6884                   23932466.4654
  -8436325.11747  -6560413.40945  21614067.2344                   21614068.9964
   9988379.71946   7790386.27943  24412823.0314                   24412823.9804
   1364161.48046   1074263.73243  24474230.6724                   24474236.5514
  -8645307.09048  -6749136.57046  21211743.7114                   21211741.6294
 -20626773.41448 -16061526.52346  20860207.9454                   20860206.8404
 11  8 15 21 23 30.0000000  0  7G08G24G04G20G26G28G17
   2858358.82447   2233970.28945  22183598.1174                   22183600.1414
    889660.43447    703429.26244  23943960.5394                   23943961.8834
  -8561103.28147  -6657643.02945  21590322.8204                   21590324.4064
   9921500.20345   7738272.43042  24400095.3674                   24400097.1564
   1406626.58646   1107353.25143  24482311.3134                   24482316.2974
  -8680698.79347  -6776714.52946  21205008.8524                   21205007.4184
 -20652070.43048 -16081238.47046  20855393.9454                   20855393.1414
 11  8 15 21 24  0.0000000  0  7G08G24G04G20G26G28G17
   2928595.51647   2288700.03045  22196963.8364                   22196965.9454
    950364.42647    750731.08644  23955511.9844                   23955514.0594
  -8685503.02047  -6754577.77545  21566650.1484                   21566651.7934
   9854976.78946   7686436.14143  24387436.3524                   24387438.0394
   1449226.16046   1140547.51243  24490418.2584                   24490423.6484
  -8715852.25848  -6804106.84646  21198319.4064                   21198317.6564
 -20677114.58648 -16100753.38046  20850628.2344                   20850627.1414
 11  8 15 21 24 30.0000000  0  7G08G24G04G20G26G28G17
   2999180.61747   2343701.27745  22210395.9614                   22210397.9734
   1011360.69947    798260.67944  23967119.0084                   23967120.8054
  -8809523.47747  -6851216.98846  21543050.2894                   21543051.5634
   9788809.83246   7634877.59143  24374845.4614                   24374847.1374
   1491955.29347   1173842.78044  24498549.7194                   24498554.8484
  -8750767.81647  -6831313.78246  21191675.4614                   21191673.5744
 -20701908.87148 -16120073.59946  20845910.1724                   20845909.0314
 11  8 15 21 25  0.0000000  0  7G08G24G04G20G26G28G17
   3070106.02347   2398967.69845  22223892.7344                   22223895.2194
   1072641.33247    846011.74644  23978780.5234                   23978781.6254
  -8933167.07447  -6947562.53646  21519521.5234                   21519522.7384
   9722996.52046   7583594.55942  24362321.1414                   24362323.0354
   1534805.34847   1207232.22744  24506703.7974                   24506709.4454
  -8785449.38748  -6858338.38646  21185075.6724                   21185073.9574
 -20726459.77748 -16139204.15046  20841238.0864                   20841237.0434
 11  8 15 21 25 30.0000000  0  7G08G24G04G20G26G28G17
   3141356.58647   2454487.46445  22237451.2194                   22237453.1524
   1134191.32846    893972.76243  23990492.3134                   23990494.3914
  -9056443.65647  -7043622.10146  21496062.4924                   21496063.8634
   9657526.84845   7532579.30443  24349862.5314                   24349864.9384
   1577761.04347   1240704.00443  24514878.4454                   24514883.9844
  -8819907.47348  -6885188.85546  21178518.3204                   21178517.1214
 -20750780.89848 -16158155.66046  20836609.8524                   20836608.5984
 11  8 15 21 26  0.0000000  0  7G08G24G04G20G26G28G17
   3212928.00047   2510257.26645  22251070.9774                   22251073.4184
   1196007.00846    942140.82544  24002255.4924                   24002257.4924
  -9179351.66447  -7139394.45946  21472673.8054                   21472674.6644
   9592401.91846   7481832.74243  24337470.3834                   24337471.5904
   1620817.93447   1274254.67444  24523072.1724                   24523077.7344
  -8854142.05548  -6911865.15846  21172003.7194                   21172002.2504
 -20774874.91848 -16176930.21046  20832025.0554                   20832023.6994
 11  8 15 21 26 30.0000000  0  7G08G24G04G20G26G28G17
   3284809.48047   2566268.65745  22264749.5554                   22264752.0394
   1258077.75046    990507.69243  24014067.3834                   24014069.8364
  -9301896.60547  -7234883.92346  21449354.2424                   21449355.1644
   9527615.96546   7431350.28943  24325141.7894                   24325142.6844
   1663964.93046   1307875.44943  24531282.7504                   24531288.1484
  -8888159.79747  -6938372.48146  21165530.3984                   21165528.8794
 -20798750.80948 -16195534.78246  20827481.5234                   20827480.4654
 11  8 15 21 27  0.0000000  0  7G08G24G04G20G26G28G17
   3356995.67247   2622517.49045  22278486.0234                   22278488.9264
   1320398.35546   1039069.18443  24025926.3284                   24025928.8164
  -9424078.20347  -7330090.24245  21426103.5704                   21426104.9774
   9463168.89846   7381131.85043  24312877.8284                   24312878.9614
   1707196.15246   1341561.92144  24539508.9144                   24539515.5004
  -8921961.26248  -6964711.28146  21159098.1024                   21159096.8054
 -20822412.53948 -16213972.46746  20822978.8524                   20822977.6644
 11  8 15 21 27 30.0000000  0  7G08G24G04G20G26G28G17
   3429488.53147   2679005.28045  22292281.0004                   22292283.7274
   1382971.00446   1087827.05343  24037833.3754                   24037834.6524
  -9545888.78947  -7425007.49746  21402924.1174                   21402925.1914
   9399067.87545   7331183.08443  24300679.7814                   24300681.7544
   1750513.32046   1375315.29643  24547752.2194                   24547759.0234
  -8955540.44948  -6990876.89846  21152708.3134                   21152707.0084
 -20845856.34048 -16232240.36446  20818517.5634                   20818516.2624
 11  8 15 21 28  0.0000000  0  7G08G24G04G20G26G28G17
   3502278.96547   2735724.94345  22306132.8524                   22306135.4924
   1445786.85946   1136774.50143  24049787.2034                   24049787.9614
  -9667331.94947  -7519638.43346  21379813.8594                   21379815.1564
   9335308.90245   7281500.81243  24288546.7194                   24288549.0594
   1793907.06346   1409128.42043  24556010.8284                   24556016.2034
  -8988901.88348  -7016872.82246  21146359.9694                   21146357.7664
 -20869089.82448 -16250344.35746  20814096.5784                   20814095.4264
 11  8 15 21 28 30.0000000  0  7G08G24G04G20G26G28G17
   3575369.05547   2792678.09445  22320041.5474                   22320044.0514
   1508848.53946   1185913.48443  24061788.0474                   24061788.7584
  -9788400.03147  -7613977.09346  21356775.2664                   21356776.3754
   9271899.51246   7232091.00943  24276480.3364                   24276481.8364
   1837379.39546   1443002.75943  24564283.4224                   24564288.5744
  -9022039.18748  -7042694.11246  21140053.9924                   21140052.1334
 -20892109.20348 -16268281.51346  20809716.1564                   20809714.9654
 11  8 15 21 29  0.0000000  0  7G08G24G04G20G26G28G17
   3648756.03147   2849862.61245  22334006.4064                   22334009.5664
   1572153.30946   1235241.88843  24073833.9064                   24073835.8204
  -9909090.47348  -7708021.48646  21333808.6174                   21333809.8594
   9208841.83646   7182955.26143  24264480.6954                   24264482.3714
   1880927.13746   1476935.82543  24572569.6024                   24572575.8284
  -9054950.59848  -7068339.35946  21133791.1024                   21133789.4224
 -20914915.60548 -16286052.71946  20805376.2504                   20805374.9774
 11  8 15 21 29 30.0000000  0  7G08G24G04G20G26G28G17
   3722439.01647   2907277.76145  22348028.3984                   22348030.8324
   1635700.37946   1284759.11243  24085926.3594                   24085928.3094
 -10029398.47748  -7801767.88846  21310914.5784                   21310915.3404
   9146139.94146   7134096.66143  24252549.2034                   24252550.5864
   1924549.14846   1510926.73743  24580870.5474                   24580877.4304
  -9087632.91048  -7093806.10146  21127571.7114                   21127570.6764
 -20937507.93748 -16303657.10446  20801076.8364                   20801075.7154
 11  8 15 21 30  0.0000000  0  8G09G08G24G04G20G26G28G17
  12461742.53956   9722753.00753  24141780.5554                   24141781.3524
   3796417.08247   2964922.86045  22362106.5004                   22362107.8164
   1699489.84846   1334465.19943  24098065.0864                   24098067.2544
 -10149319.02748  -7895212.38546  21288094.4774                   21288095.5784
   9083798.74646   7085519.22343  24240685.9694                   24240686.7544
   1968244.87546   1544975.14143  24589185.1334                   24589192.0204
  -9120082.11748  -7119091.19846  21121396.9694                   21121395.6684
 -20959885.43448 -16321094.10346  20796818.4694                   20796817.2304
 11  8 15 21 30 30.0000000  0  8G09G08G24G04G20G26G28G17
  12327138.93446   9617867.14243  24116165.2194                   24116168.1684
   3870682.67247   3022791.98245  22376238.8674                   22376241.0784
   1763513.74646   1384353.96643  24110248.6884                   24110250.5824
 -10268854.62148  -7988356.89746  21265347.2114                   21265348.5514
   9021815.63746   7037220.81143  24228890.5394                   24228891.2584
   2012006.06646   1579074.65043  24597513.6954                   24597519.1414
  -9152301.73448  -7144197.39346  21115265.6254                   21115264.6024
 -20982054.15648 -16338368.42846  20792600.2194                   20792599.0704
 11  8 15 21 31  0.0000000  0  8G09G08G24G04G20G26G28G17
  12192813.83646   9513198.33143  24090605.1484                   24090606.6564
   3945218.23447   3080871.48445  22390422.6484                   22390425.0354
   1827754.75446   1434411.90143  24122472.1884                   24122475.5084
 -10388017.02048  -8081210.60946  21242671.7664                   21242672.8834
   8960177.82446   6989191.42143  24217161.2584                   24217162.9454
   2055815.19546   1613211.42043  24605849.7814                   24605856.3094
  -9184304.73848  -7169134.80746  21109176.2114                   21109174.3874
 -21004030.05148 -16355492.48346  20788418.1254                   20788416.6884
 11  8 15 21 31 30.0000000  0  8G09G08G24G04G20G26G28G17
  12058773.67246   9408751.52043  24065097.9534                   24065099.3094
   4020023.54747   3139161.15844  22404657.0944                   22404660.5124
   1892213.28546   1484639.32643  24134739.1884                   24134741.5274
 -10506801.07448  -8173769.51646  21220067.6564                   21220068.8794
   8898890.65246   6941435.33643  24205498.6644                   24205500.4304
   2099671.45746   1647384.89843  24614196.1254                   24614202.8284
  -9216087.02747  -7193900.21846  21103127.9774                   21103126.6214
 -21025811.48448 -16372465.02046  20784273.1884                   20784272.1604
 11  8 15 21 32  0.0000000  0  8G09G08G24G04G20G26G28G17
  11925028.11747   9304534.33044  24039646.9454                   24039648.6994
   4095102.23847   3197663.86444  22418944.7894                   22418947.3244
   1956893.20746   1535039.24343  24147047.4144                   24147049.9734
 -10625197.44148  -8266026.32546  21197537.3364                   21197538.7734
   8837962.72746   6893959.10143  24193904.7424                   24193905.8594
   2143578.58646   1681598.02443  24622551.4144                   24622559.2464
  -9247640.32448  -7218487.21746  21097123.3594                   21097121.7464
 -21047393.23448 -16389281.95046  20780166.6094                   20780165.5354
 11  8 15 21 32 30.0000000  0  8G09G08G24G04G20G26G28G17
  11791582.50046   9200550.82243  24014253.5864                   24014254.3674
   4170453.30147   3256378.80044  22433283.4224                   22433286.2074
   2021794.29746   1585611.58043  24159397.6024                   24159399.4104
 -10743201.60248  -8357977.52246  21175081.9224                   21175082.8754
   8777398.56346   6846766.29843  24182378.1804                   24182380.3244
   2187535.76646   1715850.07843  24630916.7344                   24630924.0394
  -9278961.21948  -7242893.11746  21091163.6334                   21091162.1094
 -21068774.34848 -16405942.55646  20776097.6334                   20776096.7114
 11  8 15 21 33  0.0000000  0  8G09G08G24G04G20G26G28G17
  11658442.04346   9096805.13843  23988917.0474                   23988917.8714
   4246076.55147   3315305.83144  22447674.0314                   22447677.0554
   2086916.42646   1636356.11643  24171790.1954                   24171791.7774
 -10860808.07848  -8449618.83646  21152702.1174                   21152703.1724
   8717202.91846   6799860.63043  24170924.4384                   24170925.8134
   2231542.17246   1750140.54143  24639290.3364                   24639297.1914
  -9310045.43448  -7267114.58446  21085248.3204                   21085247.0164
 -21089953.29748 -16422445.62946  20772067.5314                   20772066.2194
 11  8 15 21 33 30.0000000  0  8G09G08G24G04G20G26G28G17
  11525611.73446   8993301.06243  23963640.6484                   23963641.0784
   4321970.73847   3374443.97844  22462116.3984                   22462119.8204
   2152258.23847   1687271.82343  24184224.7814                   24184225.2194
 -10978013.03948  -8540947.28846  21130398.6954                   21130399.4064
   8657379.52746   6753245.09343  24159540.5164                   24159542.3714
   2275596.45346   1784468.26243  24647674.5864                   24647680.7154
  -9340889.73848  -7291149.11946  21079378.6564                   21079377.1724
 -21110929.63348 -16438790.81046  20768076.1024                   20768074.7664
 11  8 15 21 34  0.0000000  0  8G09G08G24G04G20G26G28G17
  11393091.56346   8890038.70343  23938422.2274                   23938423.3134
   4398129.46147   3433788.25045  22476609.2504                   22476612.2344
   2217814.05547   1738354.35843  24196699.3444                   24196700.5704
 -11094817.07448  -8631963.33146  21108171.5704                   21108172.5474
   8597926.98046   6706918.54943  24148226.5314                   24148228.0984
   2319692.35546   1818828.50144  24656066.3754                   24656072.3284
  -9371496.28148  -7314998.38646  21073554.4454                   21073553.0314
 -21131708.14548 -16454981.85046  20764121.8284                   20764120.6214
 11  8 15 21 34 30.0000000  0  8G09G08G24G04G20G26G28G17
  11260883.80546   8787019.76843  23913263.6884                   23913264.5744
   4474549.28147   3493335.96345  22491151.5554                   22491154.7074
   2283580.68047   1789601.13343  24209214.7734                   24209214.8954
 -11211218.34848  -8722665.53646  21086021.0784                   21086021.9224
   8538846.83646   6660882.16343  24136983.7814                   24136985.1024
   2363826.03546   1853218.12044  24664464.2344                   24664471.3244
  -9401864.09448  -7338661.62046  21067775.8054                   21067774.0004
 -21152290.35548 -16471019.92646  20760204.8364                   20760203.6884
 11  8 15 21 35  0.0000000  0  9G09G02G08G24G04G20G26G28G17
  11128990.35546   8684245.73243  23888166.0394                   23888167.0704
  12460714.62956   9722079.37254  24636154.6254                   24636161.7464
   4551225.84447   3553083.75945  22505742.8134                   22505745.9494
   2349554.33646   1841009.23743  24221768.4844                   24221769.6684
 -11327215.42248  -8813052.76546  21063947.5784                   21063948.3134
   8480140.08646   6615136.75943  24125812.3444                   24125814.2424
   2407993.24246   1887633.85744  24672869.3834                   24672876.1024
  -9431992.94148  -7362138.65446  21062042.0554                   21062041.0704
 -21172678.87948 -16486907.08846  20756325.4614                   20756323.9884
 11  8 15 21 35 30.0000000  0  9G09G02G08G24G04G20G26G28G17
  10997409.13746   8581715.00443  23863125.3524                   23863127.3284
  12324808.28947   9616178.61244  24610292.7974                   24610299.0204
   4628151.16447   3613025.37845  22520381.3594                   22520384.7034
   2415726.92246   1892572.35843  24234360.5784                   24234361.4224
 -11442811.09848  -8903127.22646  21041950.3444                   21041951.2664
   8421803.97746   6569680.11543  24114711.8914                   24114712.9454
   2452185.66046   1922069.24944  24681278.6724                   24681285.5824
  -9461886.35948  -7385432.23546  21056353.8984                   21056352.4844
 -21192880.04348 -16502648.23246  20752480.9304                   20752479.9024
 11  8 15 21 36  0.0000000  0  9G09G02G08G24G04G20G26G28G17
  10866135.21546   8479423.69843  23838145.7424                   23838147.3554
  12188933.29347   9510302.35444  24584436.1094                   24584442.6174
   4705314.19147   3673152.23644  22535065.0314                   22535067.8404
   2482088.14846   1944282.47443  24246988.1254                   24246990.4884
 -11558010.77048  -8992893.11246  21020028.3284                   21020029.5634
   8363832.49246   6524507.59643  24103679.6094                   24103681.4264
   2496392.49247   1956515.89643  24689692.1724                   24689698.4494
  -9491550.79748  -7408547.37746  21050708.8754                   21050707.6804
 -21212902.84848 -16518250.41046  20748671.2114                   20748669.8954
 11  8 15 21 36 30.0000000  0  9G09G02G08G24G04G20G26G28G17
  10735168.20746   8377371.57343  23813223.4064                   23813224.3444
  12053088.32847   9404449.45044  24558585.4534                   24558591.8284
   4782708.32047   3733459.16744  22549792.6954                   22549796.2774
   2548631.96946   1996134.79043  24259651.0084                   24259653.8914
 -11672815.48848  -9082351.23546  20998182.1174                   20998182.7074
   8306223.98046   6479617.90943  24092716.7344                   24092718.7194
   2540606.69547   1990968.26743  24698104.9454                   24698112.3834
  -9520988.40648  -7431485.77946  21045107.0944                   21045105.7544
 -21232752.36748 -16533717.55646  20744893.6094                   20744892.2234
 11  8 15 21 37  0.0000000  0  9G09G02G08G24G04G20G26G28G17
  10604517.84846   8275566.14943  23788361.3754                   23788362.2234
  11917281.91047   9298626.58644  24532741.9144                   24532748.4654
   4860336.73447   3793948.62944  22564565.2894                   22564568.7194
   2615361.93846   2048132.17143  24272350.0864                   24272351.5474
 -11787216.64148  -9171494.89946  20976411.9924                   20976412.8674
   8248986.88346   6435017.73243  24081825.1564                   24081826.0354
   2584831.76646   2025429.11543  24706521.1644                   24706528.2034
  -9550191.19948  -7454241.20746  21039550.1254                   21039548.4494
 -21252423.34048 -16549045.57146  20741150.3134                   20741149.0044
 11  8 15 21 37 30.0000000  0  9G09G02G08G24G04G20G26G28G17
  10474190.48447   8174012.43443  23763561.1724                   23763561.3324
  11781519.47747   9192837.99543  24506906.5864                   24506913.2544
   4938200.25047   3854621.30544  22579381.5394                   22579385.3984
   2682278.98046   2100275.34143  24285083.7034                   24285085.0744
 -11901208.08248  -9260319.30446  20954719.8984                   20954720.8524
   8192126.64846   6390711.12943  24071004.4454                   24071005.8554
   2629068.39846   2059898.95443  24714939.1564                   24714946.7814
  -9579154.57048  -7476810.07046  21034038.1884                   21034037.0004
 -21271913.29348 -16564232.53546  20737441.3364                   20737440.4384
 11  8 15 21 38  0.0000000  0  9G09G02G08G24G04G20G26G28G17
  10344191.67247   8072714.66543  23738822.9924                   23738823.1564
  11645805.82447   9087087.40044  24481081.4614                   24481087.4734
   5016298.60247   3915476.97244  22594243.5164                   22594247.8794
   2749383.12546   2152564.33543  24297853.7034                   24297854.6604
 -12014784.75848  -9348820.52546  20933107.1644                   20933108.0554
   8135648.09846   6346701.93643  24060256.9694                   24060259.2704
   2673316.12546   2094377.50943  24723359.3524                   24723366.5554
  -9607874.39848  -7499189.16146  21028573.5164                   21028571.9064
 -21291220.92648 -16579277.43246  20733767.3134                   20733766.2234
 11  8 15 21 38 30.0000000  0  9G09G02G08G24G04G20G26G28G17
  10214523.32447   7971674.54043  23714147.8834                   23714148.9024
  11510141.83647   8981375.48444  24455265.3594                   24455271.3094
   5094627.72347   3976512.46144  22609149.4614                   22609153.1054
   2816670.38346   2204996.04243  24310657.6174                   24310658.9104
 -12127945.51648  -9436997.64946  20911572.9774                   20911574.1294
   8079551.79746   6302990.58143  24049583.0164                   24049583.7344
   2717570.39846   2128861.05743  24731781.0164                   24731788.1844
  -9636350.10548  -7521378.02646  21023154.8364                   21023153.1174
 -21310348.58648 -16594182.09546  20730127.8524                   20730126.4884
 11  8 15 21 39  0.0000000  0  9G09G02G08G24G04G20G26G28G17
  10085195.35946   7870899.56543  23689537.1564                   23689538.4414
  11374536.18847   8875709.03444  24429459.8754                   24429466.2704
   5173191.08247   4037730.46944  22624099.6024                   22624103.2974
   2884144.88746   2257573.52543  24323496.4064                   24323498.5394
 -12240681.09848  -9524843.45946  20890120.3134                   20890120.6644
   8023846.71946   6259584.15043  24038982.0164                   24038983.2154
   2761835.19546   2163352.93343  24740205.1254                   24740211.9184
  -9664573.62548  -7543370.37346  21017783.7664                   21017782.4694
 -21329290.73848 -16608942.20346  20726522.8594                   20726521.5234
 11  8 15 21 39 30.0000000  0  9G09G02G08G24G04G20G26G28G17
  11531633.44146   8997994.28843  23964784.7504                   23964786.6294
  12814414.13746   9997692.11743  24703459.2034                   24703465.7704
   6827401.16047   5326725.13944  22938885.5394                   22938889.3794
   4527220.21146   3537891.95243  24636163.9924                   24636166.0274
 -10777567.06648  -8384754.52946  21168541.5784                   21168542.1954
   9543954.96146   7444084.18243  24328249.1254                   24328250.6954
   4381524.15646   3425447.92642  25048421.3364                   25048428.9694
  -8117124.27348  -6337565.69546  21312253.5314                   21312252.1334
 -19772629.68048 -15395959.56046  21022745.7584                   21022744.5634
 11  8 15 21 40  0.0000000  0  9G09G02G08G24G04G20G26G28G17
  11402991.41846   8897753.91443  23940305.2344                   23940306.3914
  12678927.87946   9892118.78543  24677676.2584                   24677683.0594
   6906419.87147   5388297.93944  22953922.5864                   22953926.5594
   4595057.58246   3590752.27744  24649073.9384                   24649075.0234
 -10889449.35248  -8471935.43346  21147251.0164                   21147251.8244
   9489034.21546   7401288.84543  24317798.7584                   24317799.4774
   4425796.79746   3459945.81342  25056845.7504                   25056853.6334
  -8144843.30548  -6359164.94946  21306978.9384                   21306977.3714
 -19791208.09048 -15410436.22746  21019210.6174                   21019209.3674
 11  8 15 21 40 30.0000000  0  9G09G02G08G24G04G20G26G28G17
  11274694.94547   8797782.67243  23915891.8834                   23915892.4414
  12543502.09846   9786592.53743  24651905.8204                   24651912.0904
   6985659.52047   5450042.94144  22969001.5474                   22969005.3834
   4663070.31646   3643749.29744  24662016.0234                   24662017.3634
 -11000903.46948  -8558782.70746  21126041.9774                   21126042.6414
   9434506.41847   7358799.73043  24307421.8444                   24307423.1844
   4470066.42646   3494441.39843  25065270.9774                   25065278.1134
  -8172309.87548  -6380567.46446  21301752.1254                   21301750.6804
 -19809608.95348 -15424774.56646  21015708.8984                   21015707.9344
 11  8 15 21 41  0.0000000  0  9G09G02G08G24G04G20G26G28G17
  11146749.06346   8698084.63843  23891544.3204                   23891544.8204
  12408141.35246   9681116.86843  24626148.0394                   24626153.1214
   7065119.67647   5511959.72644  22984122.7344                   22984126.0204
   4731258.25446   3696882.76143  24674991.3674                   24674993.4224
 -11111924.44148  -8645292.47146  21104915.0234                   21104915.9264
   9380375.73846   7316620.06143  24297120.6334                   24297121.9844
   4514332.52346   3528934.21543  25073694.2974                   25073702.5554
  -8199520.20348  -6401770.32746  21296574.4694                   21296572.9384
 -19827830.83248 -15438973.42546  21012241.5234                   21012239.8834
 11  8 15 21 41 30.0000000  0  9G09G02G08G24G04G20G26G28G17
  11019156.85546   8598662.18043  23867264.5164                   23867265.1484
  12272847.49246   9575693.38743  24600401.4144                   24600405.8524
   7144797.32447   5574045.98644  22999284.7424                   22999288.9734
   4799618.64846   3750150.66343  24687999.8984                   24688001.8484
 -11222510.57848  -8731463.40546  21083871.4224                   21083871.5904
   9326643.88746   7274751.20843  24286895.9774                   24286897.2894
   4558592.16046   3563422.04143  25082117.3914                   25082124.7664
  -8226472.85248  -6422772.40646  21291445.3834                   21291443.7304
 -19845875.26248 -15453034.02346  21008807.6804                   21008806.4924
 11  8 15 21 42  0.0000000  0  9G09G02G08G24G04G20G26G28G17
  10891920.74646   8499517.27343  23843051.1954                   23843052.6484
  12137622.01246   9470323.08343  24574668.5314                   24574673.6684
   7224688.25047   5636298.42344  23014488.2504                   23014492.2034
   4868148.29346   3803550.40643  24701040.3204                   24701042.6524
 -11332659.94948  -8817294.00846  21062910.6414                   21062910.9024
   9273312.39846   7233194.19243  24276746.8834                   24276747.6254
   4602841.41446   3597901.75443  25090537.7344                   25090544.8874
  -8253167.33248  -6443573.30846  21286365.4774                   21286363.8054
 -19863743.57848 -15466957.37946  21005407.6254                   21005406.1914
